<?xml version="1.0" encoding="UTF-8" standalone="no" ?>
<gpx xmlns="http://www.topografix.com/GPX/1/1" xmlns:xsi="http://www.w3.org/2001/XMLSchema-instance" xsi:schemaLocation="http://www.topografix.com/GPX/1/1 http://www.topografix.com/GPX/1/1/gpx.xsd" version="1.1" creator="VisuGPX - https://www.visugpx.com">
  <metadata>
    <name>2019-05-15 20:44:21</name>
    <desc><![CDATA[

]]></desc>
  </metadata>
  <trk>
    <name><![CDATA[2019-05-15 20:44:21]]></name>
    <trkseg>
      <trkpt lat="39.40925" lon="-8.7023">
        <ele>104.92</ele>
        <time>2019-05-15T07:03:28Z</time>
      </trkpt>
      <trkpt lat="39.40925" lon="-8.7023">
        <ele>104.92</ele>
        <time>2019-05-15T07:03:29Z</time>
      </trkpt>
      <trkpt lat="39.40937" lon="-8.70232">
        <ele>104.92</ele>
        <time>2019-05-15T07:03:43Z</time>
      </trkpt>
      <trkpt lat="39.4095" lon="-8.70234">
        <ele>106.84</ele>
        <time>2019-05-15T07:03:59Z</time>
      </trkpt>
      <trkpt lat="39.40967" lon="-8.70237">
        <ele>108.77</ele>
        <time>2019-05-15T07:04:17Z</time>
      </trkpt>
      <trkpt lat="39.40969" lon="-8.70238">
        <ele>108.29</ele>
        <time>2019-05-15T07:04:19Z</time>
      </trkpt>
      <trkpt lat="39.40973" lon="-8.7024">
        <ele>110.21</ele>
        <time>2019-05-15T07:04:23Z</time>
      </trkpt>
      <trkpt lat="39.40977" lon="-8.70251">
        <ele>111.17</ele>
        <time>2019-05-15T07:04:35Z</time>
      </trkpt>
      <trkpt lat="39.40967" lon="-8.7027">
        <ele>112.13</ele>
        <time>2019-05-15T07:04:51Z</time>
      </trkpt>
      <trkpt lat="39.40961" lon="-8.70279">
        <ele>113.09</ele>
        <time>2019-05-15T07:04:59Z</time>
      </trkpt>
      <trkpt lat="39.40961" lon="-8.70298">
        <ele>113.57</ele>
        <time>2019-05-15T07:05:13Z</time>
      </trkpt>
      <trkpt lat="39.40961" lon="-8.703">
        <ele>113.09</ele>
        <time>2019-05-15T07:05:15Z</time>
      </trkpt>
      <trkpt lat="39.40961" lon="-8.70303">
        <ele>114.05</ele>
        <time>2019-05-15T07:05:17Z</time>
      </trkpt>
      <trkpt lat="39.40962" lon="-8.70305">
        <ele>114.53</ele>
        <time>2019-05-15T07:05:18Z</time>
      </trkpt>
      <trkpt lat="39.40966" lon="-8.70325">
        <ele>115.01</ele>
        <time>2019-05-15T07:05:31Z</time>
      </trkpt>
      <trkpt lat="39.40966" lon="-8.70326">
        <ele>115.5</ele>
        <time>2019-05-15T07:05:32Z</time>
      </trkpt>
      <trkpt lat="39.40968" lon="-8.70332">
        <ele>115.98</ele>
        <time>2019-05-15T07:05:36Z</time>
      </trkpt>
      <trkpt lat="39.4097" lon="-8.7034">
        <ele>116.94</ele>
        <time>2019-05-15T07:05:42Z</time>
      </trkpt>
      <trkpt lat="39.40971" lon="-8.70342">
        <ele>116.94</ele>
        <time>2019-05-15T07:05:44Z</time>
      </trkpt>
      <trkpt lat="39.40977" lon="-8.70353">
        <ele>117.9</ele>
        <time>2019-05-15T07:05:54Z</time>
      </trkpt>
      <trkpt lat="39.40985" lon="-8.70367">
        <ele>120.3</ele>
        <time>2019-05-15T07:06:08Z</time>
      </trkpt>
      <trkpt lat="39.40994" lon="-8.7038">
        <ele>120.78</ele>
        <time>2019-05-15T07:06:23Z</time>
      </trkpt>
      <trkpt lat="39.40998" lon="-8.70385">
        <ele>120.78</ele>
        <time>2019-05-15T07:06:39Z</time>
      </trkpt>
      <trkpt lat="39.41012" lon="-8.70401">
        <ele>120.78</ele>
        <time>2019-05-15T07:06:53Z</time>
      </trkpt>
      <trkpt lat="39.41022" lon="-8.70412">
        <ele>121.74</ele>
        <time>2019-05-15T07:07:08Z</time>
      </trkpt>
      <trkpt lat="39.41024" lon="-8.70417">
        <ele>121.74</ele>
        <time>2019-05-15T07:07:13Z</time>
      </trkpt>
      <trkpt lat="39.41029" lon="-8.7043">
        <ele>121.74</ele>
        <time>2019-05-15T07:07:22Z</time>
      </trkpt>
      <trkpt lat="39.41031" lon="-8.7044">
        <ele>120.78</ele>
        <time>2019-05-15T07:07:36Z</time>
      </trkpt>
      <trkpt lat="39.41033" lon="-8.70441">
        <ele>121.74</ele>
        <time>2019-05-15T07:07:38Z</time>
      </trkpt>
      <trkpt lat="39.41037" lon="-8.7045">
        <ele>121.26</ele>
        <time>2019-05-15T07:07:53Z</time>
      </trkpt>
      <trkpt lat="39.41034" lon="-8.70447">
        <ele>121.74</ele>
        <time>2019-05-15T07:08:14Z</time>
      </trkpt>
      <trkpt lat="39.41038" lon="-8.70448">
        <ele>122.22</ele>
        <time>2019-05-15T07:08:31Z</time>
      </trkpt>
      <trkpt lat="39.41047" lon="-8.70457">
        <ele>122.22</ele>
        <time>2019-05-15T07:08:44Z</time>
      </trkpt>
      <trkpt lat="39.41057" lon="-8.70466">
        <ele>122.22</ele>
        <time>2019-05-15T07:08:58Z</time>
      </trkpt>
      <trkpt lat="39.4106" lon="-8.70468">
        <ele>122.71</ele>
        <time>2019-05-15T07:09:10Z</time>
      </trkpt>
      <trkpt lat="39.4106" lon="-8.70468">
        <ele>121.74</ele>
        <time>2019-05-15T07:09:22Z</time>
      </trkpt>
      <trkpt lat="39.41062" lon="-8.70467">
        <ele>122.22</ele>
        <time>2019-05-15T07:09:56Z</time>
      </trkpt>
      <trkpt lat="39.41061" lon="-8.70466">
        <ele>122.22</ele>
        <time>2019-05-15T07:10:29Z</time>
      </trkpt>
      <trkpt lat="39.41061" lon="-8.70464">
        <ele>122.71</ele>
        <time>2019-05-15T07:10:57Z</time>
      </trkpt>
      <trkpt lat="39.4106" lon="-8.70465">
        <ele>122.22</ele>
        <time>2019-05-15T07:11:22Z</time>
      </trkpt>
      <trkpt lat="39.41058" lon="-8.70467">
        <ele>121.74</ele>
        <time>2019-05-15T07:11:50Z</time>
      </trkpt>
      <trkpt lat="39.41057" lon="-8.70469">
        <ele>123.19</ele>
        <time>2019-05-15T07:12:17Z</time>
      </trkpt>
      <trkpt lat="39.41061" lon="-8.70467">
        <ele>122.22</ele>
        <time>2019-05-15T07:12:41Z</time>
      </trkpt>
      <trkpt lat="39.41059" lon="-8.70468">
        <ele>124.15</ele>
        <time>2019-05-15T07:12:59Z</time>
      </trkpt>
      <trkpt lat="39.41059" lon="-8.70469">
        <ele>124.15</ele>
        <time>2019-05-15T07:13:15Z</time>
      </trkpt>
      <trkpt lat="39.41063" lon="-8.70475">
        <ele>124.15</ele>
        <time>2019-05-15T07:13:28Z</time>
      </trkpt>
      <trkpt lat="39.41075" lon="-8.70489">
        <ele>124.15</ele>
        <time>2019-05-15T07:13:42Z</time>
      </trkpt>
      <trkpt lat="39.41081" lon="-8.70497">
        <ele>123.19</ele>
        <time>2019-05-15T07:13:49Z</time>
      </trkpt>
      <trkpt lat="39.41086" lon="-8.70504">
        <ele>123.19</ele>
        <time>2019-05-15T07:14:01Z</time>
      </trkpt>
      <trkpt lat="39.41097" lon="-8.70514">
        <ele>123.19</ele>
        <time>2019-05-15T07:14:16Z</time>
      </trkpt>
      <trkpt lat="39.41109" lon="-8.70524">
        <ele>122.22</ele>
        <time>2019-05-15T07:14:28Z</time>
      </trkpt>
      <trkpt lat="39.41114" lon="-8.70529">
        <ele>122.22</ele>
        <time>2019-05-15T07:14:33Z</time>
      </trkpt>
      <trkpt lat="39.41119" lon="-8.70535">
        <ele>121.74</ele>
        <time>2019-05-15T07:14:38Z</time>
      </trkpt>
      <trkpt lat="39.41126" lon="-8.70544">
        <ele>121.74</ele>
        <time>2019-05-15T07:14:46Z</time>
      </trkpt>
      <trkpt lat="39.41138" lon="-8.70557">
        <ele>121.26</ele>
        <time>2019-05-15T07:14:59Z</time>
      </trkpt>
      <trkpt lat="39.41143" lon="-8.70566">
        <ele>120.78</ele>
        <time>2019-05-15T07:15:06Z</time>
      </trkpt>
      <trkpt lat="39.41157" lon="-8.70585">
        <ele>121.26</ele>
        <time>2019-05-15T07:15:23Z</time>
      </trkpt>
      <trkpt lat="39.41168" lon="-8.706">
        <ele>121.26</ele>
        <time>2019-05-15T07:15:37Z</time>
      </trkpt>
      <trkpt lat="39.4118" lon="-8.70615">
        <ele>121.74</ele>
        <time>2019-05-15T07:15:51Z</time>
      </trkpt>
      <trkpt lat="39.41181" lon="-8.70616">
        <ele>121.74</ele>
        <time>2019-05-15T07:15:52Z</time>
      </trkpt>
      <trkpt lat="39.41185" lon="-8.70621">
        <ele>121.74</ele>
        <time>2019-05-15T07:15:56Z</time>
      </trkpt>
      <trkpt lat="39.41195" lon="-8.70646">
        <ele>122.22</ele>
        <time>2019-05-15T07:16:13Z</time>
      </trkpt>
      <trkpt lat="39.41202" lon="-8.70656">
        <ele>122.22</ele>
        <time>2019-05-15T07:16:22Z</time>
      </trkpt>
      <trkpt lat="39.41213" lon="-8.70673">
        <ele>122.71</ele>
        <time>2019-05-15T07:16:36Z</time>
      </trkpt>
      <trkpt lat="39.41217" lon="-8.70676">
        <ele>122.71</ele>
        <time>2019-05-15T07:16:42Z</time>
      </trkpt>
      <trkpt lat="39.41212" lon="-8.70673">
        <ele>123.19</ele>
        <time>2019-05-15T07:16:57Z</time>
      </trkpt>
      <trkpt lat="39.41213" lon="-8.70673">
        <ele>123.19</ele>
        <time>2019-05-15T07:17:10Z</time>
      </trkpt>
      <trkpt lat="39.41227" lon="-8.7069">
        <ele>123.19</ele>
        <time>2019-05-15T07:17:25Z</time>
      </trkpt>
      <trkpt lat="39.41239" lon="-8.70706">
        <ele>123.19</ele>
        <time>2019-05-15T07:17:39Z</time>
      </trkpt>
      <trkpt lat="39.41252" lon="-8.70722">
        <ele>122.71</ele>
        <time>2019-05-15T07:17:53Z</time>
      </trkpt>
      <trkpt lat="39.41259" lon="-8.70736">
        <ele>123.19</ele>
        <time>2019-05-15T07:18:03Z</time>
      </trkpt>
      <trkpt lat="39.41263" lon="-8.7074">
        <ele>123.67</ele>
        <time>2019-05-15T07:18:07Z</time>
      </trkpt>
      <trkpt lat="39.41272" lon="-8.70762">
        <ele>121.74</ele>
        <time>2019-05-15T07:18:23Z</time>
      </trkpt>
      <trkpt lat="39.41279" lon="-8.70775">
        <ele>119.34</ele>
        <time>2019-05-15T07:18:33Z</time>
      </trkpt>
      <trkpt lat="39.41288" lon="-8.70793">
        <ele>118.86</ele>
        <time>2019-05-15T07:18:46Z</time>
      </trkpt>
      <trkpt lat="39.41289" lon="-8.70794">
        <ele>118.38</ele>
        <time>2019-05-15T07:18:47Z</time>
      </trkpt>
      <trkpt lat="39.41296" lon="-8.70808">
        <ele>117.9</ele>
        <time>2019-05-15T07:18:59Z</time>
      </trkpt>
      <trkpt lat="39.413" lon="-8.70815">
        <ele>117.9</ele>
        <time>2019-05-15T07:19:05Z</time>
      </trkpt>
      <trkpt lat="39.41304" lon="-8.70823">
        <ele>117.9</ele>
        <time>2019-05-15T07:19:13Z</time>
      </trkpt>
      <trkpt lat="39.41313" lon="-8.70839">
        <ele>119.82</ele>
        <time>2019-05-15T07:19:27Z</time>
      </trkpt>
      <trkpt lat="39.41316" lon="-8.70845">
        <ele>120.78</ele>
        <time>2019-05-15T07:19:32Z</time>
      </trkpt>
      <trkpt lat="39.41325" lon="-8.70862">
        <ele>122.71</ele>
        <time>2019-05-15T07:19:47Z</time>
      </trkpt>
      <trkpt lat="39.41332" lon="-8.70878">
        <ele>124.15</ele>
        <time>2019-05-15T07:20:02Z</time>
      </trkpt>
      <trkpt lat="39.41333" lon="-8.7088">
        <ele>124.15</ele>
        <time>2019-05-15T07:20:04Z</time>
      </trkpt>
      <trkpt lat="39.41335" lon="-8.70884">
        <ele>123.67</ele>
        <time>2019-05-15T07:20:07Z</time>
      </trkpt>
      <trkpt lat="39.41345" lon="-8.70896">
        <ele>126.07</ele>
        <time>2019-05-15T07:20:21Z</time>
      </trkpt>
      <trkpt lat="39.41344" lon="-8.70899">
        <ele>126.07</ele>
        <time>2019-05-15T07:20:41Z</time>
      </trkpt>
      <trkpt lat="39.41344" lon="-8.70901">
        <ele>126.55</ele>
        <time>2019-05-15T07:20:57Z</time>
      </trkpt>
      <trkpt lat="39.41345" lon="-8.70902">
        <ele>126.55</ele>
        <time>2019-05-15T07:20:59Z</time>
      </trkpt>
      <trkpt lat="39.41347" lon="-8.70904">
        <ele>127.03</ele>
        <time>2019-05-15T07:21:01Z</time>
      </trkpt>
      <trkpt lat="39.41352" lon="-8.70909">
        <ele>126.55</ele>
        <time>2019-05-15T07:21:08Z</time>
      </trkpt>
      <trkpt lat="39.41364" lon="-8.70922">
        <ele>127.03</ele>
        <time>2019-05-15T07:21:22Z</time>
      </trkpt>
      <trkpt lat="39.41366" lon="-8.70924">
        <ele>127.51</ele>
        <time>2019-05-15T07:21:24Z</time>
      </trkpt>
      <trkpt lat="39.41369" lon="-8.70929">
        <ele>127.51</ele>
        <time>2019-05-15T07:21:28Z</time>
      </trkpt>
      <trkpt lat="39.41381" lon="-8.70932">
        <ele>127.99</ele>
        <time>2019-05-15T07:21:40Z</time>
      </trkpt>
      <trkpt lat="39.41393" lon="-8.7093">
        <ele>127.51</ele>
        <time>2019-05-15T07:21:52Z</time>
      </trkpt>
      <trkpt lat="39.41404" lon="-8.70929">
        <ele>126.55</ele>
        <time>2019-05-15T07:22:01Z</time>
      </trkpt>
      <trkpt lat="39.41419" lon="-8.70937">
        <ele>127.03</ele>
        <time>2019-05-15T07:22:14Z</time>
      </trkpt>
      <trkpt lat="39.41421" lon="-8.70945">
        <ele>126.07</ele>
        <time>2019-05-15T07:22:23Z</time>
      </trkpt>
      <trkpt lat="39.41421" lon="-8.70953">
        <ele>125.59</ele>
        <time>2019-05-15T07:22:28Z</time>
      </trkpt>
      <trkpt lat="39.41423" lon="-8.70955">
        <ele>126.07</ele>
        <time>2019-05-15T07:22:30Z</time>
      </trkpt>
      <trkpt lat="39.41424" lon="-8.70958">
        <ele>126.07</ele>
        <time>2019-05-15T07:22:32Z</time>
      </trkpt>
      <trkpt lat="39.41429" lon="-8.70966">
        <ele>124.63</ele>
        <time>2019-05-15T07:22:40Z</time>
      </trkpt>
      <trkpt lat="39.4143" lon="-8.70969">
        <ele>125.11</ele>
        <time>2019-05-15T07:22:42Z</time>
      </trkpt>
      <trkpt lat="39.41423" lon="-8.70983">
        <ele>126.55</ele>
        <time>2019-05-15T07:22:52Z</time>
      </trkpt>
      <trkpt lat="39.41421" lon="-8.70984">
        <ele>126.07</ele>
        <time>2019-05-15T07:22:54Z</time>
      </trkpt>
      <trkpt lat="39.41417" lon="-8.70986">
        <ele>126.55</ele>
        <time>2019-05-15T07:23:07Z</time>
      </trkpt>
      <trkpt lat="39.4142" lon="-8.70982">
        <ele>126.07</ele>
        <time>2019-05-15T07:23:25Z</time>
      </trkpt>
      <trkpt lat="39.41426" lon="-8.70981">
        <ele>126.07</ele>
        <time>2019-05-15T07:23:38Z</time>
      </trkpt>
      <trkpt lat="39.41431" lon="-8.70978">
        <ele>125.11</ele>
        <time>2019-05-15T07:23:55Z</time>
      </trkpt>
      <trkpt lat="39.4145" lon="-8.70981">
        <ele>125.11</ele>
        <time>2019-05-15T07:24:11Z</time>
      </trkpt>
      <trkpt lat="39.41467" lon="-8.70978">
        <ele>123.19</ele>
        <time>2019-05-15T07:24:24Z</time>
      </trkpt>
      <trkpt lat="39.41488" lon="-8.70969">
        <ele>122.22</ele>
        <time>2019-05-15T07:24:39Z</time>
      </trkpt>
      <trkpt lat="39.41497" lon="-8.70961">
        <ele>121.26</ele>
        <time>2019-05-15T07:24:54Z</time>
      </trkpt>
      <trkpt lat="39.41506" lon="-8.70952">
        <ele>120.78</ele>
        <time>2019-05-15T07:25:06Z</time>
      </trkpt>
      <trkpt lat="39.41516" lon="-8.70943">
        <ele>120.78</ele>
        <time>2019-05-15T07:25:17Z</time>
      </trkpt>
      <trkpt lat="39.41535" lon="-8.70931">
        <ele>121.26</ele>
        <time>2019-05-15T07:25:32Z</time>
      </trkpt>
      <trkpt lat="39.41542" lon="-8.70925">
        <ele>122.22</ele>
        <time>2019-05-15T07:25:40Z</time>
      </trkpt>
      <trkpt lat="39.41553" lon="-8.70914">
        <ele>122.22</ele>
        <time>2019-05-15T07:25:50Z</time>
      </trkpt>
      <trkpt lat="39.41571" lon="-8.70907">
        <ele>121.74</ele>
        <time>2019-05-15T07:26:05Z</time>
      </trkpt>
      <trkpt lat="39.41588" lon="-8.70905">
        <ele>121.26</ele>
        <time>2019-05-15T07:26:18Z</time>
      </trkpt>
      <trkpt lat="39.41602" lon="-8.70911">
        <ele>120.78</ele>
        <time>2019-05-15T07:26:33Z</time>
      </trkpt>
      <trkpt lat="39.41616" lon="-8.70921">
        <ele>118.86</ele>
        <time>2019-05-15T07:26:48Z</time>
      </trkpt>
      <trkpt lat="39.41634" lon="-8.70928">
        <ele>116.46</ele>
        <time>2019-05-15T07:27:04Z</time>
      </trkpt>
      <trkpt lat="39.41654" lon="-8.7094">
        <ele>115.98</ele>
        <time>2019-05-15T07:27:19Z</time>
      </trkpt>
      <trkpt lat="39.41667" lon="-8.70953">
        <ele>116.94</ele>
        <time>2019-05-15T07:27:33Z</time>
      </trkpt>
      <trkpt lat="39.41668" lon="-8.70954">
        <ele>116.94</ele>
        <time>2019-05-15T07:27:34Z</time>
      </trkpt>
      <trkpt lat="39.41681" lon="-8.70966">
        <ele>117.9</ele>
        <time>2019-05-15T07:27:47Z</time>
      </trkpt>
      <trkpt lat="39.41689" lon="-8.70972">
        <ele>118.38</ele>
        <time>2019-05-15T07:27:55Z</time>
      </trkpt>
      <trkpt lat="39.41691" lon="-8.70975">
        <ele>118.38</ele>
        <time>2019-05-15T07:27:58Z</time>
      </trkpt>
      <trkpt lat="39.41703" lon="-8.70991">
        <ele>118.86</ele>
        <time>2019-05-15T07:28:13Z</time>
      </trkpt>
      <trkpt lat="39.41708" lon="-8.71001">
        <ele>119.34</ele>
        <time>2019-05-15T07:28:25Z</time>
      </trkpt>
      <trkpt lat="39.41721" lon="-8.71013">
        <ele>119.34</ele>
        <time>2019-05-15T07:28:38Z</time>
      </trkpt>
      <trkpt lat="39.41722" lon="-8.71014">
        <ele>119.34</ele>
        <time>2019-05-15T07:28:40Z</time>
      </trkpt>
      <trkpt lat="39.41738" lon="-8.71025">
        <ele>116.94</ele>
        <time>2019-05-15T07:28:56Z</time>
      </trkpt>
      <trkpt lat="39.41753" lon="-8.71036">
        <ele>116.46</ele>
        <time>2019-05-15T07:29:10Z</time>
      </trkpt>
      <trkpt lat="39.41768" lon="-8.71047">
        <ele>115.98</ele>
        <time>2019-05-15T07:29:24Z</time>
      </trkpt>
      <trkpt lat="39.41782" lon="-8.71052">
        <ele>116.94</ele>
        <time>2019-05-15T07:29:39Z</time>
      </trkpt>
      <trkpt lat="39.41798" lon="-8.71063">
        <ele>117.42</ele>
        <time>2019-05-15T07:29:54Z</time>
      </trkpt>
      <trkpt lat="39.41805" lon="-8.71068">
        <ele>116.94</ele>
        <time>2019-05-15T07:30:00Z</time>
      </trkpt>
      <trkpt lat="39.41817" lon="-8.71079">
        <ele>117.9</ele>
        <time>2019-05-15T07:30:13Z</time>
      </trkpt>
      <trkpt lat="39.41829" lon="-8.71094">
        <ele>118.38</ele>
        <time>2019-05-15T07:30:27Z</time>
      </trkpt>
      <trkpt lat="39.4184" lon="-8.71107">
        <ele>120.3</ele>
        <time>2019-05-15T07:30:42Z</time>
      </trkpt>
      <trkpt lat="39.41853" lon="-8.71119">
        <ele>121.26</ele>
        <time>2019-05-15T07:30:56Z</time>
      </trkpt>
      <trkpt lat="39.41854" lon="-8.71119">
        <ele>121.74</ele>
        <time>2019-05-15T07:30:57Z</time>
      </trkpt>
      <trkpt lat="39.41864" lon="-8.71133">
        <ele>121.74</ele>
        <time>2019-05-15T07:31:10Z</time>
      </trkpt>
      <trkpt lat="39.41866" lon="-8.71135">
        <ele>121.74</ele>
        <time>2019-05-15T07:31:12Z</time>
      </trkpt>
      <trkpt lat="39.41872" lon="-8.71144">
        <ele>122.22</ele>
        <time>2019-05-15T07:31:19Z</time>
      </trkpt>
      <trkpt lat="39.41875" lon="-8.71147">
        <ele>122.22</ele>
        <time>2019-05-15T07:31:22Z</time>
      </trkpt>
      <trkpt lat="39.41879" lon="-8.71152">
        <ele>121.74</ele>
        <time>2019-05-15T07:31:27Z</time>
      </trkpt>
      <trkpt lat="39.41892" lon="-8.71164">
        <ele>122.71</ele>
        <time>2019-05-15T07:31:41Z</time>
      </trkpt>
      <trkpt lat="39.41903" lon="-8.71184">
        <ele>122.22</ele>
        <time>2019-05-15T07:31:56Z</time>
      </trkpt>
      <trkpt lat="39.41918" lon="-8.71198">
        <ele>121.74</ele>
        <time>2019-05-15T07:32:11Z</time>
      </trkpt>
      <trkpt lat="39.41933" lon="-8.7121">
        <ele>121.74</ele>
        <time>2019-05-15T07:32:25Z</time>
      </trkpt>
      <trkpt lat="39.41951" lon="-8.71221">
        <ele>122.22</ele>
        <time>2019-05-15T07:32:41Z</time>
      </trkpt>
      <trkpt lat="39.41959" lon="-8.71225">
        <ele>121.74</ele>
        <time>2019-05-15T07:32:48Z</time>
      </trkpt>
      <trkpt lat="39.41966" lon="-8.7123">
        <ele>121.74</ele>
        <time>2019-05-15T07:32:54Z</time>
      </trkpt>
      <trkpt lat="39.41976" lon="-8.71238">
        <ele>121.74</ele>
        <time>2019-05-15T07:33:07Z</time>
      </trkpt>
      <trkpt lat="39.41984" lon="-8.71244">
        <ele>122.22</ele>
        <time>2019-05-15T07:33:14Z</time>
      </trkpt>
      <trkpt lat="39.41997" lon="-8.71255">
        <ele>123.19</ele>
        <time>2019-05-15T07:33:28Z</time>
      </trkpt>
      <trkpt lat="39.42009" lon="-8.71259">
        <ele>124.15</ele>
        <time>2019-05-15T07:33:39Z</time>
      </trkpt>
      <trkpt lat="39.42026" lon="-8.71265">
        <ele>123.67</ele>
        <time>2019-05-15T07:33:53Z</time>
      </trkpt>
      <trkpt lat="39.42045" lon="-8.71272">
        <ele>124.15</ele>
        <time>2019-05-15T07:34:09Z</time>
      </trkpt>
      <trkpt lat="39.42046" lon="-8.71272">
        <ele>124.15</ele>
        <time>2019-05-15T07:34:10Z</time>
      </trkpt>
      <trkpt lat="39.42048" lon="-8.71273">
        <ele>124.15</ele>
        <time>2019-05-15T07:34:12Z</time>
      </trkpt>
      <trkpt lat="39.42062" lon="-8.71278">
        <ele>124.63</ele>
        <time>2019-05-15T07:34:27Z</time>
      </trkpt>
      <trkpt lat="39.42072" lon="-8.7128">
        <ele>124.15</ele>
        <time>2019-05-15T07:34:35Z</time>
      </trkpt>
      <trkpt lat="39.42091" lon="-8.7128">
        <ele>124.63</ele>
        <time>2019-05-15T07:34:50Z</time>
      </trkpt>
      <trkpt lat="39.42108" lon="-8.71282">
        <ele>124.63</ele>
        <time>2019-05-15T07:35:04Z</time>
      </trkpt>
      <trkpt lat="39.42125" lon="-8.71283">
        <ele>123.67</ele>
        <time>2019-05-15T07:35:17Z</time>
      </trkpt>
      <trkpt lat="39.42133" lon="-8.71283">
        <ele>123.19</ele>
        <time>2019-05-15T07:35:28Z</time>
      </trkpt>
      <trkpt lat="39.42148" lon="-8.71282">
        <ele>121.74</ele>
        <time>2019-05-15T07:35:41Z</time>
      </trkpt>
      <trkpt lat="39.42165" lon="-8.71281">
        <ele>120.3</ele>
        <time>2019-05-15T07:35:55Z</time>
      </trkpt>
      <trkpt lat="39.42186" lon="-8.71278">
        <ele>118.86</ele>
        <time>2019-05-15T07:36:12Z</time>
      </trkpt>
      <trkpt lat="39.42197" lon="-8.71276">
        <ele>118.86</ele>
        <time>2019-05-15T07:36:20Z</time>
      </trkpt>
      <trkpt lat="39.42209" lon="-8.71275">
        <ele>118.38</ele>
        <time>2019-05-15T07:36:34Z</time>
      </trkpt>
      <trkpt lat="39.42214" lon="-8.71275">
        <ele>117.9</ele>
        <time>2019-05-15T07:36:39Z</time>
      </trkpt>
      <trkpt lat="39.42216" lon="-8.71275">
        <ele>117.42</ele>
        <time>2019-05-15T07:36:41Z</time>
      </trkpt>
      <trkpt lat="39.42235" lon="-8.71271">
        <ele>116.46</ele>
        <time>2019-05-15T07:36:57Z</time>
      </trkpt>
      <trkpt lat="39.4225" lon="-8.71266">
        <ele>115.98</ele>
        <time>2019-05-15T07:37:09Z</time>
      </trkpt>
      <trkpt lat="39.42254" lon="-8.71262">
        <ele>115.01</ele>
        <time>2019-05-15T07:37:14Z</time>
      </trkpt>
      <trkpt lat="39.42273" lon="-8.71251">
        <ele>114.53</ele>
        <time>2019-05-15T07:37:30Z</time>
      </trkpt>
      <trkpt lat="39.42278" lon="-8.71251">
        <ele>115.01</ele>
        <time>2019-05-15T07:37:34Z</time>
      </trkpt>
      <trkpt lat="39.42298" lon="-8.71256">
        <ele>115.01</ele>
        <time>2019-05-15T07:37:51Z</time>
      </trkpt>
      <trkpt lat="39.42316" lon="-8.71262">
        <ele>115.01</ele>
        <time>2019-05-15T07:38:06Z</time>
      </trkpt>
      <trkpt lat="39.42335" lon="-8.71269">
        <ele>114.53</ele>
        <time>2019-05-15T07:38:21Z</time>
      </trkpt>
      <trkpt lat="39.42349" lon="-8.71274">
        <ele>115.01</ele>
        <time>2019-05-15T07:38:33Z</time>
      </trkpt>
      <trkpt lat="39.42365" lon="-8.71261">
        <ele>115.01</ele>
        <time>2019-05-15T07:38:48Z</time>
      </trkpt>
      <trkpt lat="39.42367" lon="-8.71259">
        <ele>115.5</ele>
        <time>2019-05-15T07:38:50Z</time>
      </trkpt>
      <trkpt lat="39.42373" lon="-8.7125">
        <ele>115.5</ele>
        <time>2019-05-15T07:38:57Z</time>
      </trkpt>
      <trkpt lat="39.42386" lon="-8.71228">
        <ele>115.5</ele>
        <time>2019-05-15T07:39:14Z</time>
      </trkpt>
      <trkpt lat="39.42399" lon="-8.7121">
        <ele>114.53</ele>
        <time>2019-05-15T07:39:29Z</time>
      </trkpt>
      <trkpt lat="39.42401" lon="-8.71206">
        <ele>114.05</ele>
        <time>2019-05-15T07:39:32Z</time>
      </trkpt>
      <trkpt lat="39.42405" lon="-8.71194">
        <ele>114.53</ele>
        <time>2019-05-15T07:39:41Z</time>
      </trkpt>
      <trkpt lat="39.42417" lon="-8.71169">
        <ele>114.05</ele>
        <time>2019-05-15T07:39:59Z</time>
      </trkpt>
      <trkpt lat="39.42425" lon="-8.71148">
        <ele>112.61</ele>
        <time>2019-05-15T07:40:14Z</time>
      </trkpt>
      <trkpt lat="39.4243" lon="-8.71137">
        <ele>112.13</ele>
        <time>2019-05-15T07:40:21Z</time>
      </trkpt>
      <trkpt lat="39.42437" lon="-8.71113">
        <ele>111.65</ele>
        <time>2019-05-15T07:40:36Z</time>
      </trkpt>
      <trkpt lat="39.42438" lon="-8.71107">
        <ele>112.13</ele>
        <time>2019-05-15T07:40:40Z</time>
      </trkpt>
      <trkpt lat="39.42448" lon="-8.71085">
        <ele>112.13</ele>
        <time>2019-05-15T07:40:56Z</time>
      </trkpt>
      <trkpt lat="39.42461" lon="-8.71069">
        <ele>112.61</ele>
        <time>2019-05-15T07:41:10Z</time>
      </trkpt>
      <trkpt lat="39.42472" lon="-8.7105">
        <ele>114.05</ele>
        <time>2019-05-15T07:41:25Z</time>
      </trkpt>
      <trkpt lat="39.42485" lon="-8.71038">
        <ele>114.53</ele>
        <time>2019-05-15T07:41:39Z</time>
      </trkpt>
      <trkpt lat="39.42498" lon="-8.7104">
        <ele>115.5</ele>
        <time>2019-05-15T07:41:52Z</time>
      </trkpt>
      <trkpt lat="39.42515" lon="-8.71049">
        <ele>116.46</ele>
        <time>2019-05-15T07:42:08Z</time>
      </trkpt>
      <trkpt lat="39.42522" lon="-8.71053">
        <ele>116.94</ele>
        <time>2019-05-15T07:42:15Z</time>
      </trkpt>
      <trkpt lat="39.42526" lon="-8.71056">
        <ele>117.42</ele>
        <time>2019-05-15T07:42:19Z</time>
      </trkpt>
      <trkpt lat="39.42531" lon="-8.71061">
        <ele>118.38</ele>
        <time>2019-05-15T07:42:34Z</time>
      </trkpt>
      <trkpt lat="39.42533" lon="-8.71062">
        <ele>117.9</ele>
        <time>2019-05-15T07:42:36Z</time>
      </trkpt>
      <trkpt lat="39.42543" lon="-8.71068">
        <ele>117.9</ele>
        <time>2019-05-15T07:42:46Z</time>
      </trkpt>
      <trkpt lat="39.42547" lon="-8.71071">
        <ele>117.9</ele>
        <time>2019-05-15T07:42:50Z</time>
      </trkpt>
      <trkpt lat="39.42556" lon="-8.71078">
        <ele>118.38</ele>
        <time>2019-05-15T07:42:59Z</time>
      </trkpt>
      <trkpt lat="39.42559" lon="-8.71081">
        <ele>118.38</ele>
        <time>2019-05-15T07:43:02Z</time>
      </trkpt>
      <trkpt lat="39.42571" lon="-8.71095">
        <ele>117.9</ele>
        <time>2019-05-15T07:43:15Z</time>
      </trkpt>
      <trkpt lat="39.42582" lon="-8.71112">
        <ele>119.34</ele>
        <time>2019-05-15T07:43:29Z</time>
      </trkpt>
      <trkpt lat="39.42592" lon="-8.71128">
        <ele>119.34</ele>
        <time>2019-05-15T07:43:42Z</time>
      </trkpt>
      <trkpt lat="39.42604" lon="-8.71145">
        <ele>119.34</ele>
        <time>2019-05-15T07:43:57Z</time>
      </trkpt>
      <trkpt lat="39.42621" lon="-8.71163">
        <ele>119.82</ele>
        <time>2019-05-15T07:44:15Z</time>
      </trkpt>
      <trkpt lat="39.42623" lon="-8.7117">
        <ele>120.3</ele>
        <time>2019-05-15T07:44:31Z</time>
      </trkpt>
      <trkpt lat="39.42634" lon="-8.71177">
        <ele>120.78</ele>
        <time>2019-05-15T07:44:45Z</time>
      </trkpt>
      <trkpt lat="39.42648" lon="-8.71189">
        <ele>120.3</ele>
        <time>2019-05-15T07:44:59Z</time>
      </trkpt>
      <trkpt lat="39.42662" lon="-8.71202">
        <ele>120.3</ele>
        <time>2019-05-15T07:45:13Z</time>
      </trkpt>
      <trkpt lat="39.42677" lon="-8.71218">
        <ele>120.78</ele>
        <time>2019-05-15T07:45:30Z</time>
      </trkpt>
      <trkpt lat="39.42691" lon="-8.71232">
        <ele>121.74</ele>
        <time>2019-05-15T07:45:45Z</time>
      </trkpt>
      <trkpt lat="39.42692" lon="-8.71235">
        <ele>121.26</ele>
        <time>2019-05-15T07:46:07Z</time>
      </trkpt>
      <trkpt lat="39.42695" lon="-8.7123">
        <ele>121.26</ele>
        <time>2019-05-15T07:46:26Z</time>
      </trkpt>
      <trkpt lat="39.427" lon="-8.71236">
        <ele>120.78</ele>
        <time>2019-05-15T07:46:40Z</time>
      </trkpt>
      <trkpt lat="39.42705" lon="-8.71236">
        <ele>121.74</ele>
        <time>2019-05-15T07:47:06Z</time>
      </trkpt>
      <trkpt lat="39.42706" lon="-8.71236">
        <ele>121.74</ele>
        <time>2019-05-15T07:47:28Z</time>
      </trkpt>
      <trkpt lat="39.42699" lon="-8.71235">
        <ele>121.74</ele>
        <time>2019-05-15T07:47:49Z</time>
      </trkpt>
      <trkpt lat="39.42694" lon="-8.71231">
        <ele>122.22</ele>
        <time>2019-05-15T07:48:02Z</time>
      </trkpt>
      <trkpt lat="39.42694" lon="-8.7123">
        <ele>121.74</ele>
        <time>2019-05-15T07:48:17Z</time>
      </trkpt>
      <trkpt lat="39.42694" lon="-8.71231">
        <ele>121.74</ele>
        <time>2019-05-15T07:48:35Z</time>
      </trkpt>
      <trkpt lat="39.42698" lon="-8.71232">
        <ele>121.74</ele>
        <time>2019-05-15T07:49:02Z</time>
      </trkpt>
      <trkpt lat="39.42696" lon="-8.71232">
        <ele>121.74</ele>
        <time>2019-05-15T07:49:23Z</time>
      </trkpt>
      <trkpt lat="39.42694" lon="-8.71233">
        <ele>122.22</ele>
        <time>2019-05-15T07:49:45Z</time>
      </trkpt>
      <trkpt lat="39.42693" lon="-8.71235">
        <ele>121.74</ele>
        <time>2019-05-15T07:50:08Z</time>
      </trkpt>
      <trkpt lat="39.42694" lon="-8.71234">
        <ele>122.22</ele>
        <time>2019-05-15T07:50:34Z</time>
      </trkpt>
      <trkpt lat="39.42693" lon="-8.71234">
        <ele>121.74</ele>
        <time>2019-05-15T07:51:05Z</time>
      </trkpt>
      <trkpt lat="39.42695" lon="-8.71233">
        <ele>122.22</ele>
        <time>2019-05-15T07:51:32Z</time>
      </trkpt>
      <trkpt lat="39.42694" lon="-8.71232">
        <ele>122.22</ele>
        <time>2019-05-15T07:51:50Z</time>
      </trkpt>
      <trkpt lat="39.42692" lon="-8.71231">
        <ele>121.74</ele>
        <time>2019-05-15T07:52:08Z</time>
      </trkpt>
      <trkpt lat="39.42692" lon="-8.71231">
        <ele>121.74</ele>
        <time>2019-05-15T07:52:25Z</time>
      </trkpt>
      <trkpt lat="39.4269" lon="-8.71232">
        <ele>122.22</ele>
        <time>2019-05-15T07:52:49Z</time>
      </trkpt>
      <trkpt lat="39.42691" lon="-8.71231">
        <ele>121.74</ele>
        <time>2019-05-15T07:53:07Z</time>
      </trkpt>
      <trkpt lat="39.42691" lon="-8.71232">
        <ele>121.74</ele>
        <time>2019-05-15T07:53:24Z</time>
      </trkpt>
      <trkpt lat="39.42703" lon="-8.71245">
        <ele>122.22</ele>
        <time>2019-05-15T07:53:38Z</time>
      </trkpt>
      <trkpt lat="39.42715" lon="-8.71257">
        <ele>121.74</ele>
        <time>2019-05-15T07:53:50Z</time>
      </trkpt>
      <trkpt lat="39.42729" lon="-8.71274">
        <ele>121.74</ele>
        <time>2019-05-15T07:54:05Z</time>
      </trkpt>
      <trkpt lat="39.42744" lon="-8.71287">
        <ele>121.74</ele>
        <time>2019-05-15T07:54:20Z</time>
      </trkpt>
      <trkpt lat="39.42761" lon="-8.71304">
        <ele>121.26</ele>
        <time>2019-05-15T07:54:37Z</time>
      </trkpt>
      <trkpt lat="39.42768" lon="-8.71311">
        <ele>121.26</ele>
        <time>2019-05-15T07:54:49Z</time>
      </trkpt>
      <trkpt lat="39.4278" lon="-8.71323">
        <ele>121.26</ele>
        <time>2019-05-15T07:55:02Z</time>
      </trkpt>
      <trkpt lat="39.42793" lon="-8.71337">
        <ele>121.74</ele>
        <time>2019-05-15T07:55:16Z</time>
      </trkpt>
      <trkpt lat="39.42807" lon="-8.7135">
        <ele>121.74</ele>
        <time>2019-05-15T07:55:31Z</time>
      </trkpt>
      <trkpt lat="39.4282" lon="-8.71364">
        <ele>122.22</ele>
        <time>2019-05-15T07:55:46Z</time>
      </trkpt>
      <trkpt lat="39.42831" lon="-8.71375">
        <ele>122.71</ele>
        <time>2019-05-15T07:55:58Z</time>
      </trkpt>
      <trkpt lat="39.42833" lon="-8.71377">
        <ele>122.71</ele>
        <time>2019-05-15T07:56:00Z</time>
      </trkpt>
      <trkpt lat="39.42835" lon="-8.71379">
        <ele>122.71</ele>
        <time>2019-05-15T07:56:02Z</time>
      </trkpt>
      <trkpt lat="39.42841" lon="-8.71391">
        <ele>123.19</ele>
        <time>2019-05-15T07:56:11Z</time>
      </trkpt>
      <trkpt lat="39.42846" lon="-8.71396">
        <ele>122.71</ele>
        <time>2019-05-15T07:56:15Z</time>
      </trkpt>
      <trkpt lat="39.4286" lon="-8.7141">
        <ele>123.19</ele>
        <time>2019-05-15T07:56:30Z</time>
      </trkpt>
      <trkpt lat="39.42879" lon="-8.71417">
        <ele>123.67</ele>
        <time>2019-05-15T07:56:47Z</time>
      </trkpt>
      <trkpt lat="39.42897" lon="-8.71425">
        <ele>124.15</ele>
        <time>2019-05-15T07:57:02Z</time>
      </trkpt>
      <trkpt lat="39.42915" lon="-8.71431">
        <ele>124.63</ele>
        <time>2019-05-15T07:57:17Z</time>
      </trkpt>
      <trkpt lat="39.42936" lon="-8.71441">
        <ele>126.07</ele>
        <time>2019-05-15T07:57:35Z</time>
      </trkpt>
      <trkpt lat="39.42951" lon="-8.71448">
        <ele>126.07</ele>
        <time>2019-05-15T07:57:49Z</time>
      </trkpt>
      <trkpt lat="39.42969" lon="-8.71456">
        <ele>126.07</ele>
        <time>2019-05-15T07:58:04Z</time>
      </trkpt>
      <trkpt lat="39.42987" lon="-8.71463">
        <ele>127.03</ele>
        <time>2019-05-15T07:58:19Z</time>
      </trkpt>
      <trkpt lat="39.4301" lon="-8.71469">
        <ele>127.03</ele>
        <time>2019-05-15T07:58:37Z</time>
      </trkpt>
      <trkpt lat="39.43028" lon="-8.71473">
        <ele>128.47</ele>
        <time>2019-05-15T07:58:53Z</time>
      </trkpt>
      <trkpt lat="39.43041" lon="-8.71476">
        <ele>127.99</ele>
        <time>2019-05-15T07:59:05Z</time>
      </trkpt>
      <trkpt lat="39.43065" lon="-8.71472">
        <ele>128.47</ele>
        <time>2019-05-15T07:59:22Z</time>
      </trkpt>
      <trkpt lat="39.43076" lon="-8.71455">
        <ele>127.51</ele>
        <time>2019-05-15T07:59:37Z</time>
      </trkpt>
      <trkpt lat="39.43082" lon="-8.71441">
        <ele>126.07</ele>
        <time>2019-05-15T07:59:48Z</time>
      </trkpt>
      <trkpt lat="39.43086" lon="-8.71432">
        <ele>125.59</ele>
        <time>2019-05-15T07:59:55Z</time>
      </trkpt>
      <trkpt lat="39.4309" lon="-8.71426">
        <ele>125.11</ele>
        <time>2019-05-15T08:00:00Z</time>
      </trkpt>
      <trkpt lat="39.43098" lon="-8.71407">
        <ele>125.59</ele>
        <time>2019-05-15T08:00:13Z</time>
      </trkpt>
      <trkpt lat="39.43099" lon="-8.71406">
        <ele>125.59</ele>
        <time>2019-05-15T08:00:14Z</time>
      </trkpt>
      <trkpt lat="39.43101" lon="-8.71401">
        <ele>125.11</ele>
        <time>2019-05-15T08:00:18Z</time>
      </trkpt>
      <trkpt lat="39.43105" lon="-8.71384">
        <ele>125.59</ele>
        <time>2019-05-15T08:00:29Z</time>
      </trkpt>
      <trkpt lat="39.43112" lon="-8.71372">
        <ele>125.59</ele>
        <time>2019-05-15T08:00:39Z</time>
      </trkpt>
      <trkpt lat="39.43115" lon="-8.71366">
        <ele>126.07</ele>
        <time>2019-05-15T08:00:43Z</time>
      </trkpt>
      <trkpt lat="39.43119" lon="-8.71363">
        <ele>126.07</ele>
        <time>2019-05-15T08:00:47Z</time>
      </trkpt>
      <trkpt lat="39.43136" lon="-8.71363">
        <ele>127.51</ele>
        <time>2019-05-15T08:01:02Z</time>
      </trkpt>
      <trkpt lat="39.43137" lon="-8.71363">
        <ele>127.51</ele>
        <time>2019-05-15T08:01:07Z</time>
      </trkpt>
      <trkpt lat="39.43145" lon="-8.71377">
        <ele>127.99</ele>
        <time>2019-05-15T08:01:21Z</time>
      </trkpt>
      <trkpt lat="39.43155" lon="-8.71396">
        <ele>127.99</ele>
        <time>2019-05-15T08:01:36Z</time>
      </trkpt>
      <trkpt lat="39.43167" lon="-8.71417">
        <ele>128.47</ele>
        <time>2019-05-15T08:01:52Z</time>
      </trkpt>
      <trkpt lat="39.4318" lon="-8.7144">
        <ele>129.43</ele>
        <time>2019-05-15T08:02:09Z</time>
      </trkpt>
      <trkpt lat="39.4319" lon="-8.71459">
        <ele>130.4</ele>
        <time>2019-05-15T08:02:24Z</time>
      </trkpt>
      <trkpt lat="39.432" lon="-8.71479">
        <ele>130.4</ele>
        <time>2019-05-15T08:02:39Z</time>
      </trkpt>
      <trkpt lat="39.4321" lon="-8.71501">
        <ele>130.88</ele>
        <time>2019-05-15T08:02:56Z</time>
      </trkpt>
      <trkpt lat="39.43222" lon="-8.71523">
        <ele>131.84</ele>
        <time>2019-05-15T08:03:13Z</time>
      </trkpt>
      <trkpt lat="39.43236" lon="-8.71543">
        <ele>133.76</ele>
        <time>2019-05-15T08:03:30Z</time>
      </trkpt>
      <trkpt lat="39.43251" lon="-8.71557">
        <ele>134.24</ele>
        <time>2019-05-15T08:03:46Z</time>
      </trkpt>
      <trkpt lat="39.43254" lon="-8.71559">
        <ele>134.24</ele>
        <time>2019-05-15T08:04:13Z</time>
      </trkpt>
      <trkpt lat="39.4327" lon="-8.71572">
        <ele>134.72</ele>
        <time>2019-05-15T08:04:28Z</time>
      </trkpt>
      <trkpt lat="39.4329" lon="-8.71587">
        <ele>135.2</ele>
        <time>2019-05-15T08:04:46Z</time>
      </trkpt>
      <trkpt lat="39.43311" lon="-8.71604">
        <ele>135.68</ele>
        <time>2019-05-15T08:05:06Z</time>
      </trkpt>
      <trkpt lat="39.43327" lon="-8.71618">
        <ele>137.13</ele>
        <time>2019-05-15T08:05:22Z</time>
      </trkpt>
      <trkpt lat="39.43343" lon="-8.71631">
        <ele>138.09</ele>
        <time>2019-05-15T08:05:38Z</time>
      </trkpt>
      <trkpt lat="39.43362" lon="-8.71647">
        <ele>139.53</ele>
        <time>2019-05-15T08:05:57Z</time>
      </trkpt>
      <trkpt lat="39.43376" lon="-8.71659">
        <ele>140.01</ele>
        <time>2019-05-15T08:06:12Z</time>
      </trkpt>
      <trkpt lat="39.43391" lon="-8.71671">
        <ele>140.49</ele>
        <time>2019-05-15T08:06:27Z</time>
      </trkpt>
      <trkpt lat="39.4341" lon="-8.71686">
        <ele>141.45</ele>
        <time>2019-05-15T08:06:45Z</time>
      </trkpt>
      <trkpt lat="39.43427" lon="-8.717">
        <ele>140.49</ele>
        <time>2019-05-15T08:07:02Z</time>
      </trkpt>
      <trkpt lat="39.43438" lon="-8.71721">
        <ele>140.97</ele>
        <time>2019-05-15T08:07:18Z</time>
      </trkpt>
      <trkpt lat="39.43442" lon="-8.71745">
        <ele>140.97</ele>
        <time>2019-05-15T08:07:33Z</time>
      </trkpt>
      <trkpt lat="39.43444" lon="-8.71749">
        <ele>141.45</ele>
        <time>2019-05-15T08:07:36Z</time>
      </trkpt>
      <trkpt lat="39.4345" lon="-8.71775">
        <ele>142.89</ele>
        <time>2019-05-15T08:07:54Z</time>
      </trkpt>
      <trkpt lat="39.43456" lon="-8.71796">
        <ele>143.37</ele>
        <time>2019-05-15T08:08:08Z</time>
      </trkpt>
      <trkpt lat="39.4346" lon="-8.71807">
        <ele>143.85</ele>
        <time>2019-05-15T08:08:22Z</time>
      </trkpt>
      <trkpt lat="39.43465" lon="-8.71826">
        <ele>144.34</ele>
        <time>2019-05-15T08:08:35Z</time>
      </trkpt>
      <trkpt lat="39.43469" lon="-8.71849">
        <ele>144.34</ele>
        <time>2019-05-15T08:08:50Z</time>
      </trkpt>
      <trkpt lat="39.43475" lon="-8.71867">
        <ele>145.3</ele>
        <time>2019-05-15T08:09:03Z</time>
      </trkpt>
      <trkpt lat="39.43482" lon="-8.71894">
        <ele>145.78</ele>
        <time>2019-05-15T08:09:21Z</time>
      </trkpt>
      <trkpt lat="39.43488" lon="-8.7192">
        <ele>146.26</ele>
        <time>2019-05-15T08:09:38Z</time>
      </trkpt>
      <trkpt lat="39.43495" lon="-8.71943">
        <ele>146.74</ele>
        <time>2019-05-15T08:09:53Z</time>
      </trkpt>
      <trkpt lat="39.43511" lon="-8.71964">
        <ele>144.82</ele>
        <time>2019-05-15T08:10:11Z</time>
      </trkpt>
      <trkpt lat="39.4353" lon="-8.71967">
        <ele>143.85</ele>
        <time>2019-05-15T08:10:25Z</time>
      </trkpt>
      <trkpt lat="39.43548" lon="-8.71966">
        <ele>142.89</ele>
        <time>2019-05-15T08:10:38Z</time>
      </trkpt>
      <trkpt lat="39.43558" lon="-8.71963">
        <ele>141.93</ele>
        <time>2019-05-15T08:10:50Z</time>
      </trkpt>
      <trkpt lat="39.43571" lon="-8.71963">
        <ele>140.97</ele>
        <time>2019-05-15T08:11:02Z</time>
      </trkpt>
      <trkpt lat="39.43589" lon="-8.71963">
        <ele>140.01</ele>
        <time>2019-05-15T08:11:18Z</time>
      </trkpt>
      <trkpt lat="39.43601" lon="-8.71968">
        <ele>139.53</ele>
        <time>2019-05-15T08:11:32Z</time>
      </trkpt>
      <trkpt lat="39.43613" lon="-8.71965">
        <ele>139.05</ele>
        <time>2019-05-15T08:11:43Z</time>
      </trkpt>
      <trkpt lat="39.43629" lon="-8.71961">
        <ele>137.13</ele>
        <time>2019-05-15T08:11:58Z</time>
      </trkpt>
      <trkpt lat="39.43632" lon="-8.7196">
        <ele>136.64</ele>
        <time>2019-05-15T08:12:00Z</time>
      </trkpt>
      <trkpt lat="39.4364" lon="-8.71958">
        <ele>136.16</ele>
        <time>2019-05-15T08:12:06Z</time>
      </trkpt>
      <trkpt lat="39.43656" lon="-8.71957">
        <ele>134.72</ele>
        <time>2019-05-15T08:12:22Z</time>
      </trkpt>
      <trkpt lat="39.43679" lon="-8.7196">
        <ele>133.28</ele>
        <time>2019-05-15T08:12:40Z</time>
      </trkpt>
      <trkpt lat="39.43702" lon="-8.71977">
        <ele>131.84</ele>
        <time>2019-05-15T08:12:58Z</time>
      </trkpt>
      <trkpt lat="39.43718" lon="-8.71996">
        <ele>129.92</ele>
        <time>2019-05-15T08:13:15Z</time>
      </trkpt>
      <trkpt lat="39.43733" lon="-8.72021">
        <ele>128.47</ele>
        <time>2019-05-15T08:13:34Z</time>
      </trkpt>
      <trkpt lat="39.43746" lon="-8.7204">
        <ele>128.47</ele>
        <time>2019-05-15T08:13:49Z</time>
      </trkpt>
      <trkpt lat="39.43759" lon="-8.72052">
        <ele>127.51</ele>
        <time>2019-05-15T08:14:03Z</time>
      </trkpt>
      <trkpt lat="39.43778" lon="-8.72052">
        <ele>127.03</ele>
        <time>2019-05-15T08:14:17Z</time>
      </trkpt>
      <trkpt lat="39.43781" lon="-8.72048">
        <ele>127.03</ele>
        <time>2019-05-15T08:14:31Z</time>
      </trkpt>
      <trkpt lat="39.43792" lon="-8.72035">
        <ele>126.07</ele>
        <time>2019-05-15T08:14:44Z</time>
      </trkpt>
      <trkpt lat="39.43792" lon="-8.72034">
        <ele>126.07</ele>
        <time>2019-05-15T08:14:45Z</time>
      </trkpt>
      <trkpt lat="39.43794" lon="-8.7203">
        <ele>126.07</ele>
        <time>2019-05-15T08:14:48Z</time>
      </trkpt>
      <trkpt lat="39.43796" lon="-8.72017">
        <ele>125.59</ele>
        <time>2019-05-15T08:14:56Z</time>
      </trkpt>
      <trkpt lat="39.43798" lon="-8.72013">
        <ele>124.63</ele>
        <time>2019-05-15T08:14:59Z</time>
      </trkpt>
      <trkpt lat="39.438" lon="-8.72005">
        <ele>125.11</ele>
        <time>2019-05-15T08:15:05Z</time>
      </trkpt>
      <trkpt lat="39.43804" lon="-8.71979">
        <ele>123.67</ele>
        <time>2019-05-15T08:15:21Z</time>
      </trkpt>
      <trkpt lat="39.43809" lon="-8.71958">
        <ele>122.71</ele>
        <time>2019-05-15T08:15:35Z</time>
      </trkpt>
      <trkpt lat="39.43812" lon="-8.71938">
        <ele>121.74</ele>
        <time>2019-05-15T08:15:48Z</time>
      </trkpt>
      <trkpt lat="39.43814" lon="-8.7193">
        <ele>121.26</ele>
        <time>2019-05-15T08:15:53Z</time>
      </trkpt>
      <trkpt lat="39.43816" lon="-8.71919">
        <ele>121.26</ele>
        <time>2019-05-15T08:16:01Z</time>
      </trkpt>
      <trkpt lat="39.4382" lon="-8.7191">
        <ele>120.78</ele>
        <time>2019-05-15T08:16:07Z</time>
      </trkpt>
      <trkpt lat="39.43825" lon="-8.71904">
        <ele>120.3</ele>
        <time>2019-05-15T08:16:13Z</time>
      </trkpt>
      <trkpt lat="39.43838" lon="-8.71898">
        <ele>119.34</ele>
        <time>2019-05-15T08:16:26Z</time>
      </trkpt>
      <trkpt lat="39.43852" lon="-8.71895">
        <ele>118.38</ele>
        <time>2019-05-15T08:16:40Z</time>
      </trkpt>
      <trkpt lat="39.43857" lon="-8.71889">
        <ele>118.38</ele>
        <time>2019-05-15T08:16:53Z</time>
      </trkpt>
      <trkpt lat="39.43867" lon="-8.71884">
        <ele>118.38</ele>
        <time>2019-05-15T08:17:16Z</time>
      </trkpt>
      <trkpt lat="39.43887" lon="-8.71885">
        <ele>115.98</ele>
        <time>2019-05-15T08:17:31Z</time>
      </trkpt>
      <trkpt lat="39.43908" lon="-8.71888">
        <ele>116.46</ele>
        <time>2019-05-15T08:17:48Z</time>
      </trkpt>
      <trkpt lat="39.43913" lon="-8.71887">
        <ele>116.46</ele>
        <time>2019-05-15T08:17:52Z</time>
      </trkpt>
      <trkpt lat="39.43937" lon="-8.7189">
        <ele>114.05</ele>
        <time>2019-05-15T08:18:10Z</time>
      </trkpt>
      <trkpt lat="39.43956" lon="-8.71891">
        <ele>113.57</ele>
        <time>2019-05-15T08:18:24Z</time>
      </trkpt>
      <trkpt lat="39.43977" lon="-8.71895">
        <ele>112.13</ele>
        <time>2019-05-15T08:18:40Z</time>
      </trkpt>
      <trkpt lat="39.43994" lon="-8.71896">
        <ele>111.65</ele>
        <time>2019-05-15T08:18:54Z</time>
      </trkpt>
      <trkpt lat="39.44011" lon="-8.71899">
        <ele>111.65</ele>
        <time>2019-05-15T08:19:07Z</time>
      </trkpt>
      <trkpt lat="39.44024" lon="-8.719">
        <ele>111.65</ele>
        <time>2019-05-15T08:19:18Z</time>
      </trkpt>
      <trkpt lat="39.44031" lon="-8.719">
        <ele>110.69</ele>
        <time>2019-05-15T08:19:24Z</time>
      </trkpt>
      <trkpt lat="39.44051" lon="-8.71902">
        <ele>110.21</ele>
        <time>2019-05-15T08:19:40Z</time>
      </trkpt>
      <trkpt lat="39.44073" lon="-8.71904">
        <ele>110.69</ele>
        <time>2019-05-15T08:19:58Z</time>
      </trkpt>
      <trkpt lat="39.44095" lon="-8.71908">
        <ele>109.25</ele>
        <time>2019-05-15T08:20:14Z</time>
      </trkpt>
      <trkpt lat="39.44112" lon="-8.71915">
        <ele>109.25</ele>
        <time>2019-05-15T08:20:28Z</time>
      </trkpt>
      <trkpt lat="39.44128" lon="-8.7193">
        <ele>109.25</ele>
        <time>2019-05-15T08:20:44Z</time>
      </trkpt>
      <trkpt lat="39.4414" lon="-8.7195">
        <ele>108.29</ele>
        <time>2019-05-15T08:21:00Z</time>
      </trkpt>
      <trkpt lat="39.44153" lon="-8.71969">
        <ele>108.77</ele>
        <time>2019-05-15T08:21:15Z</time>
      </trkpt>
      <trkpt lat="39.44166" lon="-8.71989">
        <ele>108.77</ele>
        <time>2019-05-15T08:21:31Z</time>
      </trkpt>
      <trkpt lat="39.44176" lon="-8.72006">
        <ele>108.29</ele>
        <time>2019-05-15T08:21:45Z</time>
      </trkpt>
      <trkpt lat="39.4419" lon="-8.72027">
        <ele>108.77</ele>
        <time>2019-05-15T08:22:03Z</time>
      </trkpt>
      <trkpt lat="39.44203" lon="-8.72046">
        <ele>107.81</ele>
        <time>2019-05-15T08:22:19Z</time>
      </trkpt>
      <trkpt lat="39.44205" lon="-8.72049">
        <ele>106.84</ele>
        <time>2019-05-15T08:22:22Z</time>
      </trkpt>
      <trkpt lat="39.44207" lon="-8.72051">
        <ele>106.84</ele>
        <time>2019-05-15T08:22:24Z</time>
      </trkpt>
      <trkpt lat="39.4422" lon="-8.72065">
        <ele>109.73</ele>
        <time>2019-05-15T08:22:39Z</time>
      </trkpt>
      <trkpt lat="39.44221" lon="-8.72065">
        <ele>108.77</ele>
        <time>2019-05-15T08:22:41Z</time>
      </trkpt>
      <trkpt lat="39.44227" lon="-8.72072">
        <ele>108.77</ele>
        <time>2019-05-15T08:22:48Z</time>
      </trkpt>
      <trkpt lat="39.44244" lon="-8.72089">
        <ele>108.77</ele>
        <time>2019-05-15T08:23:05Z</time>
      </trkpt>
      <trkpt lat="39.44259" lon="-8.72104">
        <ele>107.81</ele>
        <time>2019-05-15T08:23:21Z</time>
      </trkpt>
      <trkpt lat="39.44277" lon="-8.72121">
        <ele>107.81</ele>
        <time>2019-05-15T08:23:39Z</time>
      </trkpt>
      <trkpt lat="39.44292" lon="-8.72137">
        <ele>107.81</ele>
        <time>2019-05-15T08:23:55Z</time>
      </trkpt>
      <trkpt lat="39.44307" lon="-8.7215">
        <ele>108.29</ele>
        <time>2019-05-15T08:24:10Z</time>
      </trkpt>
      <trkpt lat="39.44323" lon="-8.72166">
        <ele>109.25</ele>
        <time>2019-05-15T08:24:27Z</time>
      </trkpt>
      <trkpt lat="39.44325" lon="-8.72168">
        <ele>110.69</ele>
        <time>2019-05-15T08:24:32Z</time>
      </trkpt>
      <trkpt lat="39.44327" lon="-8.72167">
        <ele>110.21</ele>
        <time>2019-05-15T08:24:34Z</time>
      </trkpt>
      <trkpt lat="39.44343" lon="-8.72162">
        <ele>110.21</ele>
        <time>2019-05-15T08:24:48Z</time>
      </trkpt>
      <trkpt lat="39.44345" lon="-8.7216">
        <ele>110.69</ele>
        <time>2019-05-15T08:24:50Z</time>
      </trkpt>
      <trkpt lat="39.44348" lon="-8.72133">
        <ele>112.13</ele>
        <time>2019-05-15T08:25:09Z</time>
      </trkpt>
      <trkpt lat="39.44343" lon="-8.72107">
        <ele>111.65</ele>
        <time>2019-05-15T08:25:26Z</time>
      </trkpt>
      <trkpt lat="39.44338" lon="-8.72088">
        <ele>110.69</ele>
        <time>2019-05-15T08:25:39Z</time>
      </trkpt>
      <trkpt lat="39.44333" lon="-8.72065">
        <ele>110.69</ele>
        <time>2019-05-15T08:25:54Z</time>
      </trkpt>
      <trkpt lat="39.44331" lon="-8.7205">
        <ele>110.21</ele>
        <time>2019-05-15T08:26:05Z</time>
      </trkpt>
      <trkpt lat="39.44328" lon="-8.72029">
        <ele>110.21</ele>
        <time>2019-05-15T08:26:18Z</time>
      </trkpt>
      <trkpt lat="39.4433" lon="-8.72004">
        <ele>109.73</ele>
        <time>2019-05-15T08:26:33Z</time>
      </trkpt>
      <trkpt lat="39.44334" lon="-8.71994">
        <ele>110.21</ele>
        <time>2019-05-15T08:26:40Z</time>
      </trkpt>
      <trkpt lat="39.4434" lon="-8.71971">
        <ele>110.69</ele>
        <time>2019-05-15T08:26:56Z</time>
      </trkpt>
      <trkpt lat="39.44342" lon="-8.71959">
        <ele>110.21</ele>
        <time>2019-05-15T08:27:04Z</time>
      </trkpt>
      <trkpt lat="39.44343" lon="-8.71931">
        <ele>109.25</ele>
        <time>2019-05-15T08:27:21Z</time>
      </trkpt>
      <trkpt lat="39.44341" lon="-8.71908">
        <ele>108.29</ele>
        <time>2019-05-15T08:27:34Z</time>
      </trkpt>
      <trkpt lat="39.44338" lon="-8.71882">
        <ele>107.32</ele>
        <time>2019-05-15T08:27:52Z</time>
      </trkpt>
      <trkpt lat="39.44341" lon="-8.71858">
        <ele>105.88</ele>
        <time>2019-05-15T08:28:07Z</time>
      </trkpt>
      <trkpt lat="39.44344" lon="-8.71851">
        <ele>104.92</ele>
        <time>2019-05-15T08:28:12Z</time>
      </trkpt>
      <trkpt lat="39.44348" lon="-8.71845">
        <ele>104.44</ele>
        <time>2019-05-15T08:28:16Z</time>
      </trkpt>
      <trkpt lat="39.44358" lon="-8.71832">
        <ele>104.44</ele>
        <time>2019-05-15T08:28:27Z</time>
      </trkpt>
      <trkpt lat="39.4437" lon="-8.71824">
        <ele>102.52</ele>
        <time>2019-05-15T08:28:39Z</time>
      </trkpt>
      <trkpt lat="39.44373" lon="-8.71823">
        <ele>102.04</ele>
        <time>2019-05-15T08:28:41Z</time>
      </trkpt>
      <trkpt lat="39.44377" lon="-8.71819">
        <ele>101.56</ele>
        <time>2019-05-15T08:28:45Z</time>
      </trkpt>
      <trkpt lat="39.44391" lon="-8.71812">
        <ele>100.11</ele>
        <time>2019-05-15T08:28:56Z</time>
      </trkpt>
      <trkpt lat="39.44406" lon="-8.71803">
        <ele>97.71</ele>
        <time>2019-05-15T08:29:10Z</time>
      </trkpt>
      <trkpt lat="39.44408" lon="-8.71802">
        <ele>97.23</ele>
        <time>2019-05-15T08:29:12Z</time>
      </trkpt>
      <trkpt lat="39.44413" lon="-8.71799">
        <ele>96.27</ele>
        <time>2019-05-15T08:29:17Z</time>
      </trkpt>
      <trkpt lat="39.44422" lon="-8.71797">
        <ele>94.83</ele>
        <time>2019-05-15T08:29:23Z</time>
      </trkpt>
      <trkpt lat="39.4444" lon="-8.71797">
        <ele>93.39</ele>
        <time>2019-05-15T08:29:37Z</time>
      </trkpt>
      <trkpt lat="39.44455" lon="-8.71803">
        <ele>92.42</ele>
        <time>2019-05-15T08:29:51Z</time>
      </trkpt>
      <trkpt lat="39.44472" lon="-8.71807">
        <ele>90.98</ele>
        <time>2019-05-15T08:30:04Z</time>
      </trkpt>
      <trkpt lat="39.44475" lon="-8.7181">
        <ele>90.5</ele>
        <time>2019-05-15T08:30:07Z</time>
      </trkpt>
      <trkpt lat="39.445" lon="-8.71813">
        <ele>89.06</ele>
        <time>2019-05-15T08:30:27Z</time>
      </trkpt>
      <trkpt lat="39.44507" lon="-8.71814">
        <ele>88.58</ele>
        <time>2019-05-15T08:30:33Z</time>
      </trkpt>
      <trkpt lat="39.44521" lon="-8.71811">
        <ele>86.18</ele>
        <time>2019-05-15T08:30:45Z</time>
      </trkpt>
      <trkpt lat="39.44539" lon="-8.71804">
        <ele>83.77</ele>
        <time>2019-05-15T08:30:59Z</time>
      </trkpt>
      <trkpt lat="39.44542" lon="-8.71802">
        <ele>83.77</ele>
        <time>2019-05-15T08:31:02Z</time>
      </trkpt>
      <trkpt lat="39.44554" lon="-8.71791">
        <ele>81.85</ele>
        <time>2019-05-15T08:31:14Z</time>
      </trkpt>
      <trkpt lat="39.44555" lon="-8.71786">
        <ele>81.85</ele>
        <time>2019-05-15T08:31:26Z</time>
      </trkpt>
      <trkpt lat="39.44563" lon="-8.71778">
        <ele>80.41</ele>
        <time>2019-05-15T08:31:40Z</time>
      </trkpt>
      <trkpt lat="39.44578" lon="-8.71773">
        <ele>78.97</ele>
        <time>2019-05-15T08:31:52Z</time>
      </trkpt>
      <trkpt lat="39.44586" lon="-8.71771">
        <ele>79.45</ele>
        <time>2019-05-15T08:31:59Z</time>
      </trkpt>
      <trkpt lat="39.4459" lon="-8.71777">
        <ele>79.45</ele>
        <time>2019-05-15T08:32:16Z</time>
      </trkpt>
      <trkpt lat="39.44596" lon="-8.71775">
        <ele>78.48</ele>
        <time>2019-05-15T08:32:36Z</time>
      </trkpt>
      <trkpt lat="39.44597" lon="-8.71776">
        <ele>79.45</ele>
        <time>2019-05-15T08:32:52Z</time>
      </trkpt>
      <trkpt lat="39.44602" lon="-8.71778">
        <ele>79.45</ele>
        <time>2019-05-15T08:33:08Z</time>
      </trkpt>
      <trkpt lat="39.44625" lon="-8.71778">
        <ele>79.93</ele>
        <time>2019-05-15T08:33:26Z</time>
      </trkpt>
      <trkpt lat="39.44642" lon="-8.71775">
        <ele>79.93</ele>
        <time>2019-05-15T08:33:40Z</time>
      </trkpt>
      <trkpt lat="39.4466" lon="-8.71763">
        <ele>81.85</ele>
        <time>2019-05-15T08:33:57Z</time>
      </trkpt>
      <trkpt lat="39.44661" lon="-8.71763">
        <ele>81.85</ele>
        <time>2019-05-15T08:33:58Z</time>
      </trkpt>
      <trkpt lat="39.44663" lon="-8.71761">
        <ele>81.85</ele>
        <time>2019-05-15T08:34:00Z</time>
      </trkpt>
      <trkpt lat="39.44666" lon="-8.71756">
        <ele>81.85</ele>
        <time>2019-05-15T08:34:04Z</time>
      </trkpt>
      <trkpt lat="39.44673" lon="-8.71739">
        <ele>82.33</ele>
        <time>2019-05-15T08:34:18Z</time>
      </trkpt>
      <trkpt lat="39.44676" lon="-8.71736">
        <ele>83.29</ele>
        <time>2019-05-15T08:34:22Z</time>
      </trkpt>
      <trkpt lat="39.4468" lon="-8.71726">
        <ele>83.77</ele>
        <time>2019-05-15T08:34:29Z</time>
      </trkpt>
      <trkpt lat="39.4468" lon="-8.71722">
        <ele>84.73</ele>
        <time>2019-05-15T08:34:32Z</time>
      </trkpt>
      <trkpt lat="39.44681" lon="-8.71717">
        <ele>84.73</ele>
        <time>2019-05-15T08:34:35Z</time>
      </trkpt>
      <trkpt lat="39.44693" lon="-8.71697">
        <ele>86.18</ele>
        <time>2019-05-15T08:34:52Z</time>
      </trkpt>
      <trkpt lat="39.44696" lon="-8.71693">
        <ele>85.69</ele>
        <time>2019-05-15T08:34:56Z</time>
      </trkpt>
      <trkpt lat="39.44704" lon="-8.71668">
        <ele>86.18</ele>
        <time>2019-05-15T08:35:14Z</time>
      </trkpt>
      <trkpt lat="39.44705" lon="-8.71663">
        <ele>87.62</ele>
        <time>2019-05-15T08:35:17Z</time>
      </trkpt>
      <trkpt lat="39.44714" lon="-8.71644">
        <ele>89.06</ele>
        <time>2019-05-15T08:35:33Z</time>
      </trkpt>
      <trkpt lat="39.44724" lon="-8.71629">
        <ele>89.54</ele>
        <time>2019-05-15T08:35:47Z</time>
      </trkpt>
      <trkpt lat="39.44731" lon="-8.71612">
        <ele>90.98</ele>
        <time>2019-05-15T08:36:01Z</time>
      </trkpt>
      <trkpt lat="39.44738" lon="-8.71598">
        <ele>91.46</ele>
        <time>2019-05-15T08:36:14Z</time>
      </trkpt>
      <trkpt lat="39.44746" lon="-8.71579">
        <ele>92.9</ele>
        <time>2019-05-15T08:36:28Z</time>
      </trkpt>
      <trkpt lat="39.44758" lon="-8.7156">
        <ele>93.87</ele>
        <time>2019-05-15T08:36:44Z</time>
      </trkpt>
      <trkpt lat="39.44764" lon="-8.71547">
        <ele>95.79</ele>
        <time>2019-05-15T08:36:55Z</time>
      </trkpt>
      <trkpt lat="39.44772" lon="-8.71523">
        <ele>96.27</ele>
        <time>2019-05-15T08:37:13Z</time>
      </trkpt>
      <trkpt lat="39.44778" lon="-8.71505">
        <ele>98.19</ele>
        <time>2019-05-15T08:37:26Z</time>
      </trkpt>
      <trkpt lat="39.44779" lon="-8.71501">
        <ele>98.19</ele>
        <time>2019-05-15T08:37:29Z</time>
      </trkpt>
      <trkpt lat="39.44786" lon="-8.71483">
        <ele>99.63</ele>
        <time>2019-05-15T08:37:44Z</time>
      </trkpt>
      <trkpt lat="39.44787" lon="-8.71481">
        <ele>100.11</ele>
        <time>2019-05-15T08:37:45Z</time>
      </trkpt>
      <trkpt lat="39.44793" lon="-8.71469">
        <ele>101.56</ele>
        <time>2019-05-15T08:38:02Z</time>
      </trkpt>
      <trkpt lat="39.44791" lon="-8.71466">
        <ele>102.04</ele>
        <time>2019-05-15T08:38:19Z</time>
      </trkpt>
      <trkpt lat="39.4479" lon="-8.71467">
        <ele>101.56</ele>
        <time>2019-05-15T08:38:38Z</time>
      </trkpt>
      <trkpt lat="39.44789" lon="-8.71468">
        <ele>101.08</ele>
        <time>2019-05-15T08:39:00Z</time>
      </trkpt>
      <trkpt lat="39.44794" lon="-8.71472">
        <ele>101.56</ele>
        <time>2019-05-15T08:39:34Z</time>
      </trkpt>
      <trkpt lat="39.44796" lon="-8.7147">
        <ele>101.56</ele>
        <time>2019-05-15T08:39:53Z</time>
      </trkpt>
      <trkpt lat="39.44792" lon="-8.71468">
        <ele>101.56</ele>
        <time>2019-05-15T08:40:17Z</time>
      </trkpt>
      <trkpt lat="39.44793" lon="-8.71469">
        <ele>101.56</ele>
        <time>2019-05-15T08:40:44Z</time>
      </trkpt>
      <trkpt lat="39.44795" lon="-8.7147">
        <ele>102.04</ele>
        <time>2019-05-15T08:40:59Z</time>
      </trkpt>
      <trkpt lat="39.44799" lon="-8.71455">
        <ele>100.11</ele>
        <time>2019-05-15T08:41:12Z</time>
      </trkpt>
      <trkpt lat="39.44807" lon="-8.71435">
        <ele>98.19</ele>
        <time>2019-05-15T08:41:26Z</time>
      </trkpt>
      <trkpt lat="39.44808" lon="-8.71433">
        <ele>98.19</ele>
        <time>2019-05-15T08:41:27Z</time>
      </trkpt>
      <trkpt lat="39.4481" lon="-8.71411">
        <ele>97.23</ele>
        <time>2019-05-15T08:41:39Z</time>
      </trkpt>
      <trkpt lat="39.44806" lon="-8.71389">
        <ele>95.31</ele>
        <time>2019-05-15T08:41:52Z</time>
      </trkpt>
      <trkpt lat="39.44808" lon="-8.71381">
        <ele>94.83</ele>
        <time>2019-05-15T08:41:57Z</time>
      </trkpt>
      <trkpt lat="39.44814" lon="-8.71378">
        <ele>94.35</ele>
        <time>2019-05-15T08:42:02Z</time>
      </trkpt>
      <trkpt lat="39.44831" lon="-8.71376">
        <ele>93.87</ele>
        <time>2019-05-15T08:42:18Z</time>
      </trkpt>
      <trkpt lat="39.44837" lon="-8.71381">
        <ele>94.83</ele>
        <time>2019-05-15T08:42:34Z</time>
      </trkpt>
      <trkpt lat="39.44844" lon="-8.71396">
        <ele>95.31</ele>
        <time>2019-05-15T08:42:50Z</time>
      </trkpt>
      <trkpt lat="39.4485" lon="-8.71415">
        <ele>95.31</ele>
        <time>2019-05-15T08:43:05Z</time>
      </trkpt>
      <trkpt lat="39.44853" lon="-8.71425">
        <ele>96.75</ele>
        <time>2019-05-15T08:43:20Z</time>
      </trkpt>
      <trkpt lat="39.44855" lon="-8.71435">
        <ele>96.27</ele>
        <time>2019-05-15T08:43:39Z</time>
      </trkpt>
      <trkpt lat="39.44861" lon="-8.71458">
        <ele>97.23</ele>
        <time>2019-05-15T08:43:55Z</time>
      </trkpt>
      <trkpt lat="39.44866" lon="-8.71478">
        <ele>96.75</ele>
        <time>2019-05-15T08:44:08Z</time>
      </trkpt>
      <trkpt lat="39.44869" lon="-8.71486">
        <ele>97.71</ele>
        <time>2019-05-15T08:44:24Z</time>
      </trkpt>
      <trkpt lat="39.44868" lon="-8.71488">
        <ele>97.71</ele>
        <time>2019-05-15T08:44:44Z</time>
      </trkpt>
      <trkpt lat="39.44869" lon="-8.7149">
        <ele>96.75</ele>
        <time>2019-05-15T08:44:48Z</time>
      </trkpt>
      <trkpt lat="39.4488" lon="-8.7151">
        <ele>96.75</ele>
        <time>2019-05-15T08:45:04Z</time>
      </trkpt>
      <trkpt lat="39.44882" lon="-8.71514">
        <ele>96.75</ele>
        <time>2019-05-15T08:45:07Z</time>
      </trkpt>
      <trkpt lat="39.44889" lon="-8.71537">
        <ele>96.75</ele>
        <time>2019-05-15T08:45:23Z</time>
      </trkpt>
      <trkpt lat="39.44897" lon="-8.71559">
        <ele>97.71</ele>
        <time>2019-05-15T08:45:39Z</time>
      </trkpt>
      <trkpt lat="39.44899" lon="-8.71561">
        <ele>97.71</ele>
        <time>2019-05-15T08:45:41Z</time>
      </trkpt>
      <trkpt lat="39.44907" lon="-8.71569">
        <ele>98.67</ele>
        <time>2019-05-15T08:45:50Z</time>
      </trkpt>
      <trkpt lat="39.44911" lon="-8.71571">
        <ele>99.15</ele>
        <time>2019-05-15T08:45:54Z</time>
      </trkpt>
      <trkpt lat="39.44931" lon="-8.71585">
        <ele>102.04</ele>
        <time>2019-05-15T08:46:16Z</time>
      </trkpt>
      <trkpt lat="39.4494" lon="-8.71596">
        <ele>102.04</ele>
        <time>2019-05-15T08:46:28Z</time>
      </trkpt>
      <trkpt lat="39.44954" lon="-8.71605">
        <ele>102.52</ele>
        <time>2019-05-15T08:46:41Z</time>
      </trkpt>
      <trkpt lat="39.4497" lon="-8.71616">
        <ele>102.52</ele>
        <time>2019-05-15T08:46:56Z</time>
      </trkpt>
      <trkpt lat="39.44985" lon="-8.71625">
        <ele>103</ele>
        <time>2019-05-15T08:47:09Z</time>
      </trkpt>
      <trkpt lat="39.4499" lon="-8.71628">
        <ele>103</ele>
        <time>2019-05-15T08:47:14Z</time>
      </trkpt>
      <trkpt lat="39.44996" lon="-8.71633">
        <ele>103</ele>
        <time>2019-05-15T08:47:20Z</time>
      </trkpt>
      <trkpt lat="39.45002" lon="-8.71637">
        <ele>102.52</ele>
        <time>2019-05-15T08:47:25Z</time>
      </trkpt>
      <trkpt lat="39.45007" lon="-8.71665">
        <ele>100.6</ele>
        <time>2019-05-15T08:47:41Z</time>
      </trkpt>
      <trkpt lat="39.45008" lon="-8.71671">
        <ele>100.6</ele>
        <time>2019-05-15T08:47:45Z</time>
      </trkpt>
      <trkpt lat="39.45009" lon="-8.71694">
        <ele>100.11</ele>
        <time>2019-05-15T08:47:59Z</time>
      </trkpt>
      <trkpt lat="39.45011" lon="-8.71704">
        <ele>99.63</ele>
        <time>2019-05-15T08:48:05Z</time>
      </trkpt>
      <trkpt lat="39.45014" lon="-8.71714">
        <ele>99.63</ele>
        <time>2019-05-15T08:48:12Z</time>
      </trkpt>
      <trkpt lat="39.45024" lon="-8.71733">
        <ele>98.67</ele>
        <time>2019-05-15T08:48:26Z</time>
      </trkpt>
      <trkpt lat="39.45037" lon="-8.71749">
        <ele>98.67</ele>
        <time>2019-05-15T08:48:40Z</time>
      </trkpt>
      <trkpt lat="39.45041" lon="-8.71754">
        <ele>99.15</ele>
        <time>2019-05-15T08:48:44Z</time>
      </trkpt>
      <trkpt lat="39.45047" lon="-8.71763">
        <ele>99.63</ele>
        <time>2019-05-15T08:48:51Z</time>
      </trkpt>
      <trkpt lat="39.45056" lon="-8.71774">
        <ele>100.11</ele>
        <time>2019-05-15T08:49:02Z</time>
      </trkpt>
      <trkpt lat="39.45074" lon="-8.71792">
        <ele>100.6</ele>
        <time>2019-05-15T08:49:20Z</time>
      </trkpt>
      <trkpt lat="39.45087" lon="-8.71805">
        <ele>101.56</ele>
        <time>2019-05-15T08:49:35Z</time>
      </trkpt>
      <trkpt lat="39.45101" lon="-8.71818">
        <ele>103</ele>
        <time>2019-05-15T08:49:48Z</time>
      </trkpt>
      <trkpt lat="39.45108" lon="-8.71826">
        <ele>103</ele>
        <time>2019-05-15T08:49:56Z</time>
      </trkpt>
      <trkpt lat="39.45114" lon="-8.71832">
        <ele>102.52</ele>
        <time>2019-05-15T08:50:02Z</time>
      </trkpt>
      <trkpt lat="39.45126" lon="-8.71844">
        <ele>104.44</ele>
        <time>2019-05-15T08:50:17Z</time>
      </trkpt>
      <trkpt lat="39.45136" lon="-8.71851">
        <ele>105.4</ele>
        <time>2019-05-15T08:50:32Z</time>
      </trkpt>
      <trkpt lat="39.45147" lon="-8.71851">
        <ele>105.88</ele>
        <time>2019-05-15T08:50:51Z</time>
      </trkpt>
      <trkpt lat="39.45151" lon="-8.71854">
        <ele>106.36</ele>
        <time>2019-05-15T08:50:56Z</time>
      </trkpt>
      <trkpt lat="39.45153" lon="-8.71856">
        <ele>104.92</ele>
        <time>2019-05-15T08:50:58Z</time>
      </trkpt>
      <trkpt lat="39.45157" lon="-8.71862">
        <ele>104.92</ele>
        <time>2019-05-15T08:51:02Z</time>
      </trkpt>
      <trkpt lat="39.4517" lon="-8.71871">
        <ele>105.4</ele>
        <time>2019-05-15T08:51:15Z</time>
      </trkpt>
      <trkpt lat="39.45177" lon="-8.71877">
        <ele>105.88</ele>
        <time>2019-05-15T08:51:21Z</time>
      </trkpt>
      <trkpt lat="39.45192" lon="-8.71889">
        <ele>107.32</ele>
        <time>2019-05-15T08:51:36Z</time>
      </trkpt>
      <trkpt lat="39.45206" lon="-8.71896">
        <ele>107.81</ele>
        <time>2019-05-15T08:51:50Z</time>
      </trkpt>
      <trkpt lat="39.45221" lon="-8.71897">
        <ele>106.84</ele>
        <time>2019-05-15T08:52:03Z</time>
      </trkpt>
      <trkpt lat="39.45237" lon="-8.71903">
        <ele>107.32</ele>
        <time>2019-05-15T08:52:16Z</time>
      </trkpt>
      <trkpt lat="39.45259" lon="-8.7191">
        <ele>108.29</ele>
        <time>2019-05-15T08:52:33Z</time>
      </trkpt>
      <trkpt lat="39.45273" lon="-8.71901">
        <ele>110.69</ele>
        <time>2019-05-15T08:52:47Z</time>
      </trkpt>
      <trkpt lat="39.45275" lon="-8.71898">
        <ele>111.17</ele>
        <time>2019-05-15T08:52:50Z</time>
      </trkpt>
      <trkpt lat="39.45286" lon="-8.71889">
        <ele>113.09</ele>
        <time>2019-05-15T08:53:03Z</time>
      </trkpt>
      <trkpt lat="39.45297" lon="-8.71882">
        <ele>114.53</ele>
        <time>2019-05-15T08:53:17Z</time>
      </trkpt>
      <trkpt lat="39.45307" lon="-8.71871">
        <ele>115.5</ele>
        <time>2019-05-15T08:53:31Z</time>
      </trkpt>
      <trkpt lat="39.45307" lon="-8.71854">
        <ele>117.42</ele>
        <time>2019-05-15T08:53:45Z</time>
      </trkpt>
      <trkpt lat="39.45303" lon="-8.71837">
        <ele>119.34</ele>
        <time>2019-05-15T08:54:01Z</time>
      </trkpt>
      <trkpt lat="39.45299" lon="-8.71819">
        <ele>121.26</ele>
        <time>2019-05-15T08:54:19Z</time>
      </trkpt>
      <trkpt lat="39.45299" lon="-8.7181">
        <ele>122.71</ele>
        <time>2019-05-15T08:54:34Z</time>
      </trkpt>
      <trkpt lat="39.45305" lon="-8.71802">
        <ele>124.15</ele>
        <time>2019-05-15T08:54:49Z</time>
      </trkpt>
      <trkpt lat="39.45319" lon="-8.71799">
        <ele>127.03</ele>
        <time>2019-05-15T08:55:08Z</time>
      </trkpt>
      <trkpt lat="39.45326" lon="-8.71793">
        <ele>127.51</ele>
        <time>2019-05-15T08:55:23Z</time>
      </trkpt>
      <trkpt lat="39.4533" lon="-8.7178">
        <ele>129.92</ele>
        <time>2019-05-15T08:55:39Z</time>
      </trkpt>
      <trkpt lat="39.45332" lon="-8.71759">
        <ele>131.84</ele>
        <time>2019-05-15T08:55:57Z</time>
      </trkpt>
      <trkpt lat="39.45331" lon="-8.71744">
        <ele>133.28</ele>
        <time>2019-05-15T08:56:15Z</time>
      </trkpt>
      <trkpt lat="39.45332" lon="-8.71731">
        <ele>136.64</ele>
        <time>2019-05-15T08:56:27Z</time>
      </trkpt>
      <trkpt lat="39.45334" lon="-8.71713">
        <ele>137.13</ele>
        <time>2019-05-15T08:56:42Z</time>
      </trkpt>
      <trkpt lat="39.45336" lon="-8.71694">
        <ele>139.05</ele>
        <time>2019-05-15T08:56:59Z</time>
      </trkpt>
      <trkpt lat="39.45343" lon="-8.71679">
        <ele>140.01</ele>
        <time>2019-05-15T08:57:13Z</time>
      </trkpt>
      <trkpt lat="39.4535" lon="-8.71672">
        <ele>140.49</ele>
        <time>2019-05-15T08:57:26Z</time>
      </trkpt>
      <trkpt lat="39.45356" lon="-8.71664">
        <ele>141.45</ele>
        <time>2019-05-15T08:57:41Z</time>
      </trkpt>
      <trkpt lat="39.45364" lon="-8.71651">
        <ele>141.93</ele>
        <time>2019-05-15T08:57:54Z</time>
      </trkpt>
      <trkpt lat="39.45366" lon="-8.71647">
        <ele>141.93</ele>
        <time>2019-05-15T08:57:57Z</time>
      </trkpt>
      <trkpt lat="39.45378" lon="-8.71634">
        <ele>142.89</ele>
        <time>2019-05-15T08:58:11Z</time>
      </trkpt>
      <trkpt lat="39.45388" lon="-8.71625">
        <ele>143.37</ele>
        <time>2019-05-15T08:58:24Z</time>
      </trkpt>
      <trkpt lat="39.454" lon="-8.71613">
        <ele>145.3</ele>
        <time>2019-05-15T08:58:39Z</time>
      </trkpt>
      <trkpt lat="39.45403" lon="-8.71605">
        <ele>145.78</ele>
        <time>2019-05-15T08:58:47Z</time>
      </trkpt>
      <trkpt lat="39.45409" lon="-8.716">
        <ele>146.26</ele>
        <time>2019-05-15T08:58:53Z</time>
      </trkpt>
      <trkpt lat="39.45416" lon="-8.71595">
        <ele>146.26</ele>
        <time>2019-05-15T08:58:59Z</time>
      </trkpt>
      <trkpt lat="39.45419" lon="-8.71592">
        <ele>146.26</ele>
        <time>2019-05-15T08:59:02Z</time>
      </trkpt>
      <trkpt lat="39.45425" lon="-8.71584">
        <ele>147.22</ele>
        <time>2019-05-15T08:59:10Z</time>
      </trkpt>
      <trkpt lat="39.45441" lon="-8.71568">
        <ele>148.18</ele>
        <time>2019-05-15T08:59:25Z</time>
      </trkpt>
      <trkpt lat="39.45444" lon="-8.71564">
        <ele>148.66</ele>
        <time>2019-05-15T08:59:29Z</time>
      </trkpt>
      <trkpt lat="39.4545" lon="-8.71556">
        <ele>149.62</ele>
        <time>2019-05-15T08:59:38Z</time>
      </trkpt>
      <trkpt lat="39.45461" lon="-8.71547">
        <ele>149.62</ele>
        <time>2019-05-15T08:59:49Z</time>
      </trkpt>
      <trkpt lat="39.45482" lon="-8.71536">
        <ele>150.1</ele>
        <time>2019-05-15T09:00:05Z</time>
      </trkpt>
      <trkpt lat="39.45495" lon="-8.7153">
        <ele>151.06</ele>
        <time>2019-05-15T09:00:21Z</time>
      </trkpt>
      <trkpt lat="39.45506" lon="-8.71528">
        <ele>151.54</ele>
        <time>2019-05-15T09:00:34Z</time>
      </trkpt>
      <trkpt lat="39.45515" lon="-8.71525">
        <ele>149.62</ele>
        <time>2019-05-15T09:00:50Z</time>
      </trkpt>
      <trkpt lat="39.45519" lon="-8.71524">
        <ele>149.14</ele>
        <time>2019-05-15T09:00:53Z</time>
      </trkpt>
      <trkpt lat="39.45538" lon="-8.71525">
        <ele>147.22</ele>
        <time>2019-05-15T09:01:07Z</time>
      </trkpt>
      <trkpt lat="39.45557" lon="-8.71529">
        <ele>146.26</ele>
        <time>2019-05-15T09:01:22Z</time>
      </trkpt>
      <trkpt lat="39.45575" lon="-8.71525">
        <ele>144.82</ele>
        <time>2019-05-15T09:01:36Z</time>
      </trkpt>
      <trkpt lat="39.45588" lon="-8.71516">
        <ele>144.34</ele>
        <time>2019-05-15T09:01:49Z</time>
      </trkpt>
      <trkpt lat="39.4559" lon="-8.71516">
        <ele>143.85</ele>
        <time>2019-05-15T09:01:52Z</time>
      </trkpt>
      <trkpt lat="39.45607" lon="-8.71508">
        <ele>144.34</ele>
        <time>2019-05-15T09:02:08Z</time>
      </trkpt>
      <trkpt lat="39.45624" lon="-8.71497">
        <ele>142.89</ele>
        <time>2019-05-15T09:02:23Z</time>
      </trkpt>
      <trkpt lat="39.4564" lon="-8.71486">
        <ele>143.85</ele>
        <time>2019-05-15T09:02:38Z</time>
      </trkpt>
      <trkpt lat="39.45656" lon="-8.71473">
        <ele>143.85</ele>
        <time>2019-05-15T09:02:53Z</time>
      </trkpt>
      <trkpt lat="39.45671" lon="-8.7146">
        <ele>144.34</ele>
        <time>2019-05-15T09:03:08Z</time>
      </trkpt>
      <trkpt lat="39.45683" lon="-8.7145">
        <ele>144.34</ele>
        <time>2019-05-15T09:03:22Z</time>
      </trkpt>
      <trkpt lat="39.45691" lon="-8.71459">
        <ele>143.37</ele>
        <time>2019-05-15T09:03:35Z</time>
      </trkpt>
      <trkpt lat="39.45695" lon="-8.71463">
        <ele>142.89</ele>
        <time>2019-05-15T09:03:40Z</time>
      </trkpt>
      <trkpt lat="39.45701" lon="-8.71471">
        <ele>142.89</ele>
        <time>2019-05-15T09:03:47Z</time>
      </trkpt>
      <trkpt lat="39.45708" lon="-8.71479">
        <ele>143.37</ele>
        <time>2019-05-15T09:03:55Z</time>
      </trkpt>
      <trkpt lat="39.45712" lon="-8.71476">
        <ele>143.85</ele>
        <time>2019-05-15T09:04:08Z</time>
      </trkpt>
      <trkpt lat="39.45717" lon="-8.71483">
        <ele>143.85</ele>
        <time>2019-05-15T09:04:34Z</time>
      </trkpt>
      <trkpt lat="39.45732" lon="-8.71493">
        <ele>143.37</ele>
        <time>2019-05-15T09:04:48Z</time>
      </trkpt>
      <trkpt lat="39.45752" lon="-8.71506">
        <ele>144.34</ele>
        <time>2019-05-15T09:05:07Z</time>
      </trkpt>
      <trkpt lat="39.45767" lon="-8.71517">
        <ele>144.82</ele>
        <time>2019-05-15T09:05:23Z</time>
      </trkpt>
      <trkpt lat="39.45782" lon="-8.71529">
        <ele>145.78</ele>
        <time>2019-05-15T09:05:38Z</time>
      </trkpt>
      <trkpt lat="39.45792" lon="-8.71537">
        <ele>146.26</ele>
        <time>2019-05-15T09:05:47Z</time>
      </trkpt>
      <trkpt lat="39.45802" lon="-8.71542">
        <ele>144.34</ele>
        <time>2019-05-15T09:06:03Z</time>
      </trkpt>
      <trkpt lat="39.45804" lon="-8.71542">
        <ele>145.78</ele>
        <time>2019-05-15T09:06:22Z</time>
      </trkpt>
      <trkpt lat="39.45804" lon="-8.71541">
        <ele>145.78</ele>
        <time>2019-05-15T09:06:41Z</time>
      </trkpt>
      <trkpt lat="39.45805" lon="-8.71539">
        <ele>145.78</ele>
        <time>2019-05-15T09:07:00Z</time>
      </trkpt>
      <trkpt lat="39.45802" lon="-8.71542">
        <ele>146.26</ele>
        <time>2019-05-15T09:07:14Z</time>
      </trkpt>
      <trkpt lat="39.45803" lon="-8.71542">
        <ele>145.78</ele>
        <time>2019-05-15T09:07:34Z</time>
      </trkpt>
      <trkpt lat="39.45805" lon="-8.71544">
        <ele>145.78</ele>
        <time>2019-05-15T09:07:39Z</time>
      </trkpt>
      <trkpt lat="39.4581" lon="-8.71544">
        <ele>146.26</ele>
        <time>2019-05-15T09:07:56Z</time>
      </trkpt>
      <trkpt lat="39.45809" lon="-8.71545">
        <ele>146.26</ele>
        <time>2019-05-15T09:08:11Z</time>
      </trkpt>
      <trkpt lat="39.45813" lon="-8.71546">
        <ele>145.78</ele>
        <time>2019-05-15T09:08:31Z</time>
      </trkpt>
      <trkpt lat="39.45824" lon="-8.71551">
        <ele>146.74</ele>
        <time>2019-05-15T09:08:43Z</time>
      </trkpt>
      <trkpt lat="39.45828" lon="-8.71552">
        <ele>146.26</ele>
        <time>2019-05-15T09:08:48Z</time>
      </trkpt>
      <trkpt lat="39.45845" lon="-8.71566">
        <ele>148.66</ele>
        <time>2019-05-15T09:09:07Z</time>
      </trkpt>
      <trkpt lat="39.45853" lon="-8.71576">
        <ele>151.54</ele>
        <time>2019-05-15T09:09:18Z</time>
      </trkpt>
      <trkpt lat="39.45863" lon="-8.71595">
        <ele>150.1</ele>
        <time>2019-05-15T09:09:33Z</time>
      </trkpt>
      <trkpt lat="39.45872" lon="-8.71615">
        <ele>150.58</ele>
        <time>2019-05-15T09:09:48Z</time>
      </trkpt>
      <trkpt lat="39.45873" lon="-8.71618">
        <ele>150.1</ele>
        <time>2019-05-15T09:09:50Z</time>
      </trkpt>
      <trkpt lat="39.45886" lon="-8.71637">
        <ele>150.1</ele>
        <time>2019-05-15T09:10:06Z</time>
      </trkpt>
      <trkpt lat="39.459" lon="-8.71659">
        <ele>149.62</ele>
        <time>2019-05-15T09:10:23Z</time>
      </trkpt>
      <trkpt lat="39.45911" lon="-8.71674">
        <ele>148.18</ele>
        <time>2019-05-15T09:10:35Z</time>
      </trkpt>
      <trkpt lat="39.4592" lon="-8.71687">
        <ele>145.78</ele>
        <time>2019-05-15T09:10:46Z</time>
      </trkpt>
      <trkpt lat="39.45928" lon="-8.71695">
        <ele>144.34</ele>
        <time>2019-05-15T09:10:54Z</time>
      </trkpt>
      <trkpt lat="39.45936" lon="-8.717">
        <ele>143.37</ele>
        <time>2019-05-15T09:11:03Z</time>
      </trkpt>
      <trkpt lat="39.45944" lon="-8.71694">
        <ele>143.37</ele>
        <time>2019-05-15T09:11:10Z</time>
      </trkpt>
      <trkpt lat="39.45956" lon="-8.71672">
        <ele>142.41</ele>
        <time>2019-05-15T09:11:26Z</time>
      </trkpt>
      <trkpt lat="39.45959" lon="-8.71667">
        <ele>142.41</ele>
        <time>2019-05-15T09:11:30Z</time>
      </trkpt>
      <trkpt lat="39.45971" lon="-8.71657">
        <ele>141.45</ele>
        <time>2019-05-15T09:11:46Z</time>
      </trkpt>
      <trkpt lat="39.45982" lon="-8.71651">
        <ele>140.97</ele>
        <time>2019-05-15T09:11:58Z</time>
      </trkpt>
      <trkpt lat="39.45995" lon="-8.71645">
        <ele>140.49</ele>
        <time>2019-05-15T09:12:11Z</time>
      </trkpt>
      <trkpt lat="39.46008" lon="-8.71637">
        <ele>140.01</ele>
        <time>2019-05-15T09:12:23Z</time>
      </trkpt>
      <trkpt lat="39.46012" lon="-8.71634">
        <ele>139.05</ele>
        <time>2019-05-15T09:12:27Z</time>
      </trkpt>
      <trkpt lat="39.46027" lon="-8.71625">
        <ele>138.09</ele>
        <time>2019-05-15T09:12:41Z</time>
      </trkpt>
      <trkpt lat="39.46029" lon="-8.71624">
        <ele>137.61</ele>
        <time>2019-05-15T09:12:42Z</time>
      </trkpt>
      <trkpt lat="39.46036" lon="-8.7162">
        <ele>137.13</ele>
        <time>2019-05-15T09:12:51Z</time>
      </trkpt>
      <trkpt lat="39.46046" lon="-8.7162">
        <ele>138.57</ele>
        <time>2019-05-15T09:13:04Z</time>
      </trkpt>
      <trkpt lat="39.46047" lon="-8.71616">
        <ele>138.09</ele>
        <time>2019-05-15T09:13:22Z</time>
      </trkpt>
      <trkpt lat="39.46047" lon="-8.71616">
        <ele>137.61</ele>
        <time>2019-05-15T09:13:38Z</time>
      </trkpt>
      <trkpt lat="39.46047" lon="-8.71615">
        <ele>139.05</ele>
        <time>2019-05-15T09:14:02Z</time>
      </trkpt>
      <trkpt lat="39.46046" lon="-8.71616">
        <ele>137.61</ele>
        <time>2019-05-15T09:14:27Z</time>
      </trkpt>
      <trkpt lat="39.46045" lon="-8.71615">
        <ele>138.09</ele>
        <time>2019-05-15T09:14:39Z</time>
      </trkpt>
      <trkpt lat="39.46047" lon="-8.71614">
        <ele>137.61</ele>
        <time>2019-05-15T09:15:13Z</time>
      </trkpt>
      <trkpt lat="39.46047" lon="-8.71614">
        <ele>139.05</ele>
        <time>2019-05-15T09:15:30Z</time>
      </trkpt>
      <trkpt lat="39.46048" lon="-8.71616">
        <ele>140.01</ele>
        <time>2019-05-15T09:15:49Z</time>
      </trkpt>
      <trkpt lat="39.46044" lon="-8.71609">
        <ele>138.57</ele>
        <time>2019-05-15T09:16:07Z</time>
      </trkpt>
      <trkpt lat="39.46049" lon="-8.71585">
        <ele>138.57</ele>
        <time>2019-05-15T09:16:23Z</time>
      </trkpt>
      <trkpt lat="39.46051" lon="-8.71565">
        <ele>139.05</ele>
        <time>2019-05-15T09:16:38Z</time>
      </trkpt>
      <trkpt lat="39.4605" lon="-8.71551">
        <ele>138.57</ele>
        <time>2019-05-15T09:16:47Z</time>
      </trkpt>
      <trkpt lat="39.46048" lon="-8.71539">
        <ele>139.53</ele>
        <time>2019-05-15T09:17:01Z</time>
      </trkpt>
      <trkpt lat="39.46048" lon="-8.71539">
        <ele>139.05</ele>
        <time>2019-05-15T09:17:02Z</time>
      </trkpt>
      <trkpt lat="39.46049" lon="-8.71533">
        <ele>140.01</ele>
        <time>2019-05-15T09:17:06Z</time>
      </trkpt>
      <trkpt lat="39.46051" lon="-8.71507">
        <ele>140.01</ele>
        <time>2019-05-15T09:17:23Z</time>
      </trkpt>
      <trkpt lat="39.46055" lon="-8.71482">
        <ele>140.01</ele>
        <time>2019-05-15T09:17:38Z</time>
      </trkpt>
      <trkpt lat="39.46057" lon="-8.71471">
        <ele>140.01</ele>
        <time>2019-05-15T09:17:45Z</time>
      </trkpt>
      <trkpt lat="39.46064" lon="-8.71443">
        <ele>140.49</ele>
        <time>2019-05-15T09:18:04Z</time>
      </trkpt>
      <trkpt lat="39.46065" lon="-8.71435">
        <ele>140.49</ele>
        <time>2019-05-15T09:18:09Z</time>
      </trkpt>
      <trkpt lat="39.46067" lon="-8.71416">
        <ele>140.49</ele>
        <time>2019-05-15T09:18:22Z</time>
      </trkpt>
      <trkpt lat="39.4607" lon="-8.71398">
        <ele>140.49</ele>
        <time>2019-05-15T09:18:35Z</time>
      </trkpt>
      <trkpt lat="39.46077" lon="-8.71376">
        <ele>141.45</ele>
        <time>2019-05-15T09:18:53Z</time>
      </trkpt>
      <trkpt lat="39.46083" lon="-8.71359">
        <ele>142.41</ele>
        <time>2019-05-15T09:19:06Z</time>
      </trkpt>
      <trkpt lat="39.46089" lon="-8.71337">
        <ele>142.41</ele>
        <time>2019-05-15T09:19:22Z</time>
      </trkpt>
      <trkpt lat="39.46092" lon="-8.71328">
        <ele>143.37</ele>
        <time>2019-05-15T09:19:30Z</time>
      </trkpt>
      <trkpt lat="39.46103" lon="-8.71311">
        <ele>143.85</ele>
        <time>2019-05-15T09:19:45Z</time>
      </trkpt>
      <trkpt lat="39.46111" lon="-8.71302">
        <ele>144.82</ele>
        <time>2019-05-15T09:19:55Z</time>
      </trkpt>
      <trkpt lat="39.46125" lon="-8.71285">
        <ele>145.3</ele>
        <time>2019-05-15T09:20:11Z</time>
      </trkpt>
      <trkpt lat="39.46126" lon="-8.71284">
        <ele>145.78</ele>
        <time>2019-05-15T09:20:12Z</time>
      </trkpt>
      <trkpt lat="39.46137" lon="-8.71267">
        <ele>145.3</ele>
        <time>2019-05-15T09:20:26Z</time>
      </trkpt>
      <trkpt lat="39.46141" lon="-8.71264">
        <ele>145.78</ele>
        <time>2019-05-15T09:20:30Z</time>
      </trkpt>
      <trkpt lat="39.46147" lon="-8.71259">
        <ele>146.74</ele>
        <time>2019-05-15T09:20:48Z</time>
      </trkpt>
      <trkpt lat="39.46158" lon="-8.71243">
        <ele>146.26</ele>
        <time>2019-05-15T09:21:02Z</time>
      </trkpt>
      <trkpt lat="39.4616" lon="-8.71238">
        <ele>146.74</ele>
        <time>2019-05-15T09:21:06Z</time>
      </trkpt>
      <trkpt lat="39.46166" lon="-8.71219">
        <ele>146.26</ele>
        <time>2019-05-15T09:21:19Z</time>
      </trkpt>
      <trkpt lat="39.46181" lon="-8.712">
        <ele>145.78</ele>
        <time>2019-05-15T09:21:36Z</time>
      </trkpt>
      <trkpt lat="39.4619" lon="-8.71188">
        <ele>144.82</ele>
        <time>2019-05-15T09:21:50Z</time>
      </trkpt>
      <trkpt lat="39.46196" lon="-8.71183">
        <ele>144.82</ele>
        <time>2019-05-15T09:21:57Z</time>
      </trkpt>
      <trkpt lat="39.46199" lon="-8.7118">
        <ele>144.82</ele>
        <time>2019-05-15T09:22:00Z</time>
      </trkpt>
      <trkpt lat="39.46214" lon="-8.71168">
        <ele>143.85</ele>
        <time>2019-05-15T09:22:16Z</time>
      </trkpt>
      <trkpt lat="39.46224" lon="-8.71161">
        <ele>144.34</ele>
        <time>2019-05-15T09:22:30Z</time>
      </trkpt>
      <trkpt lat="39.46225" lon="-8.7116">
        <ele>144.34</ele>
        <time>2019-05-15T09:22:33Z</time>
      </trkpt>
      <trkpt lat="39.46228" lon="-8.71157">
        <ele>144.82</ele>
        <time>2019-05-15T09:22:48Z</time>
      </trkpt>
      <trkpt lat="39.46234" lon="-8.71155">
        <ele>143.37</ele>
        <time>2019-05-15T09:23:02Z</time>
      </trkpt>
      <trkpt lat="39.46236" lon="-8.71156">
        <ele>143.85</ele>
        <time>2019-05-15T09:23:24Z</time>
      </trkpt>
      <trkpt lat="39.46237" lon="-8.71155">
        <ele>143.85</ele>
        <time>2019-05-15T09:23:45Z</time>
      </trkpt>
      <trkpt lat="39.46236" lon="-8.71157">
        <ele>144.34</ele>
        <time>2019-05-15T09:24:23Z</time>
      </trkpt>
      <trkpt lat="39.46237" lon="-8.71159">
        <ele>144.82</ele>
        <time>2019-05-15T09:24:52Z</time>
      </trkpt>
      <trkpt lat="39.46238" lon="-8.71158">
        <ele>144.34</ele>
        <time>2019-05-15T09:25:24Z</time>
      </trkpt>
      <trkpt lat="39.46237" lon="-8.71161">
        <ele>144.82</ele>
        <time>2019-05-15T09:25:55Z</time>
      </trkpt>
      <trkpt lat="39.46236" lon="-8.7116">
        <ele>145.78</ele>
        <time>2019-05-15T09:26:25Z</time>
      </trkpt>
      <trkpt lat="39.46235" lon="-8.71159">
        <ele>144.82</ele>
        <time>2019-05-15T09:26:52Z</time>
      </trkpt>
      <trkpt lat="39.46236" lon="-8.71157">
        <ele>146.74</ele>
        <time>2019-05-15T09:27:21Z</time>
      </trkpt>
      <trkpt lat="39.46238" lon="-8.71157">
        <ele>145.78</ele>
        <time>2019-05-15T09:27:46Z</time>
      </trkpt>
      <trkpt lat="39.4624" lon="-8.71158">
        <ele>146.74</ele>
        <time>2019-05-15T09:28:07Z</time>
      </trkpt>
      <trkpt lat="39.46239" lon="-8.71157">
        <ele>147.22</ele>
        <time>2019-05-15T09:28:37Z</time>
      </trkpt>
      <trkpt lat="39.46239" lon="-8.71155">
        <ele>146.26</ele>
        <time>2019-05-15T09:29:13Z</time>
      </trkpt>
      <trkpt lat="39.46237" lon="-8.71157">
        <ele>147.7</ele>
        <time>2019-05-15T09:29:38Z</time>
      </trkpt>
      <trkpt lat="39.46236" lon="-8.71157">
        <ele>147.22</ele>
        <time>2019-05-15T09:30:10Z</time>
      </trkpt>
      <trkpt lat="39.46234" lon="-8.71153">
        <ele>147.22</ele>
        <time>2019-05-15T09:30:46Z</time>
      </trkpt>
      <trkpt lat="39.46233" lon="-8.71155">
        <ele>147.22</ele>
        <time>2019-05-15T09:31:19Z</time>
      </trkpt>
      <trkpt lat="39.46236" lon="-8.71155">
        <ele>147.7</ele>
        <time>2019-05-15T09:31:54Z</time>
      </trkpt>
      <trkpt lat="39.46237" lon="-8.71155">
        <ele>147.7</ele>
        <time>2019-05-15T09:32:22Z</time>
      </trkpt>
      <trkpt lat="39.46235" lon="-8.71156">
        <ele>147.7</ele>
        <time>2019-05-15T09:32:47Z</time>
      </trkpt>
      <trkpt lat="39.46235" lon="-8.71153">
        <ele>147.7</ele>
        <time>2019-05-15T09:33:27Z</time>
      </trkpt>
      <trkpt lat="39.46234" lon="-8.71152">
        <ele>147.7</ele>
        <time>2019-05-15T09:33:51Z</time>
      </trkpt>
      <trkpt lat="39.46236" lon="-8.7115">
        <ele>147.7</ele>
        <time>2019-05-15T09:34:16Z</time>
      </trkpt>
      <trkpt lat="39.46236" lon="-8.71152">
        <ele>148.18</ele>
        <time>2019-05-15T09:34:46Z</time>
      </trkpt>
      <trkpt lat="39.46239" lon="-8.71153">
        <ele>148.18</ele>
        <time>2019-05-15T09:35:26Z</time>
      </trkpt>
      <trkpt lat="39.46238" lon="-8.71154">
        <ele>148.66</ele>
        <time>2019-05-15T09:35:58Z</time>
      </trkpt>
      <trkpt lat="39.4624" lon="-8.71154">
        <ele>149.14</ele>
        <time>2019-05-15T09:36:27Z</time>
      </trkpt>
      <trkpt lat="39.46241" lon="-8.71151">
        <ele>149.14</ele>
        <time>2019-05-15T09:36:54Z</time>
      </trkpt>
      <trkpt lat="39.46242" lon="-8.71149">
        <ele>149.14</ele>
        <time>2019-05-15T09:37:23Z</time>
      </trkpt>
      <trkpt lat="39.46241" lon="-8.71152">
        <ele>149.14</ele>
        <time>2019-05-15T09:37:56Z</time>
      </trkpt>
      <trkpt lat="39.4624" lon="-8.71151">
        <ele>149.14</ele>
        <time>2019-05-15T09:38:22Z</time>
      </trkpt>
      <trkpt lat="39.46239" lon="-8.71152">
        <ele>150.1</ele>
        <time>2019-05-15T09:38:47Z</time>
      </trkpt>
      <trkpt lat="39.46235" lon="-8.71152">
        <ele>149.62</ele>
        <time>2019-05-15T09:39:16Z</time>
      </trkpt>
      <trkpt lat="39.46235" lon="-8.71151">
        <ele>150.1</ele>
        <time>2019-05-15T09:39:45Z</time>
      </trkpt>
      <trkpt lat="39.46235" lon="-8.71153">
        <ele>150.58</ele>
        <time>2019-05-15T09:40:15Z</time>
      </trkpt>
      <trkpt lat="39.46238" lon="-8.71153">
        <ele>150.1</ele>
        <time>2019-05-15T09:40:41Z</time>
      </trkpt>
      <trkpt lat="39.46236" lon="-8.7115">
        <ele>150.58</ele>
        <time>2019-05-15T09:41:06Z</time>
      </trkpt>
      <trkpt lat="39.46235" lon="-8.71149">
        <ele>151.06</ele>
        <time>2019-05-15T09:41:35Z</time>
      </trkpt>
      <trkpt lat="39.46237" lon="-8.71151">
        <ele>150.58</ele>
        <time>2019-05-15T09:42:03Z</time>
      </trkpt>
      <trkpt lat="39.46235" lon="-8.71152">
        <ele>150.58</ele>
        <time>2019-05-15T09:42:33Z</time>
      </trkpt>
      <trkpt lat="39.46232" lon="-8.71152">
        <ele>150.58</ele>
        <time>2019-05-15T09:43:01Z</time>
      </trkpt>
      <trkpt lat="39.46232" lon="-8.71151">
        <ele>150.58</ele>
        <time>2019-05-15T09:43:31Z</time>
      </trkpt>
      <trkpt lat="39.46234" lon="-8.71148">
        <ele>150.58</ele>
        <time>2019-05-15T09:43:55Z</time>
      </trkpt>
      <trkpt lat="39.46234" lon="-8.7115">
        <ele>151.06</ele>
        <time>2019-05-15T09:44:10Z</time>
      </trkpt>
      <trkpt lat="39.46236" lon="-8.71152">
        <ele>151.06</ele>
        <time>2019-05-15T09:44:25Z</time>
      </trkpt>
      <trkpt lat="39.46236" lon="-8.71153">
        <ele>151.54</ele>
        <time>2019-05-15T09:44:44Z</time>
      </trkpt>
      <trkpt lat="39.46238" lon="-8.71154">
        <ele>151.06</ele>
        <time>2019-05-15T09:45:05Z</time>
      </trkpt>
      <trkpt lat="39.46236" lon="-8.71152">
        <ele>151.54</ele>
        <time>2019-05-15T09:45:27Z</time>
      </trkpt>
      <trkpt lat="39.46234" lon="-8.71157">
        <ele>151.54</ele>
        <time>2019-05-15T09:45:31Z</time>
      </trkpt>
      <trkpt lat="39.46237" lon="-8.71162">
        <ele>151.06</ele>
        <time>2019-05-15T09:45:35Z</time>
      </trkpt>
      <trkpt lat="39.46249" lon="-8.71168">
        <ele>151.06</ele>
        <time>2019-05-15T09:45:46Z</time>
      </trkpt>
      <trkpt lat="39.46256" lon="-8.71168">
        <ele>152.03</ele>
        <time>2019-05-15T09:45:57Z</time>
      </trkpt>
      <trkpt lat="39.46263" lon="-8.71163">
        <ele>151.54</ele>
        <time>2019-05-15T09:46:08Z</time>
      </trkpt>
      <trkpt lat="39.46269" lon="-8.71162">
        <ele>151.54</ele>
        <time>2019-05-15T09:46:14Z</time>
      </trkpt>
      <trkpt lat="39.46274" lon="-8.71163">
        <ele>152.03</ele>
        <time>2019-05-15T09:46:21Z</time>
      </trkpt>
      <trkpt lat="39.46277" lon="-8.71165">
        <ele>151.06</ele>
        <time>2019-05-15T09:46:28Z</time>
      </trkpt>
      <trkpt lat="39.46293" lon="-8.71174">
        <ele>149.14</ele>
        <time>2019-05-15T09:46:43Z</time>
      </trkpt>
      <trkpt lat="39.46293" lon="-8.71175">
        <ele>149.62</ele>
        <time>2019-05-15T09:46:44Z</time>
      </trkpt>
      <trkpt lat="39.463" lon="-8.71182">
        <ele>148.66</ele>
        <time>2019-05-15T09:46:53Z</time>
      </trkpt>
      <trkpt lat="39.46307" lon="-8.71185">
        <ele>148.66</ele>
        <time>2019-05-15T09:47:08Z</time>
      </trkpt>
      <trkpt lat="39.46311" lon="-8.71188">
        <ele>148.66</ele>
        <time>2019-05-15T09:47:28Z</time>
      </trkpt>
      <trkpt lat="39.46322" lon="-8.71189">
        <ele>148.18</ele>
        <time>2019-05-15T09:47:40Z</time>
      </trkpt>
      <trkpt lat="39.4634" lon="-8.71188">
        <ele>145.78</ele>
        <time>2019-05-15T09:47:54Z</time>
      </trkpt>
      <trkpt lat="39.46358" lon="-8.71181">
        <ele>142.89</ele>
        <time>2019-05-15T09:48:09Z</time>
      </trkpt>
      <trkpt lat="39.46375" lon="-8.71171">
        <ele>141.45</ele>
        <time>2019-05-15T09:48:25Z</time>
      </trkpt>
      <trkpt lat="39.46377" lon="-8.71169">
        <ele>141.93</ele>
        <time>2019-05-15T09:48:27Z</time>
      </trkpt>
      <trkpt lat="39.46388" lon="-8.71147">
        <ele>141.93</ele>
        <time>2019-05-15T09:48:44Z</time>
      </trkpt>
      <trkpt lat="39.46392" lon="-8.71141">
        <ele>141.93</ele>
        <time>2019-05-15T09:48:49Z</time>
      </trkpt>
      <trkpt lat="39.46401" lon="-8.71121">
        <ele>142.41</ele>
        <time>2019-05-15T09:49:03Z</time>
      </trkpt>
      <trkpt lat="39.46403" lon="-8.71111">
        <ele>143.37</ele>
        <time>2019-05-15T09:49:16Z</time>
      </trkpt>
      <trkpt lat="39.46405" lon="-8.7111">
        <ele>143.37</ele>
        <time>2019-05-15T09:49:18Z</time>
      </trkpt>
      <trkpt lat="39.46406" lon="-8.71101">
        <ele>142.89</ele>
        <time>2019-05-15T09:49:25Z</time>
      </trkpt>
      <trkpt lat="39.46404" lon="-8.7109">
        <ele>142.41</ele>
        <time>2019-05-15T09:49:31Z</time>
      </trkpt>
      <trkpt lat="39.46399" lon="-8.71081">
        <ele>142.89</ele>
        <time>2019-05-15T09:49:47Z</time>
      </trkpt>
      <trkpt lat="39.46402" lon="-8.71085">
        <ele>142.41</ele>
        <time>2019-05-15T09:50:02Z</time>
      </trkpt>
      <trkpt lat="39.46404" lon="-8.71083">
        <ele>142.41</ele>
        <time>2019-05-15T09:50:05Z</time>
      </trkpt>
      <trkpt lat="39.46407" lon="-8.71076">
        <ele>142.89</ele>
        <time>2019-05-15T09:50:12Z</time>
      </trkpt>
      <trkpt lat="39.46417" lon="-8.71078">
        <ele>143.37</ele>
        <time>2019-05-15T09:50:24Z</time>
      </trkpt>
      <trkpt lat="39.46417" lon="-8.71082">
        <ele>142.89</ele>
        <time>2019-05-15T09:50:36Z</time>
      </trkpt>
      <trkpt lat="39.46416" lon="-8.71081">
        <ele>143.37</ele>
        <time>2019-05-15T09:50:54Z</time>
      </trkpt>
      <trkpt lat="39.46419" lon="-8.71087">
        <ele>142.89</ele>
        <time>2019-05-15T09:51:04Z</time>
      </trkpt>
      <trkpt lat="39.46437" lon="-8.71092">
        <ele>143.85</ele>
        <time>2019-05-15T09:51:20Z</time>
      </trkpt>
      <trkpt lat="39.46444" lon="-8.71098">
        <ele>145.78</ele>
        <time>2019-05-15T09:51:29Z</time>
      </trkpt>
      <trkpt lat="39.46459" lon="-8.71107">
        <ele>146.26</ele>
        <time>2019-05-15T09:51:45Z</time>
      </trkpt>
      <trkpt lat="39.46473" lon="-8.71116">
        <ele>147.7</ele>
        <time>2019-05-15T09:52:00Z</time>
      </trkpt>
      <trkpt lat="39.46477" lon="-8.7112">
        <ele>149.62</ele>
        <time>2019-05-15T09:52:05Z</time>
      </trkpt>
      <trkpt lat="39.46478" lon="-8.71122">
        <ele>148.66</ele>
        <time>2019-05-15T09:52:07Z</time>
      </trkpt>
      <trkpt lat="39.46484" lon="-8.71126">
        <ele>149.62</ele>
        <time>2019-05-15T09:52:19Z</time>
      </trkpt>
      <trkpt lat="39.46497" lon="-8.71134">
        <ele>150.58</ele>
        <time>2019-05-15T09:52:34Z</time>
      </trkpt>
      <trkpt lat="39.46508" lon="-8.71147">
        <ele>152.51</ele>
        <time>2019-05-15T09:52:49Z</time>
      </trkpt>
      <trkpt lat="39.46516" lon="-8.71149">
        <ele>152.51</ele>
        <time>2019-05-15T09:52:58Z</time>
      </trkpt>
      <trkpt lat="39.4653" lon="-8.71156">
        <ele>154.91</ele>
        <time>2019-05-15T09:53:15Z</time>
      </trkpt>
      <trkpt lat="39.46534" lon="-8.7116">
        <ele>155.39</ele>
        <time>2019-05-15T09:53:25Z</time>
      </trkpt>
      <trkpt lat="39.46538" lon="-8.71164">
        <ele>155.87</ele>
        <time>2019-05-15T09:53:30Z</time>
      </trkpt>
      <trkpt lat="39.4655" lon="-8.71176">
        <ele>158.27</ele>
        <time>2019-05-15T09:53:47Z</time>
      </trkpt>
      <trkpt lat="39.4656" lon="-8.71184">
        <ele>159.24</ele>
        <time>2019-05-15T09:54:00Z</time>
      </trkpt>
      <trkpt lat="39.46572" lon="-8.71187">
        <ele>160.2</ele>
        <time>2019-05-15T09:54:14Z</time>
      </trkpt>
      <trkpt lat="39.46577" lon="-8.71187">
        <ele>161.16</ele>
        <time>2019-05-15T09:54:19Z</time>
      </trkpt>
      <trkpt lat="39.46587" lon="-8.71186">
        <ele>162.12</ele>
        <time>2019-05-15T09:54:36Z</time>
      </trkpt>
      <trkpt lat="39.46597" lon="-8.71189">
        <ele>163.56</ele>
        <time>2019-05-15T09:54:50Z</time>
      </trkpt>
      <trkpt lat="39.46612" lon="-8.71188">
        <ele>165.48</ele>
        <time>2019-05-15T09:55:07Z</time>
      </trkpt>
      <trkpt lat="39.46631" lon="-8.71186">
        <ele>166.93</ele>
        <time>2019-05-15T09:55:25Z</time>
      </trkpt>
      <trkpt lat="39.4664" lon="-8.71185">
        <ele>166.93</ele>
        <time>2019-05-15T09:55:34Z</time>
      </trkpt>
      <trkpt lat="39.46656" lon="-8.71184">
        <ele>168.37</ele>
        <time>2019-05-15T09:55:51Z</time>
      </trkpt>
      <trkpt lat="39.46676" lon="-8.71183">
        <ele>170.77</ele>
        <time>2019-05-15T09:56:10Z</time>
      </trkpt>
      <trkpt lat="39.46692" lon="-8.71177">
        <ele>171.25</ele>
        <time>2019-05-15T09:56:26Z</time>
      </trkpt>
      <trkpt lat="39.46693" lon="-8.71176">
        <ele>171.25</ele>
        <time>2019-05-15T09:56:28Z</time>
      </trkpt>
      <trkpt lat="39.46701" lon="-8.71172">
        <ele>171.73</ele>
        <time>2019-05-15T09:56:36Z</time>
      </trkpt>
      <trkpt lat="39.46719" lon="-8.71158">
        <ele>173.66</ele>
        <time>2019-05-15T09:56:53Z</time>
      </trkpt>
      <trkpt lat="39.46724" lon="-8.71151">
        <ele>173.17</ele>
        <time>2019-05-15T09:57:09Z</time>
      </trkpt>
      <trkpt lat="39.46724" lon="-8.71147">
        <ele>173.17</ele>
        <time>2019-05-15T09:57:24Z</time>
      </trkpt>
      <trkpt lat="39.46727" lon="-8.7115">
        <ele>173.66</ele>
        <time>2019-05-15T09:57:32Z</time>
      </trkpt>
      <trkpt lat="39.46736" lon="-8.71143">
        <ele>174.14</ele>
        <time>2019-05-15T09:57:42Z</time>
      </trkpt>
      <trkpt lat="39.4675" lon="-8.71122">
        <ele>175.58</ele>
        <time>2019-05-15T09:57:58Z</time>
      </trkpt>
      <trkpt lat="39.46759" lon="-8.71097">
        <ele>175.58</ele>
        <time>2019-05-15T09:58:13Z</time>
      </trkpt>
      <trkpt lat="39.46765" lon="-8.71076">
        <ele>176.54</ele>
        <time>2019-05-15T09:58:26Z</time>
      </trkpt>
      <trkpt lat="39.46761" lon="-8.71074">
        <ele>177.02</ele>
        <time>2019-05-15T09:58:43Z</time>
      </trkpt>
      <trkpt lat="39.46766" lon="-8.71061">
        <ele>177.02</ele>
        <time>2019-05-15T09:59:00Z</time>
      </trkpt>
      <trkpt lat="39.46764" lon="-8.71062">
        <ele>177.5</ele>
        <time>2019-05-15T09:59:13Z</time>
      </trkpt>
      <trkpt lat="39.46763" lon="-8.71066">
        <ele>177.02</ele>
        <time>2019-05-15T09:59:16Z</time>
      </trkpt>
      <trkpt lat="39.46759" lon="-8.71076">
        <ele>176.06</ele>
        <time>2019-05-15T09:59:31Z</time>
      </trkpt>
      <trkpt lat="39.4676" lon="-8.71075">
        <ele>176.06</ele>
        <time>2019-05-15T10:00:05Z</time>
      </trkpt>
      <trkpt lat="39.46763" lon="-8.71073">
        <ele>176.54</ele>
        <time>2019-05-15T10:00:30Z</time>
      </trkpt>
      <trkpt lat="39.46764" lon="-8.71071">
        <ele>176.54</ele>
        <time>2019-05-15T10:00:32Z</time>
      </trkpt>
      <trkpt lat="39.46768" lon="-8.71062">
        <ele>177.02</ele>
        <time>2019-05-15T10:00:41Z</time>
      </trkpt>
      <trkpt lat="39.46775" lon="-8.71046">
        <ele>177.5</ele>
        <time>2019-05-15T10:00:55Z</time>
      </trkpt>
      <trkpt lat="39.46776" lon="-8.71044">
        <ele>177.5</ele>
        <time>2019-05-15T10:00:57Z</time>
      </trkpt>
      <trkpt lat="39.46787" lon="-8.71023">
        <ele>178.46</ele>
        <time>2019-05-15T10:01:14Z</time>
      </trkpt>
      <trkpt lat="39.46798" lon="-8.71005">
        <ele>179.42</ele>
        <time>2019-05-15T10:01:30Z</time>
      </trkpt>
      <trkpt lat="39.46807" lon="-8.70985">
        <ele>179.9</ele>
        <time>2019-05-15T10:01:45Z</time>
      </trkpt>
      <trkpt lat="39.46814" lon="-8.70972">
        <ele>180.38</ele>
        <time>2019-05-15T10:01:56Z</time>
      </trkpt>
      <trkpt lat="39.4682" lon="-8.70962">
        <ele>180.38</ele>
        <time>2019-05-15T10:02:06Z</time>
      </trkpt>
      <trkpt lat="39.4683" lon="-8.7095">
        <ele>180.87</ele>
        <time>2019-05-15T10:02:20Z</time>
      </trkpt>
      <trkpt lat="39.46842" lon="-8.70941">
        <ele>180.38</ele>
        <time>2019-05-15T10:02:35Z</time>
      </trkpt>
      <trkpt lat="39.46844" lon="-8.7094">
        <ele>181.83</ele>
        <time>2019-05-15T10:02:37Z</time>
      </trkpt>
      <trkpt lat="39.46858" lon="-8.70936">
        <ele>183.27</ele>
        <time>2019-05-15T10:02:52Z</time>
      </trkpt>
      <trkpt lat="39.46859" lon="-8.70935">
        <ele>182.79</ele>
        <time>2019-05-15T10:02:53Z</time>
      </trkpt>
      <trkpt lat="39.46876" lon="-8.70932">
        <ele>184.71</ele>
        <time>2019-05-15T10:03:09Z</time>
      </trkpt>
      <trkpt lat="39.4689" lon="-8.70931">
        <ele>185.19</ele>
        <time>2019-05-15T10:03:23Z</time>
      </trkpt>
      <trkpt lat="39.4691" lon="-8.70929">
        <ele>186.15</ele>
        <time>2019-05-15T10:03:41Z</time>
      </trkpt>
      <trkpt lat="39.46918" lon="-8.70924">
        <ele>187.59</ele>
        <time>2019-05-15T10:03:54Z</time>
      </trkpt>
      <trkpt lat="39.46919" lon="-8.70924">
        <ele>186.63</ele>
        <time>2019-05-15T10:03:56Z</time>
      </trkpt>
      <trkpt lat="39.46937" lon="-8.70925">
        <ele>187.11</ele>
        <time>2019-05-15T10:04:11Z</time>
      </trkpt>
      <trkpt lat="39.46955" lon="-8.70924">
        <ele>186.15</ele>
        <time>2019-05-15T10:04:27Z</time>
      </trkpt>
      <trkpt lat="39.46958" lon="-8.70924">
        <ele>188.08</ele>
        <time>2019-05-15T10:04:30Z</time>
      </trkpt>
      <trkpt lat="39.4698" lon="-8.70923">
        <ele>188.56</ele>
        <time>2019-05-15T10:04:48Z</time>
      </trkpt>
      <trkpt lat="39.46998" lon="-8.70921">
        <ele>188.56</ele>
        <time>2019-05-15T10:05:03Z</time>
      </trkpt>
      <trkpt lat="39.47015" lon="-8.70921">
        <ele>188.08</ele>
        <time>2019-05-15T10:05:17Z</time>
      </trkpt>
      <trkpt lat="39.47037" lon="-8.70918">
        <ele>189.52</ele>
        <time>2019-05-15T10:05:35Z</time>
      </trkpt>
      <trkpt lat="39.47058" lon="-8.70915">
        <ele>187.59</ele>
        <time>2019-05-15T10:05:52Z</time>
      </trkpt>
      <trkpt lat="39.47067" lon="-8.70908">
        <ele>188.08</ele>
        <time>2019-05-15T10:06:07Z</time>
      </trkpt>
      <trkpt lat="39.4708" lon="-8.70895">
        <ele>188.56</ele>
        <time>2019-05-15T10:06:23Z</time>
      </trkpt>
      <trkpt lat="39.47096" lon="-8.70883">
        <ele>189.52</ele>
        <time>2019-05-15T10:06:38Z</time>
      </trkpt>
      <trkpt lat="39.47112" lon="-8.7087">
        <ele>189.04</ele>
        <time>2019-05-15T10:06:54Z</time>
      </trkpt>
      <trkpt lat="39.47129" lon="-8.70855">
        <ele>189.04</ele>
        <time>2019-05-15T10:07:10Z</time>
      </trkpt>
      <trkpt lat="39.47146" lon="-8.70842">
        <ele>190</ele>
        <time>2019-05-15T10:07:26Z</time>
      </trkpt>
      <trkpt lat="39.47163" lon="-8.70828">
        <ele>188.08</ele>
        <time>2019-05-15T10:07:42Z</time>
      </trkpt>
      <trkpt lat="39.47181" lon="-8.70815">
        <ele>187.11</ele>
        <time>2019-05-15T10:07:58Z</time>
      </trkpt>
      <trkpt lat="39.47199" lon="-8.70802">
        <ele>185.19</ele>
        <time>2019-05-15T10:08:14Z</time>
      </trkpt>
      <trkpt lat="39.47218" lon="-8.7079">
        <ele>184.23</ele>
        <time>2019-05-15T10:08:31Z</time>
      </trkpt>
      <trkpt lat="39.47236" lon="-8.70776">
        <ele>183.27</ele>
        <time>2019-05-15T10:08:48Z</time>
      </trkpt>
      <trkpt lat="39.47248" lon="-8.70768">
        <ele>183.27</ele>
        <time>2019-05-15T10:09:05Z</time>
      </trkpt>
      <trkpt lat="39.47267" lon="-8.70756">
        <ele>185.19</ele>
        <time>2019-05-15T10:09:22Z</time>
      </trkpt>
      <trkpt lat="39.47271" lon="-8.70751">
        <ele>184.23</ele>
        <time>2019-05-15T10:09:35Z</time>
      </trkpt>
      <trkpt lat="39.47288" lon="-8.70738">
        <ele>183.75</ele>
        <time>2019-05-15T10:09:51Z</time>
      </trkpt>
      <trkpt lat="39.47305" lon="-8.70726">
        <ele>182.79</ele>
        <time>2019-05-15T10:10:07Z</time>
      </trkpt>
      <trkpt lat="39.47324" lon="-8.70712">
        <ele>180.87</ele>
        <time>2019-05-15T10:10:24Z</time>
      </trkpt>
      <trkpt lat="39.4734" lon="-8.70698">
        <ele>180.38</ele>
        <time>2019-05-15T10:10:40Z</time>
      </trkpt>
      <trkpt lat="39.47353" lon="-8.70683">
        <ele>179.9</ele>
        <time>2019-05-15T10:10:54Z</time>
      </trkpt>
      <trkpt lat="39.47354" lon="-8.70681">
        <ele>179.42</ele>
        <time>2019-05-15T10:10:56Z</time>
      </trkpt>
      <trkpt lat="39.47368" lon="-8.70666">
        <ele>180.38</ele>
        <time>2019-05-15T10:11:10Z</time>
      </trkpt>
      <trkpt lat="39.47383" lon="-8.70651">
        <ele>178.94</ele>
        <time>2019-05-15T10:11:24Z</time>
      </trkpt>
      <trkpt lat="39.47394" lon="-8.70635">
        <ele>178.46</ele>
        <time>2019-05-15T10:11:37Z</time>
      </trkpt>
      <trkpt lat="39.47409" lon="-8.70617">
        <ele>177.98</ele>
        <time>2019-05-15T10:11:54Z</time>
      </trkpt>
      <trkpt lat="39.47423" lon="-8.70602">
        <ele>178.46</ele>
        <time>2019-05-15T10:12:09Z</time>
      </trkpt>
      <trkpt lat="39.47441" lon="-8.70584">
        <ele>177.5</ele>
        <time>2019-05-15T10:12:26Z</time>
      </trkpt>
      <trkpt lat="39.47458" lon="-8.70567">
        <ele>176.54</ele>
        <time>2019-05-15T10:12:43Z</time>
      </trkpt>
      <trkpt lat="39.47476" lon="-8.70549">
        <ele>177.02</ele>
        <time>2019-05-15T10:13:01Z</time>
      </trkpt>
      <trkpt lat="39.47492" lon="-8.70534">
        <ele>176.06</ele>
        <time>2019-05-15T10:13:16Z</time>
      </trkpt>
      <trkpt lat="39.47507" lon="-8.70518">
        <ele>176.54</ele>
        <time>2019-05-15T10:13:32Z</time>
      </trkpt>
      <trkpt lat="39.47523" lon="-8.70503">
        <ele>177.98</ele>
        <time>2019-05-15T10:13:49Z</time>
      </trkpt>
      <trkpt lat="39.47538" lon="-8.70487">
        <ele>177.02</ele>
        <time>2019-05-15T10:14:04Z</time>
      </trkpt>
      <trkpt lat="39.47553" lon="-8.70469">
        <ele>176.54</ele>
        <time>2019-05-15T10:14:21Z</time>
      </trkpt>
      <trkpt lat="39.47564" lon="-8.70454">
        <ele>175.58</ele>
        <time>2019-05-15T10:14:34Z</time>
      </trkpt>
      <trkpt lat="39.47578" lon="-8.70436">
        <ele>175.58</ele>
        <time>2019-05-15T10:14:49Z</time>
      </trkpt>
      <trkpt lat="39.47592" lon="-8.7042">
        <ele>176.06</ele>
        <time>2019-05-15T10:15:04Z</time>
      </trkpt>
      <trkpt lat="39.47606" lon="-8.704">
        <ele>177.02</ele>
        <time>2019-05-15T10:15:21Z</time>
      </trkpt>
      <trkpt lat="39.47622" lon="-8.70379">
        <ele>177.02</ele>
        <time>2019-05-15T10:15:39Z</time>
      </trkpt>
      <trkpt lat="39.47637" lon="-8.7036">
        <ele>176.06</ele>
        <time>2019-05-15T10:15:55Z</time>
      </trkpt>
      <trkpt lat="39.47638" lon="-8.70359">
        <ele>175.58</ele>
        <time>2019-05-15T10:15:56Z</time>
      </trkpt>
      <trkpt lat="39.4764" lon="-8.70357">
        <ele>176.06</ele>
        <time>2019-05-15T10:15:58Z</time>
      </trkpt>
      <trkpt lat="39.47654" lon="-8.70337">
        <ele>176.06</ele>
        <time>2019-05-15T10:16:14Z</time>
      </trkpt>
      <trkpt lat="39.47669" lon="-8.70316">
        <ele>174.62</ele>
        <time>2019-05-15T10:16:31Z</time>
      </trkpt>
      <trkpt lat="39.47683" lon="-8.70299">
        <ele>177.02</ele>
        <time>2019-05-15T10:16:46Z</time>
      </trkpt>
      <trkpt lat="39.47684" lon="-8.70298">
        <ele>176.54</ele>
        <time>2019-05-15T10:16:47Z</time>
      </trkpt>
      <trkpt lat="39.47685" lon="-8.70296">
        <ele>175.58</ele>
        <time>2019-05-15T10:16:49Z</time>
      </trkpt>
      <trkpt lat="39.47698" lon="-8.70277">
        <ele>175.58</ele>
        <time>2019-05-15T10:17:06Z</time>
      </trkpt>
      <trkpt lat="39.47712" lon="-8.70261">
        <ele>176.06</ele>
        <time>2019-05-15T10:17:21Z</time>
      </trkpt>
      <trkpt lat="39.47722" lon="-8.70248">
        <ele>176.54</ele>
        <time>2019-05-15T10:17:32Z</time>
      </trkpt>
      <trkpt lat="39.4773" lon="-8.70235">
        <ele>177.02</ele>
        <time>2019-05-15T10:17:42Z</time>
      </trkpt>
      <trkpt lat="39.47743" lon="-8.70217">
        <ele>177.98</ele>
        <time>2019-05-15T10:17:58Z</time>
      </trkpt>
      <trkpt lat="39.47755" lon="-8.70204">
        <ele>178.94</ele>
        <time>2019-05-15T10:18:14Z</time>
      </trkpt>
      <trkpt lat="39.47763" lon="-8.70193">
        <ele>179.42</ele>
        <time>2019-05-15T10:18:28Z</time>
      </trkpt>
      <trkpt lat="39.47774" lon="-8.70178">
        <ele>180.38</ele>
        <time>2019-05-15T10:18:43Z</time>
      </trkpt>
      <trkpt lat="39.47787" lon="-8.70161">
        <ele>182.31</ele>
        <time>2019-05-15T10:18:59Z</time>
      </trkpt>
      <trkpt lat="39.47795" lon="-8.70152">
        <ele>182.79</ele>
        <time>2019-05-15T10:19:08Z</time>
      </trkpt>
      <trkpt lat="39.478" lon="-8.70145">
        <ele>183.27</ele>
        <time>2019-05-15T10:19:15Z</time>
      </trkpt>
      <trkpt lat="39.47813" lon="-8.70132">
        <ele>184.23</ele>
        <time>2019-05-15T10:19:29Z</time>
      </trkpt>
      <trkpt lat="39.47829" lon="-8.70114">
        <ele>183.27</ele>
        <time>2019-05-15T10:19:46Z</time>
      </trkpt>
      <trkpt lat="39.47843" lon="-8.70098">
        <ele>183.75</ele>
        <time>2019-05-15T10:20:00Z</time>
      </trkpt>
      <trkpt lat="39.47855" lon="-8.70082">
        <ele>184.23</ele>
        <time>2019-05-15T10:20:15Z</time>
      </trkpt>
      <trkpt lat="39.47856" lon="-8.70081">
        <ele>184.71</ele>
        <time>2019-05-15T10:20:16Z</time>
      </trkpt>
      <trkpt lat="39.47862" lon="-8.70075">
        <ele>184.23</ele>
        <time>2019-05-15T10:20:22Z</time>
      </trkpt>
      <trkpt lat="39.47873" lon="-8.70062">
        <ele>186.15</ele>
        <time>2019-05-15T10:20:35Z</time>
      </trkpt>
      <trkpt lat="39.47886" lon="-8.70045">
        <ele>186.63</ele>
        <time>2019-05-15T10:20:51Z</time>
      </trkpt>
      <trkpt lat="39.47896" lon="-8.70035">
        <ele>188.56</ele>
        <time>2019-05-15T10:21:01Z</time>
      </trkpt>
      <trkpt lat="39.47909" lon="-8.70022">
        <ele>189.04</ele>
        <time>2019-05-15T10:21:17Z</time>
      </trkpt>
      <trkpt lat="39.47917" lon="-8.70012">
        <ele>190.48</ele>
        <time>2019-05-15T10:21:27Z</time>
      </trkpt>
      <trkpt lat="39.47929" lon="-8.69996">
        <ele>191.44</ele>
        <time>2019-05-15T10:21:41Z</time>
      </trkpt>
      <trkpt lat="39.47944" lon="-8.6998">
        <ele>192.4</ele>
        <time>2019-05-15T10:21:57Z</time>
      </trkpt>
      <trkpt lat="39.47961" lon="-8.69968">
        <ele>193.84</ele>
        <time>2019-05-15T10:22:13Z</time>
      </trkpt>
      <trkpt lat="39.47978" lon="-8.69958">
        <ele>194.8</ele>
        <time>2019-05-15T10:22:30Z</time>
      </trkpt>
      <trkpt lat="39.47994" lon="-8.69951">
        <ele>196.25</ele>
        <time>2019-05-15T10:22:45Z</time>
      </trkpt>
      <trkpt lat="39.48009" lon="-8.69944">
        <ele>198.65</ele>
        <time>2019-05-15T10:22:59Z</time>
      </trkpt>
      <trkpt lat="39.48026" lon="-8.69935">
        <ele>199.13</ele>
        <time>2019-05-15T10:23:15Z</time>
      </trkpt>
      <trkpt lat="39.48039" lon="-8.69929">
        <ele>201.05</ele>
        <time>2019-05-15T10:23:28Z</time>
      </trkpt>
      <trkpt lat="39.48058" lon="-8.69921">
        <ele>202.49</ele>
        <time>2019-05-15T10:23:45Z</time>
      </trkpt>
      <trkpt lat="39.48074" lon="-8.69913">
        <ele>204.42</ele>
        <time>2019-05-15T10:24:01Z</time>
      </trkpt>
      <trkpt lat="39.48092" lon="-8.69905">
        <ele>203.46</ele>
        <time>2019-05-15T10:24:17Z</time>
      </trkpt>
      <trkpt lat="39.48108" lon="-8.69898">
        <ele>205.86</ele>
        <time>2019-05-15T10:24:33Z</time>
      </trkpt>
      <trkpt lat="39.48107" lon="-8.69897">
        <ele>206.34</ele>
        <time>2019-05-15T10:24:50Z</time>
      </trkpt>
      <trkpt lat="39.48107" lon="-8.69897">
        <ele>205.38</ele>
        <time>2019-05-15T10:25:12Z</time>
      </trkpt>
      <trkpt lat="39.48108" lon="-8.69899">
        <ele>205.38</ele>
        <time>2019-05-15T10:25:31Z</time>
      </trkpt>
      <trkpt lat="39.48111" lon="-8.69899">
        <ele>205.86</ele>
        <time>2019-05-15T10:25:53Z</time>
      </trkpt>
      <trkpt lat="39.48111" lon="-8.69894">
        <ele>205.38</ele>
        <time>2019-05-15T10:26:18Z</time>
      </trkpt>
      <trkpt lat="39.48126" lon="-8.69886">
        <ele>204.9</ele>
        <time>2019-05-15T10:26:31Z</time>
      </trkpt>
      <trkpt lat="39.48147" lon="-8.69877">
        <ele>205.86</ele>
        <time>2019-05-15T10:26:48Z</time>
      </trkpt>
      <trkpt lat="39.48165" lon="-8.69868">
        <ele>206.34</ele>
        <time>2019-05-15T10:27:04Z</time>
      </trkpt>
      <trkpt lat="39.48181" lon="-8.69858">
        <ele>207.78</ele>
        <time>2019-05-15T10:27:19Z</time>
      </trkpt>
      <trkpt lat="39.48196" lon="-8.69848">
        <ele>207.3</ele>
        <time>2019-05-15T10:27:32Z</time>
      </trkpt>
      <trkpt lat="39.48215" lon="-8.69835">
        <ele>207.3</ele>
        <time>2019-05-15T10:27:50Z</time>
      </trkpt>
      <trkpt lat="39.48231" lon="-8.69826">
        <ele>207.3</ele>
        <time>2019-05-15T10:28:04Z</time>
      </trkpt>
      <trkpt lat="39.48249" lon="-8.69814">
        <ele>208.26</ele>
        <time>2019-05-15T10:28:19Z</time>
      </trkpt>
      <trkpt lat="39.48267" lon="-8.69803">
        <ele>207.3</ele>
        <time>2019-05-15T10:28:36Z</time>
      </trkpt>
      <trkpt lat="39.48275" lon="-8.69798">
        <ele>206.82</ele>
        <time>2019-05-15T10:28:43Z</time>
      </trkpt>
      <trkpt lat="39.48293" lon="-8.69786">
        <ele>208.26</ele>
        <time>2019-05-15T10:28:59Z</time>
      </trkpt>
      <trkpt lat="39.48305" lon="-8.69778">
        <ele>208.74</ele>
        <time>2019-05-15T10:29:15Z</time>
      </trkpt>
      <trkpt lat="39.48308" lon="-8.69775">
        <ele>209.22</ele>
        <time>2019-05-15T10:29:19Z</time>
      </trkpt>
      <trkpt lat="39.48326" lon="-8.6976">
        <ele>208.74</ele>
        <time>2019-05-15T10:29:36Z</time>
      </trkpt>
      <trkpt lat="39.48341" lon="-8.69747">
        <ele>209.22</ele>
        <time>2019-05-15T10:29:52Z</time>
      </trkpt>
      <trkpt lat="39.48355" lon="-8.69731">
        <ele>208.74</ele>
        <time>2019-05-15T10:30:07Z</time>
      </trkpt>
      <trkpt lat="39.48374" lon="-8.69714">
        <ele>206.82</ele>
        <time>2019-05-15T10:30:25Z</time>
      </trkpt>
      <trkpt lat="39.48383" lon="-8.69705">
        <ele>205.86</ele>
        <time>2019-05-15T10:30:35Z</time>
      </trkpt>
      <trkpt lat="39.48398" lon="-8.69692">
        <ele>203.94</ele>
        <time>2019-05-15T10:30:49Z</time>
      </trkpt>
      <trkpt lat="39.48416" lon="-8.69677">
        <ele>202.49</ele>
        <time>2019-05-15T10:31:06Z</time>
      </trkpt>
      <trkpt lat="39.48417" lon="-8.69676">
        <ele>202.01</ele>
        <time>2019-05-15T10:31:07Z</time>
      </trkpt>
      <trkpt lat="39.48437" lon="-8.69668">
        <ele>199.61</ele>
        <time>2019-05-15T10:31:23Z</time>
      </trkpt>
      <trkpt lat="39.48442" lon="-8.69666">
        <ele>200.57</ele>
        <time>2019-05-15T10:31:27Z</time>
      </trkpt>
      <trkpt lat="39.48449" lon="-8.69663">
        <ele>199.61</ele>
        <time>2019-05-15T10:31:33Z</time>
      </trkpt>
      <trkpt lat="39.48453" lon="-8.69662">
        <ele>199.61</ele>
        <time>2019-05-15T10:31:37Z</time>
      </trkpt>
      <trkpt lat="39.48476" lon="-8.69664">
        <ele>197.21</ele>
        <time>2019-05-15T10:31:55Z</time>
      </trkpt>
      <trkpt lat="39.48492" lon="-8.6967">
        <ele>196.73</ele>
        <time>2019-05-15T10:32:08Z</time>
      </trkpt>
      <trkpt lat="39.48499" lon="-8.69674">
        <ele>197.69</ele>
        <time>2019-05-15T10:32:17Z</time>
      </trkpt>
      <trkpt lat="39.48506" lon="-8.69679">
        <ele>196.73</ele>
        <time>2019-05-15T10:32:24Z</time>
      </trkpt>
      <trkpt lat="39.48511" lon="-8.69681">
        <ele>196.25</ele>
        <time>2019-05-15T10:32:29Z</time>
      </trkpt>
      <trkpt lat="39.48529" lon="-8.69692">
        <ele>197.21</ele>
        <time>2019-05-15T10:32:44Z</time>
      </trkpt>
      <trkpt lat="39.48538" lon="-8.69697">
        <ele>197.21</ele>
        <time>2019-05-15T10:32:52Z</time>
      </trkpt>
      <trkpt lat="39.4854" lon="-8.69699">
        <ele>196.25</ele>
        <time>2019-05-15T10:32:54Z</time>
      </trkpt>
      <trkpt lat="39.4856" lon="-8.69711">
        <ele>194.8</ele>
        <time>2019-05-15T10:33:12Z</time>
      </trkpt>
      <trkpt lat="39.48573" lon="-8.69718">
        <ele>194.8</ele>
        <time>2019-05-15T10:33:23Z</time>
      </trkpt>
      <trkpt lat="39.48595" lon="-8.69731">
        <ele>193.36</ele>
        <time>2019-05-15T10:33:42Z</time>
      </trkpt>
      <trkpt lat="39.48608" lon="-8.69738">
        <ele>194.32</ele>
        <time>2019-05-15T10:33:55Z</time>
      </trkpt>
      <trkpt lat="39.4861" lon="-8.69739">
        <ele>193.84</ele>
        <time>2019-05-15T10:34:09Z</time>
      </trkpt>
      <trkpt lat="39.48612" lon="-8.69742">
        <ele>191.44</ele>
        <time>2019-05-15T10:34:11Z</time>
      </trkpt>
      <trkpt lat="39.48614" lon="-8.69742">
        <ele>190.96</ele>
        <time>2019-05-15T10:34:13Z</time>
      </trkpt>
      <trkpt lat="39.48618" lon="-8.69745">
        <ele>192.4</ele>
        <time>2019-05-15T10:34:19Z</time>
      </trkpt>
      <trkpt lat="39.48628" lon="-8.69753">
        <ele>190.48</ele>
        <time>2019-05-15T10:34:29Z</time>
      </trkpt>
      <trkpt lat="39.48646" lon="-8.69764">
        <ele>187.11</ele>
        <time>2019-05-15T10:34:45Z</time>
      </trkpt>
      <trkpt lat="39.48648" lon="-8.69765">
        <ele>187.11</ele>
        <time>2019-05-15T10:34:46Z</time>
      </trkpt>
      <trkpt lat="39.48665" lon="-8.69775">
        <ele>186.63</ele>
        <time>2019-05-15T10:35:01Z</time>
      </trkpt>
      <trkpt lat="39.4868" lon="-8.69785">
        <ele>185.19</ele>
        <time>2019-05-15T10:35:15Z</time>
      </trkpt>
      <trkpt lat="39.48696" lon="-8.69794">
        <ele>182.79</ele>
        <time>2019-05-15T10:35:28Z</time>
      </trkpt>
      <trkpt lat="39.48711" lon="-8.69801">
        <ele>180.87</ele>
        <time>2019-05-15T10:35:40Z</time>
      </trkpt>
      <trkpt lat="39.48719" lon="-8.69803">
        <ele>182.31</ele>
        <time>2019-05-15T10:35:53Z</time>
      </trkpt>
      <trkpt lat="39.48722" lon="-8.69805">
        <ele>180.87</ele>
        <time>2019-05-15T10:36:09Z</time>
      </trkpt>
      <trkpt lat="39.48724" lon="-8.69805">
        <ele>181.35</ele>
        <time>2019-05-15T10:36:29Z</time>
      </trkpt>
      <trkpt lat="39.48723" lon="-8.69804">
        <ele>181.35</ele>
        <time>2019-05-15T10:36:47Z</time>
      </trkpt>
      <trkpt lat="39.48725" lon="-8.69805">
        <ele>180.87</ele>
        <time>2019-05-15T10:37:06Z</time>
      </trkpt>
      <trkpt lat="39.48739" lon="-8.69808">
        <ele>178.94</ele>
        <time>2019-05-15T10:37:17Z</time>
      </trkpt>
      <trkpt lat="39.48754" lon="-8.69807">
        <ele>177.5</ele>
        <time>2019-05-15T10:37:28Z</time>
      </trkpt>
      <trkpt lat="39.48772" lon="-8.69805">
        <ele>175.58</ele>
        <time>2019-05-15T10:37:42Z</time>
      </trkpt>
      <trkpt lat="39.48781" lon="-8.69803">
        <ele>175.58</ele>
        <time>2019-05-15T10:37:49Z</time>
      </trkpt>
      <trkpt lat="39.48788" lon="-8.69802">
        <ele>173.17</ele>
        <time>2019-05-15T10:37:54Z</time>
      </trkpt>
      <trkpt lat="39.48804" lon="-8.69799">
        <ele>173.66</ele>
        <time>2019-05-15T10:38:07Z</time>
      </trkpt>
      <trkpt lat="39.48821" lon="-8.69796">
        <ele>172.69</ele>
        <time>2019-05-15T10:38:21Z</time>
      </trkpt>
      <trkpt lat="39.4884" lon="-8.69793">
        <ele>173.17</ele>
        <time>2019-05-15T10:38:35Z</time>
      </trkpt>
      <trkpt lat="39.48855" lon="-8.69791">
        <ele>172.21</ele>
        <time>2019-05-15T10:38:48Z</time>
      </trkpt>
      <trkpt lat="39.48874" lon="-8.69787">
        <ele>171.73</ele>
        <time>2019-05-15T10:39:03Z</time>
      </trkpt>
      <trkpt lat="39.48895" lon="-8.69784">
        <ele>170.29</ele>
        <time>2019-05-15T10:39:18Z</time>
      </trkpt>
      <trkpt lat="39.48913" lon="-8.6978">
        <ele>169.81</ele>
        <time>2019-05-15T10:39:32Z</time>
      </trkpt>
      <trkpt lat="39.48931" lon="-8.69774">
        <ele>168.37</ele>
        <time>2019-05-15T10:39:46Z</time>
      </trkpt>
      <trkpt lat="39.48932" lon="-8.69773">
        <ele>169.33</ele>
        <time>2019-05-15T10:39:47Z</time>
      </trkpt>
      <trkpt lat="39.4895" lon="-8.6976">
        <ele>168.37</ele>
        <time>2019-05-15T10:40:03Z</time>
      </trkpt>
      <trkpt lat="39.48962" lon="-8.69748">
        <ele>165.96</ele>
        <time>2019-05-15T10:40:15Z</time>
      </trkpt>
      <trkpt lat="39.48974" lon="-8.69729">
        <ele>165.48</ele>
        <time>2019-05-15T10:40:30Z</time>
      </trkpt>
      <trkpt lat="39.48985" lon="-8.69712">
        <ele>164.04</ele>
        <time>2019-05-15T10:40:44Z</time>
      </trkpt>
      <trkpt lat="39.48999" lon="-8.69691">
        <ele>161.64</ele>
        <time>2019-05-15T10:41:01Z</time>
      </trkpt>
      <trkpt lat="39.49013" lon="-8.6968">
        <ele>160.2</ele>
        <time>2019-05-15T10:41:13Z</time>
      </trkpt>
      <trkpt lat="39.49029" lon="-8.69671">
        <ele>158.75</ele>
        <time>2019-05-15T10:41:27Z</time>
      </trkpt>
      <trkpt lat="39.49049" lon="-8.69666">
        <ele>158.75</ele>
        <time>2019-05-15T10:41:43Z</time>
      </trkpt>
      <trkpt lat="39.49066" lon="-8.6966">
        <ele>159.24</ele>
        <time>2019-05-15T10:41:56Z</time>
      </trkpt>
      <trkpt lat="39.49083" lon="-8.69655">
        <ele>157.31</ele>
        <time>2019-05-15T10:42:10Z</time>
      </trkpt>
      <trkpt lat="39.49103" lon="-8.69647">
        <ele>157.31</ele>
        <time>2019-05-15T10:42:26Z</time>
      </trkpt>
      <trkpt lat="39.49118" lon="-8.6964">
        <ele>156.35</ele>
        <time>2019-05-15T10:42:40Z</time>
      </trkpt>
      <trkpt lat="39.49132" lon="-8.69634">
        <ele>154.91</ele>
        <time>2019-05-15T10:42:52Z</time>
      </trkpt>
      <trkpt lat="39.49136" lon="-8.69632">
        <ele>156.83</ele>
        <time>2019-05-15T10:43:12Z</time>
      </trkpt>
      <trkpt lat="39.49144" lon="-8.69629">
        <ele>155.87</ele>
        <time>2019-05-15T10:43:33Z</time>
      </trkpt>
      <trkpt lat="39.49144" lon="-8.69631">
        <ele>155.87</ele>
        <time>2019-05-15T10:43:52Z</time>
      </trkpt>
      <trkpt lat="39.49146" lon="-8.69629">
        <ele>155.39</ele>
        <time>2019-05-15T10:43:54Z</time>
      </trkpt>
      <trkpt lat="39.49154" lon="-8.69619">
        <ele>155.87</ele>
        <time>2019-05-15T10:44:07Z</time>
      </trkpt>
      <trkpt lat="39.49154" lon="-8.6962">
        <ele>155.87</ele>
        <time>2019-05-15T10:44:20Z</time>
      </trkpt>
      <trkpt lat="39.49173" lon="-8.69614">
        <ele>154.91</ele>
        <time>2019-05-15T10:44:36Z</time>
      </trkpt>
      <trkpt lat="39.4918" lon="-8.6961">
        <ele>155.39</ele>
        <time>2019-05-15T10:44:49Z</time>
      </trkpt>
      <trkpt lat="39.49183" lon="-8.69611">
        <ele>155.39</ele>
        <time>2019-05-15T10:44:55Z</time>
      </trkpt>
      <trkpt lat="39.49187" lon="-8.6961">
        <ele>154.43</ele>
        <time>2019-05-15T10:44:59Z</time>
      </trkpt>
      <trkpt lat="39.49203" lon="-8.69604">
        <ele>155.87</ele>
        <time>2019-05-15T10:45:13Z</time>
      </trkpt>
      <trkpt lat="39.49216" lon="-8.69601">
        <ele>155.87</ele>
        <time>2019-05-15T10:45:25Z</time>
      </trkpt>
      <trkpt lat="39.49224" lon="-8.69597">
        <ele>155.87</ele>
        <time>2019-05-15T10:45:32Z</time>
      </trkpt>
      <trkpt lat="39.4924" lon="-8.6959">
        <ele>156.35</ele>
        <time>2019-05-15T10:45:46Z</time>
      </trkpt>
      <trkpt lat="39.49254" lon="-8.69585">
        <ele>155.87</ele>
        <time>2019-05-15T10:45:58Z</time>
      </trkpt>
      <trkpt lat="39.49267" lon="-8.69576">
        <ele>155.87</ele>
        <time>2019-05-15T10:46:10Z</time>
      </trkpt>
      <trkpt lat="39.49283" lon="-8.69563">
        <ele>156.35</ele>
        <time>2019-05-15T10:46:26Z</time>
      </trkpt>
      <trkpt lat="39.49284" lon="-8.69563">
        <ele>156.83</ele>
        <time>2019-05-15T10:46:27Z</time>
      </trkpt>
      <trkpt lat="39.49299" lon="-8.6955">
        <ele>156.83</ele>
        <time>2019-05-15T10:46:42Z</time>
      </trkpt>
      <trkpt lat="39.49304" lon="-8.69544">
        <ele>156.35</ele>
        <time>2019-05-15T10:46:47Z</time>
      </trkpt>
      <trkpt lat="39.49315" lon="-8.69528">
        <ele>157.79</ele>
        <time>2019-05-15T10:47:01Z</time>
      </trkpt>
      <trkpt lat="39.49326" lon="-8.69514">
        <ele>158.27</ele>
        <time>2019-05-15T10:47:14Z</time>
      </trkpt>
      <trkpt lat="39.49337" lon="-8.69501">
        <ele>158.75</ele>
        <time>2019-05-15T10:47:27Z</time>
      </trkpt>
      <trkpt lat="39.49348" lon="-8.69487">
        <ele>158.75</ele>
        <time>2019-05-15T10:47:40Z</time>
      </trkpt>
      <trkpt lat="39.49354" lon="-8.69481">
        <ele>159.72</ele>
        <time>2019-05-15T10:47:46Z</time>
      </trkpt>
      <trkpt lat="39.49358" lon="-8.69477">
        <ele>159.72</ele>
        <time>2019-05-15T10:47:55Z</time>
      </trkpt>
      <trkpt lat="39.49359" lon="-8.69475">
        <ele>160.2</ele>
        <time>2019-05-15T10:47:57Z</time>
      </trkpt>
      <trkpt lat="39.49362" lon="-8.69471">
        <ele>159.72</ele>
        <time>2019-05-15T10:48:05Z</time>
      </trkpt>
      <trkpt lat="39.49366" lon="-8.69465">
        <ele>160.2</ele>
        <time>2019-05-15T10:48:11Z</time>
      </trkpt>
      <trkpt lat="39.49369" lon="-8.69465">
        <ele>161.16</ele>
        <time>2019-05-15T10:48:26Z</time>
      </trkpt>
      <trkpt lat="39.49369" lon="-8.69466">
        <ele>160.68</ele>
        <time>2019-05-15T10:48:27Z</time>
      </trkpt>
      <trkpt lat="39.49372" lon="-8.69473">
        <ele>161.64</ele>
        <time>2019-05-15T10:48:33Z</time>
      </trkpt>
      <trkpt lat="39.49374" lon="-8.69479">
        <ele>163.08</ele>
        <time>2019-05-15T10:48:47Z</time>
      </trkpt>
      <trkpt lat="39.49376" lon="-8.69486">
        <ele>163.08</ele>
        <time>2019-05-15T10:49:02Z</time>
      </trkpt>
      <trkpt lat="39.49381" lon="-8.69497">
        <ele>165.48</ele>
        <time>2019-05-15T10:49:16Z</time>
      </trkpt>
      <trkpt lat="39.49386" lon="-8.6951">
        <ele>167.41</ele>
        <time>2019-05-15T10:49:32Z</time>
      </trkpt>
      <trkpt lat="39.49386" lon="-8.69525">
        <ele>169.33</ele>
        <time>2019-05-15T10:49:47Z</time>
      </trkpt>
      <trkpt lat="39.49385" lon="-8.69531">
        <ele>169.81</ele>
        <time>2019-05-15T10:49:54Z</time>
      </trkpt>
      <trkpt lat="39.49382" lon="-8.69546">
        <ele>170.77</ele>
        <time>2019-05-15T10:50:06Z</time>
      </trkpt>
      <trkpt lat="39.49381" lon="-8.6956">
        <ele>172.69</ele>
        <time>2019-05-15T10:50:19Z</time>
      </trkpt>
      <trkpt lat="39.49384" lon="-8.69573">
        <ele>174.14</ele>
        <time>2019-05-15T10:50:31Z</time>
      </trkpt>
      <trkpt lat="39.49391" lon="-8.69584">
        <ele>175.1</ele>
        <time>2019-05-15T10:50:46Z</time>
      </trkpt>
      <trkpt lat="39.49395" lon="-8.69597">
        <ele>176.06</ele>
        <time>2019-05-15T10:51:01Z</time>
      </trkpt>
      <trkpt lat="39.49397" lon="-8.69609">
        <ele>178.94</ele>
        <time>2019-05-15T10:51:15Z</time>
      </trkpt>
      <trkpt lat="39.49398" lon="-8.69625">
        <ele>180.87</ele>
        <time>2019-05-15T10:51:30Z</time>
      </trkpt>
      <trkpt lat="39.49398" lon="-8.69637">
        <ele>182.31</ele>
        <time>2019-05-15T10:51:43Z</time>
      </trkpt>
      <trkpt lat="39.49399" lon="-8.69651">
        <ele>183.75</ele>
        <time>2019-05-15T10:51:58Z</time>
      </trkpt>
      <trkpt lat="39.494" lon="-8.69649">
        <ele>185.19</ele>
        <time>2019-05-15T10:52:01Z</time>
      </trkpt>
      <trkpt lat="39.49403" lon="-8.69661">
        <ele>185.19</ele>
        <time>2019-05-15T10:52:16Z</time>
      </trkpt>
      <trkpt lat="39.49411" lon="-8.6967">
        <ele>187.59</ele>
        <time>2019-05-15T10:52:32Z</time>
      </trkpt>
      <trkpt lat="39.49416" lon="-8.69672">
        <ele>189.04</ele>
        <time>2019-05-15T10:52:39Z</time>
      </trkpt>
      <trkpt lat="39.49426" lon="-8.69682">
        <ele>190.48</ele>
        <time>2019-05-15T10:52:55Z</time>
      </trkpt>
      <trkpt lat="39.49435" lon="-8.69692">
        <ele>191.92</ele>
        <time>2019-05-15T10:53:11Z</time>
      </trkpt>
      <trkpt lat="39.4944" lon="-8.69696">
        <ele>193.36</ele>
        <time>2019-05-15T10:53:19Z</time>
      </trkpt>
      <trkpt lat="39.49441" lon="-8.69697">
        <ele>193.84</ele>
        <time>2019-05-15T10:53:23Z</time>
      </trkpt>
      <trkpt lat="39.49447" lon="-8.69704">
        <ele>194.8</ele>
        <time>2019-05-15T10:53:36Z</time>
      </trkpt>
      <trkpt lat="39.4945" lon="-8.69715">
        <ele>195.77</ele>
        <time>2019-05-15T10:53:47Z</time>
      </trkpt>
      <trkpt lat="39.49456" lon="-8.69724">
        <ele>196.73</ele>
        <time>2019-05-15T10:53:56Z</time>
      </trkpt>
      <trkpt lat="39.49469" lon="-8.69729">
        <ele>197.69</ele>
        <time>2019-05-15T10:54:10Z</time>
      </trkpt>
      <trkpt lat="39.49482" lon="-8.6973">
        <ele>199.13</ele>
        <time>2019-05-15T10:54:24Z</time>
      </trkpt>
      <trkpt lat="39.49495" lon="-8.69731">
        <ele>201.05</ele>
        <time>2019-05-15T10:54:38Z</time>
      </trkpt>
      <trkpt lat="39.49508" lon="-8.6973">
        <ele>201.05</ele>
        <time>2019-05-15T10:54:49Z</time>
      </trkpt>
      <trkpt lat="39.49525" lon="-8.69724">
        <ele>202.98</ele>
        <time>2019-05-15T10:55:06Z</time>
      </trkpt>
      <trkpt lat="39.49537" lon="-8.69719">
        <ele>203.46</ele>
        <time>2019-05-15T10:55:18Z</time>
      </trkpt>
      <trkpt lat="39.49548" lon="-8.69711">
        <ele>204.42</ele>
        <time>2019-05-15T10:55:30Z</time>
      </trkpt>
      <trkpt lat="39.4955" lon="-8.69708">
        <ele>204.9</ele>
        <time>2019-05-15T10:55:35Z</time>
      </trkpt>
      <trkpt lat="39.49562" lon="-8.69707">
        <ele>207.3</ele>
        <time>2019-05-15T10:55:46Z</time>
      </trkpt>
      <trkpt lat="39.49575" lon="-8.69705">
        <ele>208.26</ele>
        <time>2019-05-15T10:55:59Z</time>
      </trkpt>
      <trkpt lat="39.49589" lon="-8.69703">
        <ele>208.74</ele>
        <time>2019-05-15T10:56:13Z</time>
      </trkpt>
      <trkpt lat="39.4959" lon="-8.69702">
        <ele>209.22</ele>
        <time>2019-05-15T10:56:14Z</time>
      </trkpt>
      <trkpt lat="39.49592" lon="-8.69705">
        <ele>210.19</ele>
        <time>2019-05-15T10:56:28Z</time>
      </trkpt>
      <trkpt lat="39.49591" lon="-8.69701">
        <ele>210.19</ele>
        <time>2019-05-15T10:56:47Z</time>
      </trkpt>
      <trkpt lat="39.49594" lon="-8.69699">
        <ele>210.19</ele>
        <time>2019-05-15T10:57:13Z</time>
      </trkpt>
      <trkpt lat="39.49596" lon="-8.69698">
        <ele>210.67</ele>
        <time>2019-05-15T10:57:29Z</time>
      </trkpt>
      <trkpt lat="39.49602" lon="-8.69692">
        <ele>211.15</ele>
        <time>2019-05-15T10:57:39Z</time>
      </trkpt>
      <trkpt lat="39.49615" lon="-8.69683">
        <ele>211.63</ele>
        <time>2019-05-15T10:57:53Z</time>
      </trkpt>
      <trkpt lat="39.49617" lon="-8.6968">
        <ele>211.63</ele>
        <time>2019-05-15T10:57:56Z</time>
      </trkpt>
      <trkpt lat="39.49629" lon="-8.69674">
        <ele>213.07</ele>
        <time>2019-05-15T10:58:09Z</time>
      </trkpt>
      <trkpt lat="39.49642" lon="-8.69667">
        <ele>214.99</ele>
        <time>2019-05-15T10:58:23Z</time>
      </trkpt>
      <trkpt lat="39.4965" lon="-8.69661">
        <ele>215.95</ele>
        <time>2019-05-15T10:58:33Z</time>
      </trkpt>
      <trkpt lat="39.49661" lon="-8.69655">
        <ele>215.95</ele>
        <time>2019-05-15T10:58:45Z</time>
      </trkpt>
      <trkpt lat="39.49669" lon="-8.69651">
        <ele>217.4</ele>
        <time>2019-05-15T10:58:54Z</time>
      </trkpt>
      <trkpt lat="39.49673" lon="-8.69649">
        <ele>217.88</ele>
        <time>2019-05-15T10:58:58Z</time>
      </trkpt>
      <trkpt lat="39.49688" lon="-8.6964">
        <ele>219.32</ele>
        <time>2019-05-15T10:59:14Z</time>
      </trkpt>
      <trkpt lat="39.497" lon="-8.69633">
        <ele>220.76</ele>
        <time>2019-05-15T10:59:27Z</time>
      </trkpt>
      <trkpt lat="39.49703" lon="-8.69631">
        <ele>221.72</ele>
        <time>2019-05-15T10:59:32Z</time>
      </trkpt>
      <trkpt lat="39.49707" lon="-8.69629">
        <ele>221.72</ele>
        <time>2019-05-15T10:59:36Z</time>
      </trkpt>
      <trkpt lat="39.49718" lon="-8.69623">
        <ele>223.16</ele>
        <time>2019-05-15T10:59:49Z</time>
      </trkpt>
      <trkpt lat="39.49723" lon="-8.69621">
        <ele>223.16</ele>
        <time>2019-05-15T10:59:55Z</time>
      </trkpt>
      <trkpt lat="39.49737" lon="-8.69616">
        <ele>225.09</ele>
        <time>2019-05-15T11:00:11Z</time>
      </trkpt>
      <trkpt lat="39.49748" lon="-8.69611">
        <ele>226.53</ele>
        <time>2019-05-15T11:00:23Z</time>
      </trkpt>
      <trkpt lat="39.49752" lon="-8.6961">
        <ele>227.01</ele>
        <time>2019-05-15T11:00:29Z</time>
      </trkpt>
      <trkpt lat="39.49765" lon="-8.69605">
        <ele>227.97</ele>
        <time>2019-05-15T11:00:42Z</time>
      </trkpt>
      <trkpt lat="39.49777" lon="-8.69602">
        <ele>228.93</ele>
        <time>2019-05-15T11:00:53Z</time>
      </trkpt>
      <trkpt lat="39.49779" lon="-8.69602">
        <ele>228.93</ele>
        <time>2019-05-15T11:00:56Z</time>
      </trkpt>
      <trkpt lat="39.49789" lon="-8.69599">
        <ele>230.85</ele>
        <time>2019-05-15T11:01:06Z</time>
      </trkpt>
      <trkpt lat="39.49795" lon="-8.69597">
        <ele>230.85</ele>
        <time>2019-05-15T11:01:13Z</time>
      </trkpt>
      <trkpt lat="39.49805" lon="-8.69595">
        <ele>233.26</ele>
        <time>2019-05-15T11:01:25Z</time>
      </trkpt>
      <trkpt lat="39.49816" lon="-8.69592">
        <ele>234.7</ele>
        <time>2019-05-15T11:01:37Z</time>
      </trkpt>
      <trkpt lat="39.49824" lon="-8.69589">
        <ele>236.62</ele>
        <time>2019-05-15T11:01:48Z</time>
      </trkpt>
      <trkpt lat="39.49832" lon="-8.69587">
        <ele>237.1</ele>
        <time>2019-05-15T11:02:04Z</time>
      </trkpt>
      <trkpt lat="39.49842" lon="-8.69583">
        <ele>239.02</ele>
        <time>2019-05-15T11:02:16Z</time>
      </trkpt>
      <trkpt lat="39.49854" lon="-8.69582">
        <ele>240.47</ele>
        <time>2019-05-15T11:02:30Z</time>
      </trkpt>
      <trkpt lat="39.49866" lon="-8.69587">
        <ele>242.87</ele>
        <time>2019-05-15T11:02:45Z</time>
      </trkpt>
      <trkpt lat="39.49867" lon="-8.6959">
        <ele>242.87</ele>
        <time>2019-05-15T11:02:51Z</time>
      </trkpt>
      <trkpt lat="39.4987" lon="-8.69596">
        <ele>243.35</ele>
        <time>2019-05-15T11:02:58Z</time>
      </trkpt>
      <trkpt lat="39.49873" lon="-8.69604">
        <ele>244.79</ele>
        <time>2019-05-15T11:03:06Z</time>
      </trkpt>
      <trkpt lat="39.49872" lon="-8.69609">
        <ele>245.27</ele>
        <time>2019-05-15T11:03:10Z</time>
      </trkpt>
      <trkpt lat="39.49874" lon="-8.69617">
        <ele>245.27</ele>
        <time>2019-05-15T11:03:24Z</time>
      </trkpt>
      <trkpt lat="39.49879" lon="-8.6962">
        <ele>245.27</ele>
        <time>2019-05-15T11:03:38Z</time>
      </trkpt>
      <trkpt lat="39.49888" lon="-8.69622">
        <ele>247.68</ele>
        <time>2019-05-15T11:03:55Z</time>
      </trkpt>
      <trkpt lat="39.49896" lon="-8.6963">
        <ele>249.12</ele>
        <time>2019-05-15T11:04:10Z</time>
      </trkpt>
      <trkpt lat="39.49904" lon="-8.69636">
        <ele>251.52</ele>
        <time>2019-05-15T11:04:25Z</time>
      </trkpt>
      <trkpt lat="39.49906" lon="-8.69639">
        <ele>251.52</ele>
        <time>2019-05-15T11:04:39Z</time>
      </trkpt>
      <trkpt lat="39.4991" lon="-8.69643">
        <ele>252.48</ele>
        <time>2019-05-15T11:05:00Z</time>
      </trkpt>
      <trkpt lat="39.49916" lon="-8.69647">
        <ele>253.44</ele>
        <time>2019-05-15T11:05:13Z</time>
      </trkpt>
      <trkpt lat="39.49924" lon="-8.69654">
        <ele>255.37</ele>
        <time>2019-05-15T11:05:29Z</time>
      </trkpt>
      <trkpt lat="39.49931" lon="-8.69658">
        <ele>256.33</ele>
        <time>2019-05-15T11:05:43Z</time>
      </trkpt>
      <trkpt lat="39.49936" lon="-8.69663">
        <ele>257.29</ele>
        <time>2019-05-15T11:05:58Z</time>
      </trkpt>
      <trkpt lat="39.49945" lon="-8.69666">
        <ele>259.69</ele>
        <time>2019-05-15T11:06:12Z</time>
      </trkpt>
      <trkpt lat="39.49957" lon="-8.69671">
        <ele>261.14</ele>
        <time>2019-05-15T11:06:30Z</time>
      </trkpt>
      <trkpt lat="39.49967" lon="-8.6968">
        <ele>263.06</ele>
        <time>2019-05-15T11:06:46Z</time>
      </trkpt>
      <trkpt lat="39.49972" lon="-8.69685">
        <ele>264.98</ele>
        <time>2019-05-15T11:07:00Z</time>
      </trkpt>
      <trkpt lat="39.49979" lon="-8.69683">
        <ele>265.46</ele>
        <time>2019-05-15T11:07:17Z</time>
      </trkpt>
      <trkpt lat="39.49987" lon="-8.69683">
        <ele>267.86</ele>
        <time>2019-05-15T11:07:32Z</time>
      </trkpt>
      <trkpt lat="39.49993" lon="-8.69683">
        <ele>269.79</ele>
        <time>2019-05-15T11:07:45Z</time>
      </trkpt>
      <trkpt lat="39.49995" lon="-8.6968">
        <ele>271.23</ele>
        <time>2019-05-15T11:08:03Z</time>
      </trkpt>
      <trkpt lat="39.50002" lon="-8.6968">
        <ele>272.19</ele>
        <time>2019-05-15T11:08:23Z</time>
      </trkpt>
      <trkpt lat="39.5001" lon="-8.69682">
        <ele>274.59</ele>
        <time>2019-05-15T11:08:39Z</time>
      </trkpt>
      <trkpt lat="39.50016" lon="-8.69689">
        <ele>276.52</ele>
        <time>2019-05-15T11:08:53Z</time>
      </trkpt>
      <trkpt lat="39.50022" lon="-8.69683">
        <ele>279.4</ele>
        <time>2019-05-15T11:09:06Z</time>
      </trkpt>
      <trkpt lat="39.50029" lon="-8.6968">
        <ele>280.36</ele>
        <time>2019-05-15T11:09:20Z</time>
      </trkpt>
      <trkpt lat="39.50035" lon="-8.69671">
        <ele>283.25</ele>
        <time>2019-05-15T11:09:36Z</time>
      </trkpt>
      <trkpt lat="39.50036" lon="-8.69667">
        <ele>283.25</ele>
        <time>2019-05-15T11:09:54Z</time>
      </trkpt>
      <trkpt lat="39.50036" lon="-8.69662">
        <ele>283.25</ele>
        <time>2019-05-15T11:10:16Z</time>
      </trkpt>
      <trkpt lat="39.50042" lon="-8.69655">
        <ele>286.13</ele>
        <time>2019-05-15T11:10:30Z</time>
      </trkpt>
      <trkpt lat="39.50046" lon="-8.69658">
        <ele>286.13</ele>
        <time>2019-05-15T11:10:45Z</time>
      </trkpt>
      <trkpt lat="39.50047" lon="-8.69659">
        <ele>289.97</ele>
        <time>2019-05-15T11:10:48Z</time>
      </trkpt>
      <trkpt lat="39.50047" lon="-8.69659">
        <ele>286.61</ele>
        <time>2019-05-15T11:10:49Z</time>
      </trkpt>
      <trkpt lat="39.50051" lon="-8.69663">
        <ele>289.01</ele>
        <time>2019-05-15T11:11:05Z</time>
      </trkpt>
      <trkpt lat="39.50049" lon="-8.69661">
        <ele>288.05</ele>
        <time>2019-05-15T11:11:29Z</time>
      </trkpt>
      <trkpt lat="39.50049" lon="-8.69658">
        <ele>289.01</ele>
        <time>2019-05-15T11:12:02Z</time>
      </trkpt>
      <trkpt lat="39.5005" lon="-8.69659">
        <ele>288.53</ele>
        <time>2019-05-15T11:12:38Z</time>
      </trkpt>
      <trkpt lat="39.50052" lon="-8.69661">
        <ele>288.53</ele>
        <time>2019-05-15T11:12:55Z</time>
      </trkpt>
      <trkpt lat="39.50057" lon="-8.69667">
        <ele>289.49</ele>
        <time>2019-05-15T11:13:08Z</time>
      </trkpt>
      <trkpt lat="39.5006" lon="-8.69677">
        <ele>290.46</ele>
        <time>2019-05-15T11:13:21Z</time>
      </trkpt>
      <trkpt lat="39.50068" lon="-8.69686">
        <ele>292.86</ele>
        <time>2019-05-15T11:13:36Z</time>
      </trkpt>
      <trkpt lat="39.50071" lon="-8.69693">
        <ele>294.78</ele>
        <time>2019-05-15T11:13:43Z</time>
      </trkpt>
      <trkpt lat="39.50077" lon="-8.69704">
        <ele>294.3</ele>
        <time>2019-05-15T11:13:55Z</time>
      </trkpt>
      <trkpt lat="39.50087" lon="-8.69709">
        <ele>296.7</ele>
        <time>2019-05-15T11:14:10Z</time>
      </trkpt>
      <trkpt lat="39.50093" lon="-8.6971">
        <ele>297.18</ele>
        <time>2019-05-15T11:14:29Z</time>
      </trkpt>
      <trkpt lat="39.50102" lon="-8.69707">
        <ele>298.63</ele>
        <time>2019-05-15T11:14:43Z</time>
      </trkpt>
      <trkpt lat="39.50108" lon="-8.69708">
        <ele>299.11</ele>
        <time>2019-05-15T11:15:10Z</time>
      </trkpt>
      <trkpt lat="39.5012" lon="-8.69704">
        <ele>300.07</ele>
        <time>2019-05-15T11:15:26Z</time>
      </trkpt>
      <trkpt lat="39.50132" lon="-8.69698">
        <ele>301.03</ele>
        <time>2019-05-15T11:15:40Z</time>
      </trkpt>
      <trkpt lat="39.5014" lon="-8.69698">
        <ele>302.95</ele>
        <time>2019-05-15T11:15:51Z</time>
      </trkpt>
      <trkpt lat="39.5015" lon="-8.69699">
        <ele>304.39</ele>
        <time>2019-05-15T11:16:03Z</time>
      </trkpt>
      <trkpt lat="39.50152" lon="-8.69699">
        <ele>304.39</ele>
        <time>2019-05-15T11:16:05Z</time>
      </trkpt>
      <trkpt lat="39.50164" lon="-8.69698">
        <ele>305.84</ele>
        <time>2019-05-15T11:16:20Z</time>
      </trkpt>
      <trkpt lat="39.50169" lon="-8.69696">
        <ele>305.84</ele>
        <time>2019-05-15T11:16:36Z</time>
      </trkpt>
      <trkpt lat="39.50171" lon="-8.69694">
        <ele>305.36</ele>
        <time>2019-05-15T11:16:58Z</time>
      </trkpt>
      <trkpt lat="39.50169" lon="-8.69693">
        <ele>305.36</ele>
        <time>2019-05-15T11:17:31Z</time>
      </trkpt>
      <trkpt lat="39.50169" lon="-8.69691">
        <ele>305.36</ele>
        <time>2019-05-15T11:18:02Z</time>
      </trkpt>
      <trkpt lat="39.50169" lon="-8.69691">
        <ele>305.36</ele>
        <time>2019-05-15T11:18:18Z</time>
      </trkpt>
      <trkpt lat="39.50169" lon="-8.69693">
        <ele>305.36</ele>
        <time>2019-05-15T11:18:53Z</time>
      </trkpt>
      <trkpt lat="39.50168" lon="-8.69681">
        <ele>304.39</ele>
        <time>2019-05-15T11:19:10Z</time>
      </trkpt>
      <trkpt lat="39.5017" lon="-8.69669">
        <ele>306.32</ele>
        <time>2019-05-15T11:19:24Z</time>
      </trkpt>
      <trkpt lat="39.50175" lon="-8.69663">
        <ele>308.24</ele>
        <time>2019-05-15T11:19:37Z</time>
      </trkpt>
      <trkpt lat="39.50182" lon="-8.6966">
        <ele>309.68</ele>
        <time>2019-05-15T11:19:50Z</time>
      </trkpt>
      <trkpt lat="39.50188" lon="-8.69658">
        <ele>310.16</ele>
        <time>2019-05-15T11:20:04Z</time>
      </trkpt>
      <trkpt lat="39.50198" lon="-8.69656">
        <ele>311.6</ele>
        <time>2019-05-15T11:20:19Z</time>
      </trkpt>
      <trkpt lat="39.50202" lon="-8.69654">
        <ele>312.57</ele>
        <time>2019-05-15T11:20:34Z</time>
      </trkpt>
      <trkpt lat="39.50211" lon="-8.6965">
        <ele>314.01</ele>
        <time>2019-05-15T11:20:49Z</time>
      </trkpt>
      <trkpt lat="39.50221" lon="-8.69647">
        <ele>315.93</ele>
        <time>2019-05-15T11:21:03Z</time>
      </trkpt>
      <trkpt lat="39.50229" lon="-8.69643">
        <ele>316.89</ele>
        <time>2019-05-15T11:21:20Z</time>
      </trkpt>
      <trkpt lat="39.50235" lon="-8.69634">
        <ele>318.81</ele>
        <time>2019-05-15T11:21:34Z</time>
      </trkpt>
      <trkpt lat="39.50243" lon="-8.69632">
        <ele>320.26</ele>
        <time>2019-05-15T11:21:46Z</time>
      </trkpt>
      <trkpt lat="39.50253" lon="-8.69628">
        <ele>320.74</ele>
        <time>2019-05-15T11:22:02Z</time>
      </trkpt>
      <trkpt lat="39.50262" lon="-8.69629">
        <ele>321.22</ele>
        <time>2019-05-15T11:22:16Z</time>
      </trkpt>
      <trkpt lat="39.50272" lon="-8.69629">
        <ele>321.7</ele>
        <time>2019-05-15T11:22:29Z</time>
      </trkpt>
      <trkpt lat="39.50284" lon="-8.69634">
        <ele>322.66</ele>
        <time>2019-05-15T11:22:43Z</time>
      </trkpt>
      <trkpt lat="39.50296" lon="-8.69638">
        <ele>324.1</ele>
        <time>2019-05-15T11:23:00Z</time>
      </trkpt>
      <trkpt lat="39.50304" lon="-8.6964">
        <ele>326.02</ele>
        <time>2019-05-15T11:23:16Z</time>
      </trkpt>
      <trkpt lat="39.50315" lon="-8.69641">
        <ele>326.99</ele>
        <time>2019-05-15T11:23:36Z</time>
      </trkpt>
      <trkpt lat="39.50326" lon="-8.69643">
        <ele>328.43</ele>
        <time>2019-05-15T11:23:50Z</time>
      </trkpt>
      <trkpt lat="39.50333" lon="-8.69643">
        <ele>329.87</ele>
        <time>2019-05-15T11:24:06Z</time>
      </trkpt>
      <trkpt lat="39.5034" lon="-8.69637">
        <ele>331.79</ele>
        <time>2019-05-15T11:24:20Z</time>
      </trkpt>
      <trkpt lat="39.50349" lon="-8.6963">
        <ele>333.23</ele>
        <time>2019-05-15T11:24:36Z</time>
      </trkpt>
      <trkpt lat="39.50353" lon="-8.69627">
        <ele>335.16</ele>
        <time>2019-05-15T11:24:53Z</time>
      </trkpt>
      <trkpt lat="39.5036" lon="-8.69628">
        <ele>334.68</ele>
        <time>2019-05-15T11:25:06Z</time>
      </trkpt>
      <trkpt lat="39.50354" lon="-8.69628">
        <ele>334.68</ele>
        <time>2019-05-15T11:25:25Z</time>
      </trkpt>
      <trkpt lat="39.50354" lon="-8.69628">
        <ele>334.2</ele>
        <time>2019-05-15T11:25:42Z</time>
      </trkpt>
      <trkpt lat="39.50356" lon="-8.69626">
        <ele>334.2</ele>
        <time>2019-05-15T11:26:21Z</time>
      </trkpt>
      <trkpt lat="39.50355" lon="-8.69629">
        <ele>334.2</ele>
        <time>2019-05-15T11:26:54Z</time>
      </trkpt>
      <trkpt lat="39.50355" lon="-8.6963">
        <ele>334.68</ele>
        <time>2019-05-15T11:27:22Z</time>
      </trkpt>
      <trkpt lat="39.50355" lon="-8.69629">
        <ele>334.68</ele>
        <time>2019-05-15T11:27:59Z</time>
      </trkpt>
      <trkpt lat="39.50355" lon="-8.6963">
        <ele>334.2</ele>
        <time>2019-05-15T11:28:28Z</time>
      </trkpt>
      <trkpt lat="39.50356" lon="-8.69629">
        <ele>334.68</ele>
        <time>2019-05-15T11:28:55Z</time>
      </trkpt>
      <trkpt lat="39.50355" lon="-8.69629">
        <ele>334.68</ele>
        <time>2019-05-15T11:29:18Z</time>
      </trkpt>
      <trkpt lat="39.50355" lon="-8.6963">
        <ele>337.56</ele>
        <time>2019-05-15T11:29:42Z</time>
      </trkpt>
      <trkpt lat="39.50361" lon="-8.69625">
        <ele>335.64</ele>
        <time>2019-05-15T11:29:57Z</time>
      </trkpt>
      <trkpt lat="39.50372" lon="-8.69625">
        <ele>338.52</ele>
        <time>2019-05-15T11:30:10Z</time>
      </trkpt>
      <trkpt lat="39.50385" lon="-8.69626">
        <ele>340.44</ele>
        <time>2019-05-15T11:30:27Z</time>
      </trkpt>
      <trkpt lat="39.50395" lon="-8.69626">
        <ele>342.85</ele>
        <time>2019-05-15T11:30:43Z</time>
      </trkpt>
      <trkpt lat="39.50403" lon="-8.69627">
        <ele>344.29</ele>
        <time>2019-05-15T11:30:57Z</time>
      </trkpt>
      <trkpt lat="39.5041" lon="-8.69623">
        <ele>345.73</ele>
        <time>2019-05-15T11:31:10Z</time>
      </trkpt>
      <trkpt lat="39.50411" lon="-8.69623">
        <ele>345.73</ele>
        <time>2019-05-15T11:31:11Z</time>
      </trkpt>
      <trkpt lat="39.50419" lon="-8.69621">
        <ele>348.13</ele>
        <time>2019-05-15T11:31:25Z</time>
      </trkpt>
      <trkpt lat="39.50422" lon="-8.69622">
        <ele>348.62</ele>
        <time>2019-05-15T11:31:41Z</time>
      </trkpt>
      <trkpt lat="39.50427" lon="-8.69618">
        <ele>349.1</ele>
        <time>2019-05-15T11:31:58Z</time>
      </trkpt>
      <trkpt lat="39.50437" lon="-8.69613">
        <ele>351.02</ele>
        <time>2019-05-15T11:32:13Z</time>
      </trkpt>
      <trkpt lat="39.50448" lon="-8.69608">
        <ele>354.38</ele>
        <time>2019-05-15T11:32:31Z</time>
      </trkpt>
      <trkpt lat="39.50457" lon="-8.69606">
        <ele>354.86</ele>
        <time>2019-05-15T11:32:44Z</time>
      </trkpt>
      <trkpt lat="39.50464" lon="-8.69602">
        <ele>355.83</ele>
        <time>2019-05-15T11:32:57Z</time>
      </trkpt>
      <trkpt lat="39.50466" lon="-8.69604">
        <ele>357.75</ele>
        <time>2019-05-15T11:33:19Z</time>
      </trkpt>
      <trkpt lat="39.50469" lon="-8.69605">
        <ele>357.27</ele>
        <time>2019-05-15T11:33:46Z</time>
      </trkpt>
      <trkpt lat="39.50475" lon="-8.69598">
        <ele>358.71</ele>
        <time>2019-05-15T11:33:58Z</time>
      </trkpt>
      <trkpt lat="39.50479" lon="-8.69593">
        <ele>361.11</ele>
        <time>2019-05-15T11:34:14Z</time>
      </trkpt>
      <trkpt lat="39.50484" lon="-8.6959">
        <ele>361.59</ele>
        <time>2019-05-15T11:34:27Z</time>
      </trkpt>
      <trkpt lat="39.5049" lon="-8.69587">
        <ele>364.96</ele>
        <time>2019-05-15T11:34:40Z</time>
      </trkpt>
      <trkpt lat="39.50498" lon="-8.69587">
        <ele>365.44</ele>
        <time>2019-05-15T11:34:54Z</time>
      </trkpt>
      <trkpt lat="39.50504" lon="-8.69586">
        <ele>367.84</ele>
        <time>2019-05-15T11:35:14Z</time>
      </trkpt>
      <trkpt lat="39.50513" lon="-8.69585">
        <ele>369.28</ele>
        <time>2019-05-15T11:35:29Z</time>
      </trkpt>
      <trkpt lat="39.50519" lon="-8.69583">
        <ele>371.21</ele>
        <time>2019-05-15T11:35:45Z</time>
      </trkpt>
      <trkpt lat="39.50527" lon="-8.69578">
        <ele>373.13</ele>
        <time>2019-05-15T11:35:59Z</time>
      </trkpt>
      <trkpt lat="39.50535" lon="-8.69576">
        <ele>374.09</ele>
        <time>2019-05-15T11:36:13Z</time>
      </trkpt>
      <trkpt lat="39.50544" lon="-8.69573">
        <ele>375.53</ele>
        <time>2019-05-15T11:36:28Z</time>
      </trkpt>
      <trkpt lat="39.50545" lon="-8.69572">
        <ele>376.49</ele>
        <time>2019-05-15T11:36:31Z</time>
      </trkpt>
      <trkpt lat="39.50553" lon="-8.69567">
        <ele>377.94</ele>
        <time>2019-05-15T11:36:50Z</time>
      </trkpt>
      <trkpt lat="39.50563" lon="-8.69566">
        <ele>379.86</ele>
        <time>2019-05-15T11:37:07Z</time>
      </trkpt>
      <trkpt lat="39.50569" lon="-8.69559">
        <ele>382.26</ele>
        <time>2019-05-15T11:37:20Z</time>
      </trkpt>
      <trkpt lat="39.50573" lon="-8.69554">
        <ele>382.74</ele>
        <time>2019-05-15T11:37:35Z</time>
      </trkpt>
      <trkpt lat="39.50579" lon="-8.69544">
        <ele>385.63</ele>
        <time>2019-05-15T11:37:51Z</time>
      </trkpt>
      <trkpt lat="39.50579" lon="-8.69542">
        <ele>385.15</ele>
        <time>2019-05-15T11:37:53Z</time>
      </trkpt>
      <trkpt lat="39.50582" lon="-8.6953">
        <ele>387.07</ele>
        <time>2019-05-15T11:38:07Z</time>
      </trkpt>
      <trkpt lat="39.50584" lon="-8.69524">
        <ele>388.51</ele>
        <time>2019-05-15T11:38:25Z</time>
      </trkpt>
      <trkpt lat="39.50588" lon="-8.69513">
        <ele>390.91</ele>
        <time>2019-05-15T11:38:40Z</time>
      </trkpt>
      <trkpt lat="39.50591" lon="-8.69509">
        <ele>391.39</ele>
        <time>2019-05-15T11:38:45Z</time>
      </trkpt>
      <trkpt lat="39.5059" lon="-8.69497">
        <ele>392.36</ele>
        <time>2019-05-15T11:38:59Z</time>
      </trkpt>
      <trkpt lat="39.50594" lon="-8.69485">
        <ele>392.84</ele>
        <time>2019-05-15T11:39:12Z</time>
      </trkpt>
      <trkpt lat="39.50601" lon="-8.69478">
        <ele>394.28</ele>
        <time>2019-05-15T11:39:24Z</time>
      </trkpt>
      <trkpt lat="39.50608" lon="-8.69466">
        <ele>396.2</ele>
        <time>2019-05-15T11:39:38Z</time>
      </trkpt>
      <trkpt lat="39.50618" lon="-8.6946">
        <ele>395.24</ele>
        <time>2019-05-15T11:39:48Z</time>
      </trkpt>
      <trkpt lat="39.50635" lon="-8.69454">
        <ele>395.72</ele>
        <time>2019-05-15T11:40:03Z</time>
      </trkpt>
      <trkpt lat="39.50643" lon="-8.69454">
        <ele>394.76</ele>
        <time>2019-05-15T11:40:12Z</time>
      </trkpt>
      <trkpt lat="39.50653" lon="-8.69454">
        <ele>396.2</ele>
        <time>2019-05-15T11:40:25Z</time>
      </trkpt>
      <trkpt lat="39.50666" lon="-8.69452">
        <ele>395.72</ele>
        <time>2019-05-15T11:40:38Z</time>
      </trkpt>
      <trkpt lat="39.5067" lon="-8.6945">
        <ele>394.76</ele>
        <time>2019-05-15T11:40:44Z</time>
      </trkpt>
      <trkpt lat="39.50681" lon="-8.69446">
        <ele>395.72</ele>
        <time>2019-05-15T11:40:57Z</time>
      </trkpt>
      <trkpt lat="39.5069" lon="-8.69441">
        <ele>394.28</ele>
        <time>2019-05-15T11:41:08Z</time>
      </trkpt>
      <trkpt lat="39.50696" lon="-8.69436">
        <ele>394.76</ele>
        <time>2019-05-15T11:41:17Z</time>
      </trkpt>
      <trkpt lat="39.50707" lon="-8.69432">
        <ele>394.28</ele>
        <time>2019-05-15T11:41:29Z</time>
      </trkpt>
      <trkpt lat="39.50712" lon="-8.69433">
        <ele>393.8</ele>
        <time>2019-05-15T11:41:34Z</time>
      </trkpt>
      <trkpt lat="39.50724" lon="-8.6943">
        <ele>393.32</ele>
        <time>2019-05-15T11:41:48Z</time>
      </trkpt>
      <trkpt lat="39.50734" lon="-8.69425">
        <ele>394.76</ele>
        <time>2019-05-15T11:42:02Z</time>
      </trkpt>
      <trkpt lat="39.50738" lon="-8.69417">
        <ele>395.24</ele>
        <time>2019-05-15T11:42:13Z</time>
      </trkpt>
      <trkpt lat="39.50739" lon="-8.69416">
        <ele>394.28</ele>
        <time>2019-05-15T11:42:32Z</time>
      </trkpt>
      <trkpt lat="39.50738" lon="-8.69415">
        <ele>394.76</ele>
        <time>2019-05-15T11:43:07Z</time>
      </trkpt>
      <trkpt lat="39.50739" lon="-8.69415">
        <ele>395.72</ele>
        <time>2019-05-15T11:43:52Z</time>
      </trkpt>
      <trkpt lat="39.50738" lon="-8.69415">
        <ele>395.72</ele>
        <time>2019-05-15T11:44:27Z</time>
      </trkpt>
      <trkpt lat="39.50739" lon="-8.69416">
        <ele>395.72</ele>
        <time>2019-05-15T11:45:03Z</time>
      </trkpt>
      <trkpt lat="39.5074" lon="-8.69417">
        <ele>396.2</ele>
        <time>2019-05-15T11:45:48Z</time>
      </trkpt>
      <trkpt lat="39.5074" lon="-8.69417">
        <ele>396.2</ele>
        <time>2019-05-15T11:46:35Z</time>
      </trkpt>
      <trkpt lat="39.5074" lon="-8.69417">
        <ele>395.72</ele>
        <time>2019-05-15T11:47:20Z</time>
      </trkpt>
      <trkpt lat="39.5074" lon="-8.69419">
        <ele>395.72</ele>
        <time>2019-05-15T11:48:03Z</time>
      </trkpt>
      <trkpt lat="39.50738" lon="-8.69417">
        <ele>396.2</ele>
        <time>2019-05-15T11:48:35Z</time>
      </trkpt>
      <trkpt lat="39.50737" lon="-8.69416">
        <ele>396.2</ele>
        <time>2019-05-15T11:49:23Z</time>
      </trkpt>
      <trkpt lat="39.50735" lon="-8.69413">
        <ele>396.2</ele>
        <time>2019-05-15T11:50:05Z</time>
      </trkpt>
      <trkpt lat="39.50737" lon="-8.69415">
        <ele>397.16</ele>
        <time>2019-05-15T11:50:39Z</time>
      </trkpt>
      <trkpt lat="39.50738" lon="-8.69414">
        <ele>396.68</ele>
        <time>2019-05-15T11:51:22Z</time>
      </trkpt>
      <trkpt lat="39.50738" lon="-8.69416">
        <ele>396.2</ele>
        <time>2019-05-15T11:52:01Z</time>
      </trkpt>
      <trkpt lat="39.50736" lon="-8.69417">
        <ele>396.2</ele>
        <time>2019-05-15T11:52:37Z</time>
      </trkpt>
      <trkpt lat="39.50737" lon="-8.69419">
        <ele>396.68</ele>
        <time>2019-05-15T11:53:13Z</time>
      </trkpt>
      <trkpt lat="39.50739" lon="-8.69419">
        <ele>396.2</ele>
        <time>2019-05-15T11:53:53Z</time>
      </trkpt>
      <trkpt lat="39.50738" lon="-8.69417">
        <ele>396.68</ele>
        <time>2019-05-15T11:54:27Z</time>
      </trkpt>
      <trkpt lat="39.50735" lon="-8.69415">
        <ele>397.16</ele>
        <time>2019-05-15T11:54:53Z</time>
      </trkpt>
      <trkpt lat="39.50736" lon="-8.69417">
        <ele>396.68</ele>
        <time>2019-05-15T11:55:22Z</time>
      </trkpt>
      <trkpt lat="39.50733" lon="-8.69417">
        <ele>396.68</ele>
        <time>2019-05-15T11:55:56Z</time>
      </trkpt>
      <trkpt lat="39.50735" lon="-8.69416">
        <ele>397.16</ele>
        <time>2019-05-15T11:56:47Z</time>
      </trkpt>
      <trkpt lat="39.50736" lon="-8.69417">
        <ele>396.68</ele>
        <time>2019-05-15T11:57:32Z</time>
      </trkpt>
      <trkpt lat="39.50737" lon="-8.69416">
        <ele>398.12</ele>
        <time>2019-05-15T11:58:09Z</time>
      </trkpt>
      <trkpt lat="39.50738" lon="-8.69416">
        <ele>396.68</ele>
        <time>2019-05-15T11:58:54Z</time>
      </trkpt>
      <trkpt lat="39.50737" lon="-8.69416">
        <ele>396.68</ele>
        <time>2019-05-15T11:59:11Z</time>
      </trkpt>
      <trkpt lat="39.50737" lon="-8.69416">
        <ele>397.64</ele>
        <time>2019-05-15T11:59:29Z</time>
      </trkpt>
      <trkpt lat="39.50738" lon="-8.69418">
        <ele>398.12</ele>
        <time>2019-05-15T11:59:55Z</time>
      </trkpt>
      <trkpt lat="39.50739" lon="-8.69424">
        <ele>397.64</ele>
        <time>2019-05-15T12:00:12Z</time>
      </trkpt>
      <trkpt lat="39.50739" lon="-8.69425">
        <ele>397.64</ele>
        <time>2019-05-15T12:00:34Z</time>
      </trkpt>
      <trkpt lat="39.5074" lon="-8.69415">
        <ele>398.6</ele>
        <time>2019-05-15T12:00:50Z</time>
      </trkpt>
      <trkpt lat="39.50741" lon="-8.69413">
        <ele>398.12</ele>
        <time>2019-05-15T12:00:52Z</time>
      </trkpt>
      <trkpt lat="39.50746" lon="-8.69408">
        <ele>398.6</ele>
        <time>2019-05-15T12:00:58Z</time>
      </trkpt>
      <trkpt lat="39.50749" lon="-8.69395">
        <ele>398.6</ele>
        <time>2019-05-15T12:01:09Z</time>
      </trkpt>
      <trkpt lat="39.50748" lon="-8.69383">
        <ele>399.08</ele>
        <time>2019-05-15T12:01:18Z</time>
      </trkpt>
      <trkpt lat="39.50745" lon="-8.69381">
        <ele>399.08</ele>
        <time>2019-05-15T12:01:21Z</time>
      </trkpt>
      <trkpt lat="39.50737" lon="-8.69359">
        <ele>400.05</ele>
        <time>2019-05-15T12:01:38Z</time>
      </trkpt>
      <trkpt lat="39.50733" lon="-8.69349">
        <ele>400.53</ele>
        <time>2019-05-15T12:01:46Z</time>
      </trkpt>
      <trkpt lat="39.50726" lon="-8.6933">
        <ele>400.05</ele>
        <time>2019-05-15T12:02:00Z</time>
      </trkpt>
      <trkpt lat="39.50716" lon="-8.69309">
        <ele>400.05</ele>
        <time>2019-05-15T12:02:16Z</time>
      </trkpt>
      <trkpt lat="39.50714" lon="-8.69301">
        <ele>398.6</ele>
        <time>2019-05-15T12:02:22Z</time>
      </trkpt>
      <trkpt lat="39.50716" lon="-8.69296">
        <ele>398.6</ele>
        <time>2019-05-15T12:02:35Z</time>
      </trkpt>
      <trkpt lat="39.50716" lon="-8.69294">
        <ele>397.16</ele>
        <time>2019-05-15T12:02:50Z</time>
      </trkpt>
      <trkpt lat="39.50717" lon="-8.69294">
        <ele>398.6</ele>
        <time>2019-05-15T12:02:54Z</time>
      </trkpt>
      <trkpt lat="39.50717" lon="-8.69292">
        <ele>396.68</ele>
        <time>2019-05-15T12:03:01Z</time>
      </trkpt>
      <trkpt lat="39.50716" lon="-8.69292">
        <ele>398.6</ele>
        <time>2019-05-15T12:03:02Z</time>
      </trkpt>
      <trkpt lat="39.5071" lon="-8.69286">
        <ele>398.6</ele>
        <time>2019-05-15T12:03:09Z</time>
      </trkpt>
      <trkpt lat="39.507" lon="-8.69267">
        <ele>397.64</ele>
        <time>2019-05-15T12:03:24Z</time>
      </trkpt>
      <trkpt lat="39.50698" lon="-8.69261">
        <ele>397.16</ele>
        <time>2019-05-15T12:03:28Z</time>
      </trkpt>
      <trkpt lat="39.50691" lon="-8.69243">
        <ele>396.68</ele>
        <time>2019-05-15T12:03:40Z</time>
      </trkpt>
      <trkpt lat="39.50686" lon="-8.6922">
        <ele>394.76</ele>
        <time>2019-05-15T12:03:56Z</time>
      </trkpt>
      <trkpt lat="39.50687" lon="-8.6922">
        <ele>395.72</ele>
        <time>2019-05-15T12:03:58Z</time>
      </trkpt>
      <trkpt lat="39.50683" lon="-8.69207">
        <ele>394.28</ele>
        <time>2019-05-15T12:04:12Z</time>
      </trkpt>
      <trkpt lat="39.50682" lon="-8.69203">
        <ele>394.28</ele>
        <time>2019-05-15T12:04:15Z</time>
      </trkpt>
      <trkpt lat="39.50683" lon="-8.69192">
        <ele>393.32</ele>
        <time>2019-05-15T12:04:29Z</time>
      </trkpt>
      <trkpt lat="39.50683" lon="-8.69188">
        <ele>392.84</ele>
        <time>2019-05-15T12:04:47Z</time>
      </trkpt>
      <trkpt lat="39.50677" lon="-8.69171">
        <ele>392.36</ele>
        <time>2019-05-15T12:04:59Z</time>
      </trkpt>
      <trkpt lat="39.50674" lon="-8.69149">
        <ele>390.91</ele>
        <time>2019-05-15T12:05:13Z</time>
      </trkpt>
      <trkpt lat="39.50672" lon="-8.69129">
        <ele>389.47</ele>
        <time>2019-05-15T12:05:27Z</time>
      </trkpt>
      <trkpt lat="39.50667" lon="-8.69113">
        <ele>388.03</ele>
        <time>2019-05-15T12:05:38Z</time>
      </trkpt>
      <trkpt lat="39.5067" lon="-8.69105">
        <ele>387.55</ele>
        <time>2019-05-15T12:05:47Z</time>
      </trkpt>
      <trkpt lat="39.50665" lon="-8.69083">
        <ele>385.15</ele>
        <time>2019-05-15T12:06:03Z</time>
      </trkpt>
      <trkpt lat="39.50665" lon="-8.6907">
        <ele>384.18</ele>
        <time>2019-05-15T12:06:16Z</time>
      </trkpt>
      <trkpt lat="39.50667" lon="-8.69058">
        <ele>383.7</ele>
        <time>2019-05-15T12:06:30Z</time>
      </trkpt>
      <trkpt lat="39.50663" lon="-8.69048">
        <ele>381.3</ele>
        <time>2019-05-15T12:06:39Z</time>
      </trkpt>
      <trkpt lat="39.50663" lon="-8.69046">
        <ele>381.78</ele>
        <time>2019-05-15T12:06:40Z</time>
      </trkpt>
      <trkpt lat="39.5066" lon="-8.69033">
        <ele>380.34</ele>
        <time>2019-05-15T12:06:49Z</time>
      </trkpt>
      <trkpt lat="39.50659" lon="-8.69031">
        <ele>380.82</ele>
        <time>2019-05-15T12:06:51Z</time>
      </trkpt>
      <trkpt lat="39.50659" lon="-8.69024">
        <ele>379.38</ele>
        <time>2019-05-15T12:06:55Z</time>
      </trkpt>
      <trkpt lat="39.50656" lon="-8.68996">
        <ele>377.45</ele>
        <time>2019-05-15T12:07:11Z</time>
      </trkpt>
      <trkpt lat="39.50655" lon="-8.68972">
        <ele>375.05</ele>
        <time>2019-05-15T12:07:26Z</time>
      </trkpt>
      <trkpt lat="39.50654" lon="-8.68963">
        <ele>374.57</ele>
        <time>2019-05-15T12:07:31Z</time>
      </trkpt>
      <trkpt lat="39.5065" lon="-8.6894">
        <ele>371.69</ele>
        <time>2019-05-15T12:07:46Z</time>
      </trkpt>
      <trkpt lat="39.50646" lon="-8.68917">
        <ele>369.76</ele>
        <time>2019-05-15T12:08:00Z</time>
      </trkpt>
      <trkpt lat="39.50644" lon="-8.68894">
        <ele>367.36</ele>
        <time>2019-05-15T12:08:15Z</time>
      </trkpt>
      <trkpt lat="39.5064" lon="-8.68879">
        <ele>366.88</ele>
        <time>2019-05-15T12:08:27Z</time>
      </trkpt>
      <trkpt lat="39.50635" lon="-8.68862">
        <ele>364.96</ele>
        <time>2019-05-15T12:08:40Z</time>
      </trkpt>
      <trkpt lat="39.50635" lon="-8.68858">
        <ele>364.48</ele>
        <time>2019-05-15T12:08:43Z</time>
      </trkpt>
      <trkpt lat="39.50631" lon="-8.68836">
        <ele>362.55</ele>
        <time>2019-05-15T12:08:57Z</time>
      </trkpt>
      <trkpt lat="39.50629" lon="-8.68816">
        <ele>360.63</ele>
        <time>2019-05-15T12:09:10Z</time>
      </trkpt>
      <trkpt lat="39.50626" lon="-8.68792">
        <ele>357.75</ele>
        <time>2019-05-15T12:09:25Z</time>
      </trkpt>
      <trkpt lat="39.50629" lon="-8.68768">
        <ele>356.31</ele>
        <time>2019-05-15T12:09:38Z</time>
      </trkpt>
      <trkpt lat="39.50629" lon="-8.68766">
        <ele>356.31</ele>
        <time>2019-05-15T12:09:39Z</time>
      </trkpt>
      <trkpt lat="39.50625" lon="-8.68735">
        <ele>353.42</ele>
        <time>2019-05-15T12:09:56Z</time>
      </trkpt>
      <trkpt lat="39.50623" lon="-8.68713">
        <ele>351.98</ele>
        <time>2019-05-15T12:10:09Z</time>
      </trkpt>
      <trkpt lat="39.50622" lon="-8.6871">
        <ele>351.02</ele>
        <time>2019-05-15T12:10:23Z</time>
      </trkpt>
      <trkpt lat="39.50623" lon="-8.68712">
        <ele>351.5</ele>
        <time>2019-05-15T12:10:49Z</time>
      </trkpt>
      <trkpt lat="39.50625" lon="-8.68711">
        <ele>351.98</ele>
        <time>2019-05-15T12:11:21Z</time>
      </trkpt>
      <trkpt lat="39.50619" lon="-8.68693">
        <ele>350.06</ele>
        <time>2019-05-15T12:11:40Z</time>
      </trkpt>
      <trkpt lat="39.50615" lon="-8.68671">
        <ele>348.13</ele>
        <time>2019-05-15T12:11:53Z</time>
      </trkpt>
      <trkpt lat="39.50614" lon="-8.68662">
        <ele>347.17</ele>
        <time>2019-05-15T12:12:04Z</time>
      </trkpt>
      <trkpt lat="39.50611" lon="-8.68651">
        <ele>346.21</ele>
        <time>2019-05-15T12:12:12Z</time>
      </trkpt>
      <trkpt lat="39.5061" lon="-8.68647">
        <ele>345.25</ele>
        <time>2019-05-15T12:12:15Z</time>
      </trkpt>
      <trkpt lat="39.50605" lon="-8.68615">
        <ele>342.85</ele>
        <time>2019-05-15T12:12:32Z</time>
      </trkpt>
      <trkpt lat="39.50602" lon="-8.68593">
        <ele>340.44</ele>
        <time>2019-05-15T12:12:45Z</time>
      </trkpt>
      <trkpt lat="39.50603" lon="-8.68592">
        <ele>340.92</ele>
        <time>2019-05-15T12:12:46Z</time>
      </trkpt>
      <trkpt lat="39.50605" lon="-8.68586">
        <ele>339.48</ele>
        <time>2019-05-15T12:12:50Z</time>
      </trkpt>
      <trkpt lat="39.50616" lon="-8.68576">
        <ele>335.64</ele>
        <time>2019-05-15T12:13:03Z</time>
      </trkpt>
      <trkpt lat="39.50621" lon="-8.68574">
        <ele>336.6</ele>
        <time>2019-05-15T12:13:11Z</time>
      </trkpt>
      <trkpt lat="39.50624" lon="-8.68574">
        <ele>334.68</ele>
        <time>2019-05-15T12:13:14Z</time>
      </trkpt>
      <trkpt lat="39.50639" lon="-8.68581">
        <ele>332.75</ele>
        <time>2019-05-15T12:13:27Z</time>
      </trkpt>
      <trkpt lat="39.50646" lon="-8.68593">
        <ele>331.31</ele>
        <time>2019-05-15T12:13:39Z</time>
      </trkpt>
      <trkpt lat="39.50649" lon="-8.68602">
        <ele>330.83</ele>
        <time>2019-05-15T12:13:45Z</time>
      </trkpt>
      <trkpt lat="39.50657" lon="-8.6862">
        <ele>329.39</ele>
        <time>2019-05-15T12:14:00Z</time>
      </trkpt>
      <trkpt lat="39.50665" lon="-8.68638">
        <ele>327.47</ele>
        <time>2019-05-15T12:14:14Z</time>
      </trkpt>
      <trkpt lat="39.50675" lon="-8.68654">
        <ele>326.5</ele>
        <time>2019-05-15T12:14:27Z</time>
      </trkpt>
      <trkpt lat="39.50681" lon="-8.68673">
        <ele>325.54</ele>
        <time>2019-05-15T12:14:40Z</time>
      </trkpt>
      <trkpt lat="39.50689" lon="-8.68694">
        <ele>324.58</ele>
        <time>2019-05-15T12:14:55Z</time>
      </trkpt>
      <trkpt lat="39.50697" lon="-8.68705">
        <ele>323.14</ele>
        <time>2019-05-15T12:15:09Z</time>
      </trkpt>
      <trkpt lat="39.50704" lon="-8.68713">
        <ele>320.74</ele>
        <time>2019-05-15T12:15:21Z</time>
      </trkpt>
      <trkpt lat="39.50711" lon="-8.68723">
        <ele>319.3</ele>
        <time>2019-05-15T12:15:36Z</time>
      </trkpt>
      <trkpt lat="39.50714" lon="-8.68728">
        <ele>317.37</ele>
        <time>2019-05-15T12:15:44Z</time>
      </trkpt>
      <trkpt lat="39.50722" lon="-8.68744">
        <ele>314.97</ele>
        <time>2019-05-15T12:16:01Z</time>
      </trkpt>
      <trkpt lat="39.50727" lon="-8.68761">
        <ele>313.05</ele>
        <time>2019-05-15T12:16:17Z</time>
      </trkpt>
      <trkpt lat="39.50732" lon="-8.68776">
        <ele>311.12</ele>
        <time>2019-05-15T12:16:31Z</time>
      </trkpt>
      <trkpt lat="39.50739" lon="-8.68788">
        <ele>308.24</ele>
        <time>2019-05-15T12:16:45Z</time>
      </trkpt>
      <trkpt lat="39.50748" lon="-8.68803">
        <ele>305.84</ele>
        <time>2019-05-15T12:17:00Z</time>
      </trkpt>
      <trkpt lat="39.5075" lon="-8.68806">
        <ele>305.84</ele>
        <time>2019-05-15T12:17:02Z</time>
      </trkpt>
      <trkpt lat="39.50758" lon="-8.68825">
        <ele>303.43</ele>
        <time>2019-05-15T12:17:18Z</time>
      </trkpt>
      <trkpt lat="39.50767" lon="-8.68844">
        <ele>301.51</ele>
        <time>2019-05-15T12:17:35Z</time>
      </trkpt>
      <trkpt lat="39.50774" lon="-8.68858">
        <ele>299.59</ele>
        <time>2019-05-15T12:17:48Z</time>
      </trkpt>
      <trkpt lat="39.50774" lon="-8.68859">
        <ele>299.59</ele>
        <time>2019-05-15T12:17:49Z</time>
      </trkpt>
      <trkpt lat="39.50776" lon="-8.68863">
        <ele>298.63</ele>
        <time>2019-05-15T12:17:52Z</time>
      </trkpt>
      <trkpt lat="39.50785" lon="-8.68879">
        <ele>296.7</ele>
        <time>2019-05-15T12:18:07Z</time>
      </trkpt>
      <trkpt lat="39.50792" lon="-8.68893">
        <ele>294.3</ele>
        <time>2019-05-15T12:18:21Z</time>
      </trkpt>
      <trkpt lat="39.50797" lon="-8.68897">
        <ele>293.82</ele>
        <time>2019-05-15T12:18:37Z</time>
      </trkpt>
      <trkpt lat="39.50797" lon="-8.68895">
        <ele>293.34</ele>
        <time>2019-05-15T12:18:54Z</time>
      </trkpt>
      <trkpt lat="39.50796" lon="-8.68894">
        <ele>293.34</ele>
        <time>2019-05-15T12:19:17Z</time>
      </trkpt>
      <trkpt lat="39.50802" lon="-8.68906">
        <ele>290.46</ele>
        <time>2019-05-15T12:19:30Z</time>
      </trkpt>
      <trkpt lat="39.50809" lon="-8.68918">
        <ele>288.05</ele>
        <time>2019-05-15T12:19:45Z</time>
      </trkpt>
      <trkpt lat="39.50816" lon="-8.6893">
        <ele>285.65</ele>
        <time>2019-05-15T12:19:58Z</time>
      </trkpt>
      <trkpt lat="39.5082" lon="-8.68943">
        <ele>283.25</ele>
        <time>2019-05-15T12:20:12Z</time>
      </trkpt>
      <trkpt lat="39.50823" lon="-8.68958">
        <ele>280.84</ele>
        <time>2019-05-15T12:20:27Z</time>
      </trkpt>
      <trkpt lat="39.50826" lon="-8.68967">
        <ele>277.48</ele>
        <time>2019-05-15T12:20:38Z</time>
      </trkpt>
      <trkpt lat="39.50828" lon="-8.68974">
        <ele>276.04</ele>
        <time>2019-05-15T12:20:51Z</time>
      </trkpt>
      <trkpt lat="39.50837" lon="-8.68993">
        <ele>272.67</ele>
        <time>2019-05-15T12:21:06Z</time>
      </trkpt>
      <trkpt lat="39.50847" lon="-8.69008">
        <ele>271.71</ele>
        <time>2019-05-15T12:21:18Z</time>
      </trkpt>
      <trkpt lat="39.50855" lon="-8.69017">
        <ele>270.27</ele>
        <time>2019-05-15T12:21:31Z</time>
      </trkpt>
      <trkpt lat="39.50869" lon="-8.69029">
        <ele>268.35</ele>
        <time>2019-05-15T12:21:45Z</time>
      </trkpt>
      <trkpt lat="39.50882" lon="-8.6904">
        <ele>265.94</ele>
        <time>2019-05-15T12:21:59Z</time>
      </trkpt>
      <trkpt lat="39.50887" lon="-8.69048">
        <ele>264.5</ele>
        <time>2019-05-15T12:22:06Z</time>
      </trkpt>
      <trkpt lat="39.50896" lon="-8.6906">
        <ele>263.06</ele>
        <time>2019-05-15T12:22:20Z</time>
      </trkpt>
      <trkpt lat="39.50908" lon="-8.69073">
        <ele>260.17</ele>
        <time>2019-05-15T12:22:35Z</time>
      </trkpt>
      <trkpt lat="39.50917" lon="-8.6909">
        <ele>256.81</ele>
        <time>2019-05-15T12:22:51Z</time>
      </trkpt>
      <trkpt lat="39.50924" lon="-8.69101">
        <ele>255.37</ele>
        <time>2019-05-15T12:23:02Z</time>
      </trkpt>
      <trkpt lat="39.50931" lon="-8.69108">
        <ele>253.44</ele>
        <time>2019-05-15T12:23:16Z</time>
      </trkpt>
      <trkpt lat="39.50937" lon="-8.69108">
        <ele>250.08</ele>
        <time>2019-05-15T12:23:29Z</time>
      </trkpt>
      <trkpt lat="39.50938" lon="-8.69108">
        <ele>250.08</ele>
        <time>2019-05-15T12:23:30Z</time>
      </trkpt>
      <trkpt lat="39.50944" lon="-8.6911">
        <ele>248.16</ele>
        <time>2019-05-15T12:23:37Z</time>
      </trkpt>
      <trkpt lat="39.50952" lon="-8.69116">
        <ele>248.64</ele>
        <time>2019-05-15T12:23:53Z</time>
      </trkpt>
      <trkpt lat="39.50959" lon="-8.69122">
        <ele>245.75</ele>
        <time>2019-05-15T12:24:06Z</time>
      </trkpt>
      <trkpt lat="39.50967" lon="-8.69124">
        <ele>242.87</ele>
        <time>2019-05-15T12:24:16Z</time>
      </trkpt>
      <trkpt lat="39.50974" lon="-8.69127">
        <ele>241.43</ele>
        <time>2019-05-15T12:24:29Z</time>
      </trkpt>
      <trkpt lat="39.5098" lon="-8.69131">
        <ele>240.47</ele>
        <time>2019-05-15T12:24:42Z</time>
      </trkpt>
      <trkpt lat="39.50988" lon="-8.69129">
        <ele>238.06</ele>
        <time>2019-05-15T12:25:00Z</time>
      </trkpt>
      <trkpt lat="39.50999" lon="-8.69125">
        <ele>235.66</ele>
        <time>2019-05-15T12:25:12Z</time>
      </trkpt>
      <trkpt lat="39.51005" lon="-8.69127">
        <ele>234.22</ele>
        <time>2019-05-15T12:25:20Z</time>
      </trkpt>
      <trkpt lat="39.51023" lon="-8.69137">
        <ele>231.81</ele>
        <time>2019-05-15T12:25:37Z</time>
      </trkpt>
      <trkpt lat="39.51026" lon="-8.69139">
        <ele>231.33</ele>
        <time>2019-05-15T12:25:40Z</time>
      </trkpt>
      <trkpt lat="39.51037" lon="-8.6914">
        <ele>228.93</ele>
        <time>2019-05-15T12:25:50Z</time>
      </trkpt>
      <trkpt lat="39.51051" lon="-8.69149">
        <ele>226.05</ele>
        <time>2019-05-15T12:26:04Z</time>
      </trkpt>
      <trkpt lat="39.51063" lon="-8.6916">
        <ele>225.57</ele>
        <time>2019-05-15T12:26:18Z</time>
      </trkpt>
      <trkpt lat="39.51081" lon="-8.69163">
        <ele>223.16</ele>
        <time>2019-05-15T12:26:34Z</time>
      </trkpt>
      <trkpt lat="39.51088" lon="-8.69169">
        <ele>223.64</ele>
        <time>2019-05-15T12:26:48Z</time>
      </trkpt>
      <trkpt lat="39.51092" lon="-8.69169">
        <ele>223.16</ele>
        <time>2019-05-15T12:27:03Z</time>
      </trkpt>
      <trkpt lat="39.51095" lon="-8.69171">
        <ele>222.2</ele>
        <time>2019-05-15T12:27:20Z</time>
      </trkpt>
      <trkpt lat="39.511" lon="-8.69175">
        <ele>223.64</ele>
        <time>2019-05-15T12:27:34Z</time>
      </trkpt>
      <trkpt lat="39.51099" lon="-8.69172">
        <ele>222.2</ele>
        <time>2019-05-15T12:27:54Z</time>
      </trkpt>
      <trkpt lat="39.511" lon="-8.69172">
        <ele>223.16</ele>
        <time>2019-05-15T12:28:17Z</time>
      </trkpt>
      <trkpt lat="39.51098" lon="-8.69173">
        <ele>222.68</ele>
        <time>2019-05-15T12:28:36Z</time>
      </trkpt>
      <trkpt lat="39.511" lon="-8.69173">
        <ele>222.68</ele>
        <time>2019-05-15T12:28:49Z</time>
      </trkpt>
      <trkpt lat="39.51112" lon="-8.69188">
        <ele>220.28</ele>
        <time>2019-05-15T12:29:02Z</time>
      </trkpt>
      <trkpt lat="39.51112" lon="-8.69189">
        <ele>219.8</ele>
        <time>2019-05-15T12:29:03Z</time>
      </trkpt>
      <trkpt lat="39.51125" lon="-8.69204">
        <ele>219.32</ele>
        <time>2019-05-15T12:29:17Z</time>
      </trkpt>
      <trkpt lat="39.51138" lon="-8.69216">
        <ele>219.32</ele>
        <time>2019-05-15T12:29:33Z</time>
      </trkpt>
      <trkpt lat="39.51149" lon="-8.69225">
        <ele>217.4</ele>
        <time>2019-05-15T12:29:46Z</time>
      </trkpt>
      <trkpt lat="39.51164" lon="-8.69242">
        <ele>215.95</ele>
        <time>2019-05-15T12:30:02Z</time>
      </trkpt>
      <trkpt lat="39.51179" lon="-8.69256">
        <ele>215.47</ele>
        <time>2019-05-15T12:30:17Z</time>
      </trkpt>
      <trkpt lat="39.51189" lon="-8.69256">
        <ele>214.03</ele>
        <time>2019-05-15T12:30:31Z</time>
      </trkpt>
      <trkpt lat="39.51201" lon="-8.69242">
        <ele>214.51</ele>
        <time>2019-05-15T12:30:44Z</time>
      </trkpt>
      <trkpt lat="39.51214" lon="-8.69221">
        <ele>213.55</ele>
        <time>2019-05-15T12:31:00Z</time>
      </trkpt>
      <trkpt lat="39.51215" lon="-8.69219">
        <ele>213.55</ele>
        <time>2019-05-15T12:31:02Z</time>
      </trkpt>
      <trkpt lat="39.51221" lon="-8.69212">
        <ele>213.55</ele>
        <time>2019-05-15T12:31:09Z</time>
      </trkpt>
      <trkpt lat="39.5123" lon="-8.69205">
        <ele>213.55</ele>
        <time>2019-05-15T12:31:17Z</time>
      </trkpt>
      <trkpt lat="39.51244" lon="-8.69194">
        <ele>213.55</ele>
        <time>2019-05-15T12:31:30Z</time>
      </trkpt>
      <trkpt lat="39.51248" lon="-8.69194">
        <ele>212.11</ele>
        <time>2019-05-15T12:31:33Z</time>
      </trkpt>
      <trkpt lat="39.51264" lon="-8.69192">
        <ele>212.11</ele>
        <time>2019-05-15T12:31:48Z</time>
      </trkpt>
      <trkpt lat="39.51281" lon="-8.69192">
        <ele>211.63</ele>
        <time>2019-05-15T12:32:04Z</time>
      </trkpt>
      <trkpt lat="39.51293" lon="-8.69195">
        <ele>211.63</ele>
        <time>2019-05-15T12:32:18Z</time>
      </trkpt>
      <trkpt lat="39.51309" lon="-8.69194">
        <ele>211.15</ele>
        <time>2019-05-15T12:32:34Z</time>
      </trkpt>
      <trkpt lat="39.51312" lon="-8.69197">
        <ele>211.63</ele>
        <time>2019-05-15T12:32:39Z</time>
      </trkpt>
      <trkpt lat="39.51332" lon="-8.69203">
        <ele>210.67</ele>
        <time>2019-05-15T12:32:55Z</time>
      </trkpt>
      <trkpt lat="39.51347" lon="-8.69198">
        <ele>211.15</ele>
        <time>2019-05-15T12:33:09Z</time>
      </trkpt>
      <trkpt lat="39.51349" lon="-8.69195">
        <ele>210.67</ele>
        <time>2019-05-15T12:33:11Z</time>
      </trkpt>
      <trkpt lat="39.51348" lon="-8.6919">
        <ele>210.67</ele>
        <time>2019-05-15T12:33:19Z</time>
      </trkpt>
      <trkpt lat="39.51347" lon="-8.69172">
        <ele>211.15</ele>
        <time>2019-05-15T12:33:33Z</time>
      </trkpt>
      <trkpt lat="39.51338" lon="-8.69154">
        <ele>211.63</ele>
        <time>2019-05-15T12:33:49Z</time>
      </trkpt>
      <trkpt lat="39.51331" lon="-8.69131">
        <ele>211.15</ele>
        <time>2019-05-15T12:34:04Z</time>
      </trkpt>
      <trkpt lat="39.5133" lon="-8.6911">
        <ele>211.15</ele>
        <time>2019-05-15T12:34:19Z</time>
      </trkpt>
      <trkpt lat="39.51334" lon="-8.69097">
        <ele>211.15</ele>
        <time>2019-05-15T12:34:32Z</time>
      </trkpt>
      <trkpt lat="39.51336" lon="-8.6909">
        <ele>211.15</ele>
        <time>2019-05-15T12:34:43Z</time>
      </trkpt>
      <trkpt lat="39.51341" lon="-8.69083">
        <ele>210.67</ele>
        <time>2019-05-15T12:34:51Z</time>
      </trkpt>
      <trkpt lat="39.51345" lon="-8.69076">
        <ele>211.15</ele>
        <time>2019-05-15T12:34:58Z</time>
      </trkpt>
      <trkpt lat="39.5135" lon="-8.69073">
        <ele>211.15</ele>
        <time>2019-05-15T12:35:01Z</time>
      </trkpt>
      <trkpt lat="39.51363" lon="-8.69066">
        <ele>210.67</ele>
        <time>2019-05-15T12:35:12Z</time>
      </trkpt>
      <trkpt lat="39.51364" lon="-8.69066">
        <ele>211.15</ele>
        <time>2019-05-15T12:35:15Z</time>
      </trkpt>
      <trkpt lat="39.51373" lon="-8.69061">
        <ele>210.19</ele>
        <time>2019-05-15T12:35:27Z</time>
      </trkpt>
      <trkpt lat="39.51388" lon="-8.69061">
        <ele>209.22</ele>
        <time>2019-05-15T12:35:44Z</time>
      </trkpt>
      <trkpt lat="39.51399" lon="-8.69061">
        <ele>208.74</ele>
        <time>2019-05-15T12:35:55Z</time>
      </trkpt>
      <trkpt lat="39.51412" lon="-8.69064">
        <ele>208.74</ele>
        <time>2019-05-15T12:36:07Z</time>
      </trkpt>
      <trkpt lat="39.51426" lon="-8.69068">
        <ele>208.26</ele>
        <time>2019-05-15T12:36:23Z</time>
      </trkpt>
      <trkpt lat="39.51433" lon="-8.69069">
        <ele>208.26</ele>
        <time>2019-05-15T12:36:34Z</time>
      </trkpt>
      <trkpt lat="39.51437" lon="-8.69054">
        <ele>208.26</ele>
        <time>2019-05-15T12:36:47Z</time>
      </trkpt>
      <trkpt lat="39.51442" lon="-8.69034">
        <ele>207.78</ele>
        <time>2019-05-15T12:37:02Z</time>
      </trkpt>
      <trkpt lat="39.51445" lon="-8.69027">
        <ele>207.78</ele>
        <time>2019-05-15T12:37:09Z</time>
      </trkpt>
      <trkpt lat="39.51448" lon="-8.69013">
        <ele>207.78</ele>
        <time>2019-05-15T12:37:21Z</time>
      </trkpt>
      <trkpt lat="39.51445" lon="-8.69004">
        <ele>207.78</ele>
        <time>2019-05-15T12:37:29Z</time>
      </trkpt>
      <trkpt lat="39.51445" lon="-8.68999">
        <ele>207.3</ele>
        <time>2019-05-15T12:37:40Z</time>
      </trkpt>
      <trkpt lat="39.51445" lon="-8.68998">
        <ele>207.3</ele>
        <time>2019-05-15T12:37:51Z</time>
      </trkpt>
      <trkpt lat="39.51452" lon="-8.6901">
        <ele>207.3</ele>
        <time>2019-05-15T12:38:05Z</time>
      </trkpt>
      <trkpt lat="39.51452" lon="-8.69011">
        <ele>207.3</ele>
        <time>2019-05-15T12:38:06Z</time>
      </trkpt>
      <trkpt lat="39.51455" lon="-8.6902">
        <ele>208.26</ele>
        <time>2019-05-15T12:38:17Z</time>
      </trkpt>
      <trkpt lat="39.51454" lon="-8.69025">
        <ele>207.3</ele>
        <time>2019-05-15T12:38:30Z</time>
      </trkpt>
      <trkpt lat="39.51462" lon="-8.69031">
        <ele>207.78</ele>
        <time>2019-05-15T12:38:42Z</time>
      </trkpt>
      <trkpt lat="39.5147" lon="-8.69036">
        <ele>208.26</ele>
        <time>2019-05-15T12:38:55Z</time>
      </trkpt>
      <trkpt lat="39.51478" lon="-8.69042">
        <ele>207.3</ele>
        <time>2019-05-15T12:39:03Z</time>
      </trkpt>
      <trkpt lat="39.51485" lon="-8.69047">
        <ele>206.82</ele>
        <time>2019-05-15T12:39:12Z</time>
      </trkpt>
      <trkpt lat="39.51502" lon="-8.69056">
        <ele>207.3</ele>
        <time>2019-05-15T12:39:25Z</time>
      </trkpt>
      <trkpt lat="39.51511" lon="-8.69062">
        <ele>207.3</ele>
        <time>2019-05-15T12:39:34Z</time>
      </trkpt>
      <trkpt lat="39.51524" lon="-8.69072">
        <ele>208.26</ele>
        <time>2019-05-15T12:39:48Z</time>
      </trkpt>
      <trkpt lat="39.51541" lon="-8.69077">
        <ele>209.22</ele>
        <time>2019-05-15T12:40:00Z</time>
      </trkpt>
      <trkpt lat="39.51545" lon="-8.69082">
        <ele>208.74</ele>
        <time>2019-05-15T12:40:04Z</time>
      </trkpt>
      <trkpt lat="39.51558" lon="-8.69096">
        <ele>209.7</ele>
        <time>2019-05-15T12:40:19Z</time>
      </trkpt>
      <trkpt lat="39.51565" lon="-8.69103">
        <ele>210.67</ele>
        <time>2019-05-15T12:40:31Z</time>
      </trkpt>
      <trkpt lat="39.51576" lon="-8.69106">
        <ele>210.67</ele>
        <time>2019-05-15T12:40:43Z</time>
      </trkpt>
      <trkpt lat="39.51587" lon="-8.69112">
        <ele>211.15</ele>
        <time>2019-05-15T12:40:55Z</time>
      </trkpt>
      <trkpt lat="39.51592" lon="-8.69115">
        <ele>211.15</ele>
        <time>2019-05-15T12:41:03Z</time>
      </trkpt>
      <trkpt lat="39.51601" lon="-8.69123">
        <ele>211.63</ele>
        <time>2019-05-15T12:41:16Z</time>
      </trkpt>
      <trkpt lat="39.51606" lon="-8.69124">
        <ele>211.63</ele>
        <time>2019-05-15T12:41:27Z</time>
      </trkpt>
      <trkpt lat="39.51606" lon="-8.69117">
        <ele>211.63</ele>
        <time>2019-05-15T12:41:37Z</time>
      </trkpt>
      <trkpt lat="39.51616" lon="-8.6911">
        <ele>211.15</ele>
        <time>2019-05-15T12:41:48Z</time>
      </trkpt>
      <trkpt lat="39.51628" lon="-8.69103">
        <ele>211.63</ele>
        <time>2019-05-15T12:42:00Z</time>
      </trkpt>
      <trkpt lat="39.51631" lon="-8.69097">
        <ele>210.19</ele>
        <time>2019-05-15T12:42:08Z</time>
      </trkpt>
      <trkpt lat="39.51647" lon="-8.69085">
        <ele>210.67</ele>
        <time>2019-05-15T12:42:20Z</time>
      </trkpt>
      <trkpt lat="39.51657" lon="-8.69072">
        <ele>210.67</ele>
        <time>2019-05-15T12:42:30Z</time>
      </trkpt>
      <trkpt lat="39.51669" lon="-8.69061">
        <ele>210.19</ele>
        <time>2019-05-15T12:42:43Z</time>
      </trkpt>
      <trkpt lat="39.51671" lon="-8.69057">
        <ele>210.19</ele>
        <time>2019-05-15T12:42:47Z</time>
      </trkpt>
      <trkpt lat="39.51675" lon="-8.69051">
        <ele>210.19</ele>
        <time>2019-05-15T12:42:52Z</time>
      </trkpt>
      <trkpt lat="39.51689" lon="-8.69037">
        <ele>209.7</ele>
        <time>2019-05-15T12:43:05Z</time>
      </trkpt>
      <trkpt lat="39.517" lon="-8.69023">
        <ele>210.19</ele>
        <time>2019-05-15T12:43:19Z</time>
      </trkpt>
      <trkpt lat="39.51702" lon="-8.6902">
        <ele>209.7</ele>
        <time>2019-05-15T12:43:31Z</time>
      </trkpt>
      <trkpt lat="39.51709" lon="-8.69007">
        <ele>209.7</ele>
        <time>2019-05-15T12:43:45Z</time>
      </trkpt>
      <trkpt lat="39.51712" lon="-8.68995">
        <ele>209.7</ele>
        <time>2019-05-15T12:43:55Z</time>
      </trkpt>
      <trkpt lat="39.51711" lon="-8.68995">
        <ele>209.7</ele>
        <time>2019-05-15T12:43:56Z</time>
      </trkpt>
      <trkpt lat="39.51708" lon="-8.68985">
        <ele>209.7</ele>
        <time>2019-05-15T12:44:09Z</time>
      </trkpt>
      <trkpt lat="39.51705" lon="-8.68984">
        <ele>209.7</ele>
        <time>2019-05-15T12:44:21Z</time>
      </trkpt>
      <trkpt lat="39.51707" lon="-8.6899">
        <ele>209.22</ele>
        <time>2019-05-15T12:44:30Z</time>
      </trkpt>
      <trkpt lat="39.51723" lon="-8.68996">
        <ele>209.7</ele>
        <time>2019-05-15T12:44:43Z</time>
      </trkpt>
      <trkpt lat="39.51728" lon="-8.68996">
        <ele>209.22</ele>
        <time>2019-05-15T12:44:59Z</time>
      </trkpt>
      <trkpt lat="39.51731" lon="-8.68995">
        <ele>209.22</ele>
        <time>2019-05-15T12:45:11Z</time>
      </trkpt>
      <trkpt lat="39.51732" lon="-8.68993">
        <ele>209.22</ele>
        <time>2019-05-15T12:45:29Z</time>
      </trkpt>
      <trkpt lat="39.51731" lon="-8.68996">
        <ele>209.7</ele>
        <time>2019-05-15T12:45:51Z</time>
      </trkpt>
      <trkpt lat="39.51726" lon="-8.69002">
        <ele>209.7</ele>
        <time>2019-05-15T12:46:08Z</time>
      </trkpt>
      <trkpt lat="39.51726" lon="-8.69002">
        <ele>209.7</ele>
        <time>2019-05-15T12:46:34Z</time>
      </trkpt>
      <trkpt lat="39.51725" lon="-8.69002">
        <ele>209.7</ele>
        <time>2019-05-15T12:46:36Z</time>
      </trkpt>
      <trkpt lat="39.51718" lon="-8.69013">
        <ele>209.7</ele>
        <time>2019-05-15T12:46:46Z</time>
      </trkpt>
      <trkpt lat="39.51708" lon="-8.69027">
        <ele>209.7</ele>
        <time>2019-05-15T12:47:01Z</time>
      </trkpt>
      <trkpt lat="39.51707" lon="-8.69028">
        <ele>209.22</ele>
        <time>2019-05-15T12:47:02Z</time>
      </trkpt>
      <trkpt lat="39.51704" lon="-8.69032">
        <ele>209.22</ele>
        <time>2019-05-15T12:47:06Z</time>
      </trkpt>
      <trkpt lat="39.51697" lon="-8.69041">
        <ele>209.7</ele>
        <time>2019-05-15T12:47:18Z</time>
      </trkpt>
      <trkpt lat="39.51686" lon="-8.69055">
        <ele>209.7</ele>
        <time>2019-05-15T12:47:32Z</time>
      </trkpt>
      <trkpt lat="39.51673" lon="-8.69069">
        <ele>209.7</ele>
        <time>2019-05-15T12:47:45Z</time>
      </trkpt>
      <trkpt lat="39.51673" lon="-8.6907">
        <ele>209.7</ele>
        <time>2019-05-15T12:47:46Z</time>
      </trkpt>
      <trkpt lat="39.51659" lon="-8.69084">
        <ele>209.7</ele>
        <time>2019-05-15T12:48:01Z</time>
      </trkpt>
      <trkpt lat="39.51656" lon="-8.69088">
        <ele>209.7</ele>
        <time>2019-05-15T12:48:05Z</time>
      </trkpt>
      <trkpt lat="39.51637" lon="-8.69101">
        <ele>210.19</ele>
        <time>2019-05-15T12:48:22Z</time>
      </trkpt>
      <trkpt lat="39.51619" lon="-8.69112">
        <ele>210.19</ele>
        <time>2019-05-15T12:48:37Z</time>
      </trkpt>
      <trkpt lat="39.5161" lon="-8.69124">
        <ele>209.22</ele>
        <time>2019-05-15T12:48:52Z</time>
      </trkpt>
      <trkpt lat="39.51606" lon="-8.69131">
        <ele>209.7</ele>
        <time>2019-05-15T12:49:06Z</time>
      </trkpt>
      <trkpt lat="39.51608" lon="-8.69128">
        <ele>209.22</ele>
        <time>2019-05-15T12:49:30Z</time>
      </trkpt>
      <trkpt lat="39.51615" lon="-8.69121">
        <ele>208.26</ele>
        <time>2019-05-15T12:49:43Z</time>
      </trkpt>
      <trkpt lat="39.51615" lon="-8.69121">
        <ele>208.26</ele>
        <time>2019-05-15T12:49:55Z</time>
      </trkpt>
      <trkpt lat="39.51622" lon="-8.69112">
        <ele>209.22</ele>
        <time>2019-05-15T12:50:09Z</time>
      </trkpt>
      <trkpt lat="39.51621" lon="-8.69112">
        <ele>209.7</ele>
        <time>2019-05-15T12:50:22Z</time>
      </trkpt>
      <trkpt lat="39.51619" lon="-8.6911">
        <ele>209.22</ele>
        <time>2019-05-15T12:50:24Z</time>
      </trkpt>
      <trkpt lat="39.51615" lon="-8.69105">
        <ele>208.74</ele>
        <time>2019-05-15T12:50:36Z</time>
      </trkpt>
      <trkpt lat="39.51603" lon="-8.69104">
        <ele>208.74</ele>
        <time>2019-05-15T12:50:49Z</time>
      </trkpt>
      <trkpt lat="39.51602" lon="-8.69105">
        <ele>209.22</ele>
        <time>2019-05-15T12:50:51Z</time>
      </trkpt>
      <trkpt lat="39.51597" lon="-8.69106">
        <ele>209.22</ele>
        <time>2019-05-15T12:50:55Z</time>
      </trkpt>
      <trkpt lat="39.51593" lon="-8.69105">
        <ele>209.22</ele>
        <time>2019-05-15T12:50:59Z</time>
      </trkpt>
      <trkpt lat="39.51577" lon="-8.69102">
        <ele>209.22</ele>
        <time>2019-05-15T12:51:13Z</time>
      </trkpt>
      <trkpt lat="39.51576" lon="-8.69102">
        <ele>208.74</ele>
        <time>2019-05-15T12:51:14Z</time>
      </trkpt>
      <trkpt lat="39.51564" lon="-8.69092">
        <ele>207.78</ele>
        <time>2019-05-15T12:51:29Z</time>
      </trkpt>
      <trkpt lat="39.51549" lon="-8.69084">
        <ele>207.78</ele>
        <time>2019-05-15T12:51:42Z</time>
      </trkpt>
      <trkpt lat="39.51533" lon="-8.69074">
        <ele>207.78</ele>
        <time>2019-05-15T12:51:56Z</time>
      </trkpt>
      <trkpt lat="39.51531" lon="-8.69071">
        <ele>206.82</ele>
        <time>2019-05-15T12:52:00Z</time>
      </trkpt>
      <trkpt lat="39.51514" lon="-8.69066">
        <ele>206.82</ele>
        <time>2019-05-15T12:52:14Z</time>
      </trkpt>
      <trkpt lat="39.51511" lon="-8.69064">
        <ele>206.34</ele>
        <time>2019-05-15T12:52:19Z</time>
      </trkpt>
      <trkpt lat="39.51508" lon="-8.69064">
        <ele>206.34</ele>
        <time>2019-05-15T12:52:22Z</time>
      </trkpt>
      <trkpt lat="39.51503" lon="-8.69058">
        <ele>206.34</ele>
        <time>2019-05-15T12:52:29Z</time>
      </trkpt>
      <trkpt lat="39.51486" lon="-8.69042">
        <ele>205.38</ele>
        <time>2019-05-15T12:52:43Z</time>
      </trkpt>
      <trkpt lat="39.51473" lon="-8.69037">
        <ele>206.34</ele>
        <time>2019-05-15T12:52:56Z</time>
      </trkpt>
      <trkpt lat="39.51459" lon="-8.69029">
        <ele>205.38</ele>
        <time>2019-05-15T12:53:10Z</time>
      </trkpt>
      <trkpt lat="39.51454" lon="-8.69019">
        <ele>205.38</ele>
        <time>2019-05-15T12:53:25Z</time>
      </trkpt>
      <trkpt lat="39.51452" lon="-8.69015">
        <ele>205.38</ele>
        <time>2019-05-15T12:53:40Z</time>
      </trkpt>
      <trkpt lat="39.51453" lon="-8.69013">
        <ele>204.9</ele>
        <time>2019-05-15T12:53:52Z</time>
      </trkpt>
      <trkpt lat="39.51454" lon="-8.69013">
        <ele>205.86</ele>
        <time>2019-05-15T12:54:08Z</time>
      </trkpt>
      <trkpt lat="39.5145" lon="-8.69012">
        <ele>204.9</ele>
        <time>2019-05-15T12:54:33Z</time>
      </trkpt>
      <trkpt lat="39.51449" lon="-8.6901">
        <ele>204.9</ele>
        <time>2019-05-15T12:55:01Z</time>
      </trkpt>
      <trkpt lat="39.51451" lon="-8.68993">
        <ele>204.42</ele>
        <time>2019-05-15T12:55:25Z</time>
      </trkpt>
      <trkpt lat="39.51448" lon="-8.68987">
        <ele>203.94</ele>
        <time>2019-05-15T12:55:37Z</time>
      </trkpt>
      <trkpt lat="39.51442" lon="-8.68986">
        <ele>203.94</ele>
        <time>2019-05-15T12:55:49Z</time>
      </trkpt>
      <trkpt lat="39.51439" lon="-8.68978">
        <ele>203.94</ele>
        <time>2019-05-15T12:56:00Z</time>
      </trkpt>
      <trkpt lat="39.51437" lon="-8.6897">
        <ele>202.98</ele>
        <time>2019-05-15T12:56:12Z</time>
      </trkpt>
      <trkpt lat="39.51431" lon="-8.68957">
        <ele>203.46</ele>
        <time>2019-05-15T12:56:27Z</time>
      </trkpt>
      <trkpt lat="39.51426" lon="-8.68943">
        <ele>202.98</ele>
        <time>2019-05-15T12:56:40Z</time>
      </trkpt>
      <trkpt lat="39.51421" lon="-8.68923">
        <ele>202.98</ele>
        <time>2019-05-15T12:56:54Z</time>
      </trkpt>
      <trkpt lat="39.51417" lon="-8.68905">
        <ele>202.49</ele>
        <time>2019-05-15T12:57:06Z</time>
      </trkpt>
      <trkpt lat="39.51412" lon="-8.6889">
        <ele>202.98</ele>
        <time>2019-05-15T12:57:19Z</time>
      </trkpt>
      <trkpt lat="39.51412" lon="-8.68889">
        <ele>202.98</ele>
        <time>2019-05-15T12:57:20Z</time>
      </trkpt>
      <trkpt lat="39.51407" lon="-8.68872">
        <ele>202.49</ele>
        <time>2019-05-15T12:57:33Z</time>
      </trkpt>
      <trkpt lat="39.51402" lon="-8.68857">
        <ele>202.49</ele>
        <time>2019-05-15T12:57:48Z</time>
      </trkpt>
      <trkpt lat="39.51401" lon="-8.68854">
        <ele>202.49</ele>
        <time>2019-05-15T12:57:50Z</time>
      </trkpt>
      <trkpt lat="39.51394" lon="-8.68836">
        <ele>202.98</ele>
        <time>2019-05-15T12:58:03Z</time>
      </trkpt>
      <trkpt lat="39.51385" lon="-8.68828">
        <ele>202.49</ele>
        <time>2019-05-15T12:58:13Z</time>
      </trkpt>
      <trkpt lat="39.5138" lon="-8.68827">
        <ele>202.49</ele>
        <time>2019-05-15T12:58:18Z</time>
      </trkpt>
      <trkpt lat="39.51372" lon="-8.68818">
        <ele>202.98</ele>
        <time>2019-05-15T12:58:30Z</time>
      </trkpt>
      <trkpt lat="39.51369" lon="-8.68809">
        <ele>202.98</ele>
        <time>2019-05-15T12:58:49Z</time>
      </trkpt>
      <trkpt lat="39.51369" lon="-8.688">
        <ele>202.49</ele>
        <time>2019-05-15T12:59:13Z</time>
      </trkpt>
      <trkpt lat="39.51373" lon="-8.68797">
        <ele>202.98</ele>
        <time>2019-05-15T12:59:31Z</time>
      </trkpt>
      <trkpt lat="39.51376" lon="-8.68803">
        <ele>202.01</ele>
        <time>2019-05-15T12:59:52Z</time>
      </trkpt>
      <trkpt lat="39.51374" lon="-8.68803">
        <ele>202.49</ele>
        <time>2019-05-15T13:00:05Z</time>
      </trkpt>
      <trkpt lat="39.51373" lon="-8.68801">
        <ele>202.49</ele>
        <time>2019-05-15T13:00:18Z</time>
      </trkpt>
      <trkpt lat="39.51363" lon="-8.6879">
        <ele>202.49</ele>
        <time>2019-05-15T13:00:32Z</time>
      </trkpt>
      <trkpt lat="39.51353" lon="-8.68778">
        <ele>202.98</ele>
        <time>2019-05-15T13:00:44Z</time>
      </trkpt>
      <trkpt lat="39.51345" lon="-8.68763">
        <ele>202.49</ele>
        <time>2019-05-15T13:00:57Z</time>
      </trkpt>
      <trkpt lat="39.51344" lon="-8.68758">
        <ele>202.98</ele>
        <time>2019-05-15T13:01:01Z</time>
      </trkpt>
      <trkpt lat="39.51339" lon="-8.68755">
        <ele>202.98</ele>
        <time>2019-05-15T13:01:06Z</time>
      </trkpt>
      <trkpt lat="39.51332" lon="-8.68748">
        <ele>202.98</ele>
        <time>2019-05-15T13:01:15Z</time>
      </trkpt>
      <trkpt lat="39.51323" lon="-8.6873">
        <ele>202.98</ele>
        <time>2019-05-15T13:01:31Z</time>
      </trkpt>
      <trkpt lat="39.51313" lon="-8.68714">
        <ele>203.46</ele>
        <time>2019-05-15T13:01:45Z</time>
      </trkpt>
      <trkpt lat="39.51304" lon="-8.68692">
        <ele>203.46</ele>
        <time>2019-05-15T13:02:00Z</time>
      </trkpt>
      <trkpt lat="39.513" lon="-8.68685">
        <ele>203.46</ele>
        <time>2019-05-15T13:02:07Z</time>
      </trkpt>
      <trkpt lat="39.51287" lon="-8.68672">
        <ele>204.42</ele>
        <time>2019-05-15T13:02:21Z</time>
      </trkpt>
      <trkpt lat="39.51272" lon="-8.68661">
        <ele>205.38</ele>
        <time>2019-05-15T13:02:36Z</time>
      </trkpt>
      <trkpt lat="39.51271" lon="-8.68658">
        <ele>204.9</ele>
        <time>2019-05-15T13:02:51Z</time>
      </trkpt>
      <trkpt lat="39.5127" lon="-8.68659">
        <ele>203.94</ele>
        <time>2019-05-15T13:03:01Z</time>
      </trkpt>
      <trkpt lat="39.51271" lon="-8.6866">
        <ele>204.42</ele>
        <time>2019-05-15T13:03:16Z</time>
      </trkpt>
      <trkpt lat="39.51268" lon="-8.68661">
        <ele>204.9</ele>
        <time>2019-05-15T13:03:28Z</time>
      </trkpt>
      <trkpt lat="39.51266" lon="-8.68666">
        <ele>205.86</ele>
        <time>2019-05-15T13:03:45Z</time>
      </trkpt>
      <trkpt lat="39.51267" lon="-8.68662">
        <ele>204.42</ele>
        <time>2019-05-15T13:04:20Z</time>
      </trkpt>
      <trkpt lat="39.51264" lon="-8.68667">
        <ele>205.38</ele>
        <time>2019-05-15T13:04:58Z</time>
      </trkpt>
      <trkpt lat="39.51263" lon="-8.68671">
        <ele>205.86</ele>
        <time>2019-05-15T13:05:40Z</time>
      </trkpt>
      <trkpt lat="39.51264" lon="-8.6867">
        <ele>205.86</ele>
        <time>2019-05-15T13:06:21Z</time>
      </trkpt>
      <trkpt lat="39.51268" lon="-8.68668">
        <ele>206.82</ele>
        <time>2019-05-15T13:07:10Z</time>
      </trkpt>
      <trkpt lat="39.51268" lon="-8.68666">
        <ele>206.82</ele>
        <time>2019-05-15T13:07:55Z</time>
      </trkpt>
      <trkpt lat="39.5127" lon="-8.68662">
        <ele>207.3</ele>
        <time>2019-05-15T13:08:44Z</time>
      </trkpt>
      <trkpt lat="39.51271" lon="-8.68667">
        <ele>206.82</ele>
        <time>2019-05-15T13:09:25Z</time>
      </trkpt>
      <trkpt lat="39.51269" lon="-8.68664">
        <ele>207.3</ele>
        <time>2019-05-15T13:10:06Z</time>
      </trkpt>
      <trkpt lat="39.51272" lon="-8.68665">
        <ele>207.3</ele>
        <time>2019-05-15T13:10:48Z</time>
      </trkpt>
      <trkpt lat="39.51268" lon="-8.68666">
        <ele>208.74</ele>
        <time>2019-05-15T13:11:30Z</time>
      </trkpt>
      <trkpt lat="39.51265" lon="-8.68668">
        <ele>208.74</ele>
        <time>2019-05-15T13:12:16Z</time>
      </trkpt>
      <trkpt lat="39.51266" lon="-8.68667">
        <ele>208.74</ele>
        <time>2019-05-15T13:12:54Z</time>
      </trkpt>
      <trkpt lat="39.51267" lon="-8.68667">
        <ele>208.74</ele>
        <time>2019-05-15T13:13:31Z</time>
      </trkpt>
      <trkpt lat="39.51268" lon="-8.68664">
        <ele>208.26</ele>
        <time>2019-05-15T13:14:06Z</time>
      </trkpt>
      <trkpt lat="39.51269" lon="-8.68661">
        <ele>209.22</ele>
        <time>2019-05-15T13:14:45Z</time>
      </trkpt>
      <trkpt lat="39.51268" lon="-8.68657">
        <ele>208.26</ele>
        <time>2019-05-15T13:15:24Z</time>
      </trkpt>
      <trkpt lat="39.51262" lon="-8.68663">
        <ele>208.74</ele>
        <time>2019-05-15T13:16:08Z</time>
      </trkpt>
      <trkpt lat="39.51263" lon="-8.68662">
        <ele>209.22</ele>
        <time>2019-05-15T13:16:47Z</time>
      </trkpt>
      <trkpt lat="39.51262" lon="-8.68659">
        <ele>209.22</ele>
        <time>2019-05-15T13:17:30Z</time>
      </trkpt>
      <trkpt lat="39.51266" lon="-8.68664">
        <ele>209.7</ele>
        <time>2019-05-15T13:18:17Z</time>
      </trkpt>
      <trkpt lat="39.51268" lon="-8.68664">
        <ele>210.19</ele>
        <time>2019-05-15T13:18:59Z</time>
      </trkpt>
      <trkpt lat="39.51272" lon="-8.68667">
        <ele>210.67</ele>
        <time>2019-05-15T13:19:46Z</time>
      </trkpt>
      <trkpt lat="39.51281" lon="-8.68659">
        <ele>210.67</ele>
        <time>2019-05-15T13:20:28Z</time>
      </trkpt>
      <trkpt lat="39.51276" lon="-8.68662">
        <ele>211.15</ele>
        <time>2019-05-15T13:21:07Z</time>
      </trkpt>
      <trkpt lat="39.51273" lon="-8.68664">
        <ele>211.63</ele>
        <time>2019-05-15T13:21:51Z</time>
      </trkpt>
      <trkpt lat="39.5127" lon="-8.68663">
        <ele>211.15</ele>
        <time>2019-05-15T13:22:37Z</time>
      </trkpt>
      <trkpt lat="39.5127" lon="-8.6866">
        <ele>211.15</ele>
        <time>2019-05-15T13:23:22Z</time>
      </trkpt>
      <trkpt lat="39.51268" lon="-8.68664">
        <ele>211.63</ele>
        <time>2019-05-15T13:24:00Z</time>
      </trkpt>
      <trkpt lat="39.51267" lon="-8.68661">
        <ele>211.63</ele>
        <time>2019-05-15T13:24:43Z</time>
      </trkpt>
      <trkpt lat="39.51263" lon="-8.68664">
        <ele>212.11</ele>
        <time>2019-05-15T13:25:29Z</time>
      </trkpt>
      <trkpt lat="39.51264" lon="-8.68665">
        <ele>211.63</ele>
        <time>2019-05-15T13:26:03Z</time>
      </trkpt>
      <trkpt lat="39.51263" lon="-8.68665">
        <ele>211.63</ele>
        <time>2019-05-15T13:26:42Z</time>
      </trkpt>
      <trkpt lat="39.51267" lon="-8.68664">
        <ele>212.59</ele>
        <time>2019-05-15T13:27:16Z</time>
      </trkpt>
      <trkpt lat="39.51271" lon="-8.68662">
        <ele>212.59</ele>
        <time>2019-05-15T13:28:00Z</time>
      </trkpt>
      <trkpt lat="39.5127" lon="-8.68662">
        <ele>212.59</ele>
        <time>2019-05-15T13:28:42Z</time>
      </trkpt>
      <trkpt lat="39.5127" lon="-8.68665">
        <ele>212.59</ele>
        <time>2019-05-15T13:29:27Z</time>
      </trkpt>
      <trkpt lat="39.51268" lon="-8.68664">
        <ele>213.07</ele>
        <time>2019-05-15T13:30:00Z</time>
      </trkpt>
      <trkpt lat="39.51264" lon="-8.68662">
        <ele>213.07</ele>
        <time>2019-05-15T13:30:44Z</time>
      </trkpt>
      <trkpt lat="39.51264" lon="-8.6866">
        <ele>212.59</ele>
        <time>2019-05-15T13:31:26Z</time>
      </trkpt>
      <trkpt lat="39.51273" lon="-8.6866">
        <ele>213.07</ele>
        <time>2019-05-15T13:32:12Z</time>
      </trkpt>
      <trkpt lat="39.5127" lon="-8.68661">
        <ele>213.07</ele>
        <time>2019-05-15T13:32:44Z</time>
      </trkpt>
      <trkpt lat="39.51265" lon="-8.68667">
        <ele>212.59</ele>
        <time>2019-05-15T13:33:26Z</time>
      </trkpt>
      <trkpt lat="39.51261" lon="-8.68666">
        <ele>213.07</ele>
        <time>2019-05-15T13:34:13Z</time>
      </trkpt>
      <trkpt lat="39.51262" lon="-8.68669">
        <ele>212.11</ele>
        <time>2019-05-15T13:35:08Z</time>
      </trkpt>
      <trkpt lat="39.51257" lon="-8.6867">
        <ele>212.59</ele>
        <time>2019-05-15T13:36:02Z</time>
      </trkpt>
      <trkpt lat="39.51263" lon="-8.68669">
        <ele>211.15</ele>
        <time>2019-05-15T13:36:37Z</time>
      </trkpt>
      <trkpt lat="39.51263" lon="-8.68674">
        <ele>212.11</ele>
        <time>2019-05-15T13:37:30Z</time>
      </trkpt>
      <trkpt lat="39.51262" lon="-8.68674">
        <ele>212.11</ele>
        <time>2019-05-15T13:38:16Z</time>
      </trkpt>
      <trkpt lat="39.51262" lon="-8.68673">
        <ele>211.63</ele>
        <time>2019-05-15T13:39:01Z</time>
      </trkpt>
      <trkpt lat="39.51265" lon="-8.68675">
        <ele>211.15</ele>
        <time>2019-05-15T13:39:46Z</time>
      </trkpt>
      <trkpt lat="39.51264" lon="-8.68673">
        <ele>211.15</ele>
        <time>2019-05-15T13:40:24Z</time>
      </trkpt>
      <trkpt lat="39.51263" lon="-8.6867">
        <ele>210.67</ele>
        <time>2019-05-15T13:41:05Z</time>
      </trkpt>
      <trkpt lat="39.51262" lon="-8.68667">
        <ele>210.67</ele>
        <time>2019-05-15T13:41:46Z</time>
      </trkpt>
      <trkpt lat="39.51265" lon="-8.68665">
        <ele>211.15</ele>
        <time>2019-05-15T13:42:27Z</time>
      </trkpt>
      <trkpt lat="39.51268" lon="-8.68663">
        <ele>211.15</ele>
        <time>2019-05-15T13:43:09Z</time>
      </trkpt>
      <trkpt lat="39.51268" lon="-8.68663">
        <ele>211.15</ele>
        <time>2019-05-15T13:43:44Z</time>
      </trkpt>
      <trkpt lat="39.51261" lon="-8.68666">
        <ele>210.67</ele>
        <time>2019-05-15T13:44:20Z</time>
      </trkpt>
      <trkpt lat="39.51265" lon="-8.68668">
        <ele>210.67</ele>
        <time>2019-05-15T13:45:05Z</time>
      </trkpt>
      <trkpt lat="39.51263" lon="-8.68669">
        <ele>210.67</ele>
        <time>2019-05-15T13:45:48Z</time>
      </trkpt>
      <trkpt lat="39.51265" lon="-8.68666">
        <ele>211.15</ele>
        <time>2019-05-15T13:46:37Z</time>
      </trkpt>
      <trkpt lat="39.51265" lon="-8.68666">
        <ele>211.15</ele>
        <time>2019-05-15T13:47:17Z</time>
      </trkpt>
      <trkpt lat="39.51266" lon="-8.68664">
        <ele>210.67</ele>
        <time>2019-05-15T13:47:56Z</time>
      </trkpt>
      <trkpt lat="39.51265" lon="-8.68663">
        <ele>210.67</ele>
        <time>2019-05-15T13:48:40Z</time>
      </trkpt>
      <trkpt lat="39.5127" lon="-8.68664">
        <ele>210.19</ele>
        <time>2019-05-15T13:49:24Z</time>
      </trkpt>
      <trkpt lat="39.51271" lon="-8.68667">
        <ele>210.19</ele>
        <time>2019-05-15T13:50:06Z</time>
      </trkpt>
      <trkpt lat="39.5127" lon="-8.68667">
        <ele>210.19</ele>
        <time>2019-05-15T13:50:51Z</time>
      </trkpt>
      <trkpt lat="39.51266" lon="-8.68665">
        <ele>210.67</ele>
        <time>2019-05-15T13:51:37Z</time>
      </trkpt>
      <trkpt lat="39.51265" lon="-8.68665">
        <ele>210.19</ele>
        <time>2019-05-15T13:52:20Z</time>
      </trkpt>
      <trkpt lat="39.51265" lon="-8.68665">
        <ele>210.19</ele>
        <time>2019-05-15T13:53:02Z</time>
      </trkpt>
      <trkpt lat="39.51262" lon="-8.68668">
        <ele>210.19</ele>
        <time>2019-05-15T13:53:49Z</time>
      </trkpt>
      <trkpt lat="39.51261" lon="-8.68667">
        <ele>210.19</ele>
        <time>2019-05-15T13:54:36Z</time>
      </trkpt>
      <trkpt lat="39.51264" lon="-8.68664">
        <ele>211.15</ele>
        <time>2019-05-15T13:55:21Z</time>
      </trkpt>
      <trkpt lat="39.51263" lon="-8.68666">
        <ele>211.15</ele>
        <time>2019-05-15T13:56:06Z</time>
      </trkpt>
      <trkpt lat="39.51261" lon="-8.68665">
        <ele>211.15</ele>
        <time>2019-05-15T13:56:45Z</time>
      </trkpt>
      <trkpt lat="39.51264" lon="-8.68665">
        <ele>211.63</ele>
        <time>2019-05-15T13:57:30Z</time>
      </trkpt>
      <trkpt lat="39.51267" lon="-8.68665">
        <ele>211.15</ele>
        <time>2019-05-15T13:58:14Z</time>
      </trkpt>
      <trkpt lat="39.51264" lon="-8.68668">
        <ele>211.63</ele>
        <time>2019-05-15T13:59:05Z</time>
      </trkpt>
      <trkpt lat="39.51265" lon="-8.68671">
        <ele>211.63</ele>
        <time>2019-05-15T13:59:59Z</time>
      </trkpt>
      <trkpt lat="39.51269" lon="-8.68669">
        <ele>211.63</ele>
        <time>2019-05-15T14:00:43Z</time>
      </trkpt>
      <trkpt lat="39.51267" lon="-8.68669">
        <ele>212.11</ele>
        <time>2019-05-15T14:01:18Z</time>
      </trkpt>
      <trkpt lat="39.51263" lon="-8.6867">
        <ele>211.63</ele>
        <time>2019-05-15T14:01:50Z</time>
      </trkpt>
      <trkpt lat="39.51266" lon="-8.68667">
        <ele>211.63</ele>
        <time>2019-05-15T14:02:34Z</time>
      </trkpt>
      <trkpt lat="39.51267" lon="-8.68665">
        <ele>211.15</ele>
        <time>2019-05-15T14:03:21Z</time>
      </trkpt>
      <trkpt lat="39.51265" lon="-8.68666">
        <ele>211.63</ele>
        <time>2019-05-15T14:04:03Z</time>
      </trkpt>
      <trkpt lat="39.51261" lon="-8.68667">
        <ele>211.15</ele>
        <time>2019-05-15T14:04:42Z</time>
      </trkpt>
      <trkpt lat="39.51264" lon="-8.68667">
        <ele>212.11</ele>
        <time>2019-05-15T14:05:20Z</time>
      </trkpt>
      <trkpt lat="39.51265" lon="-8.68666">
        <ele>212.59</ele>
        <time>2019-05-15T14:05:37Z</time>
      </trkpt>
      <trkpt lat="39.51263" lon="-8.68662">
        <ele>212.59</ele>
        <time>2019-05-15T14:05:51Z</time>
      </trkpt>
      <trkpt lat="39.51268" lon="-8.68664">
        <ele>212.59</ele>
        <time>2019-05-15T14:06:07Z</time>
      </trkpt>
      <trkpt lat="39.51271" lon="-8.68665">
        <ele>211.63</ele>
        <time>2019-05-15T14:06:18Z</time>
      </trkpt>
      <trkpt lat="39.51272" lon="-8.68666">
        <ele>211.15</ele>
        <time>2019-05-15T14:06:27Z</time>
      </trkpt>
      <trkpt lat="39.51273" lon="-8.68665">
        <ele>212.11</ele>
        <time>2019-05-15T14:06:54Z</time>
      </trkpt>
      <trkpt lat="39.51272" lon="-8.68667">
        <ele>212.11</ele>
        <time>2019-05-15T14:07:25Z</time>
      </trkpt>
      <trkpt lat="39.51274" lon="-8.68666">
        <ele>211.15</ele>
        <time>2019-05-15T14:07:54Z</time>
      </trkpt>
      <trkpt lat="39.5128" lon="-8.68667">
        <ele>212.59</ele>
        <time>2019-05-15T14:07:57Z</time>
      </trkpt>
      <trkpt lat="39.5129" lon="-8.68676">
        <ele>211.15</ele>
        <time>2019-05-15T14:08:06Z</time>
      </trkpt>
      <trkpt lat="39.51291" lon="-8.68646">
        <ele>211.15</ele>
        <time>2019-05-15T14:08:14Z</time>
      </trkpt>
      <trkpt lat="39.51288" lon="-8.68625">
        <ele>211.63</ele>
        <time>2019-05-15T14:08:17Z</time>
      </trkpt>
      <trkpt lat="39.51281" lon="-8.686">
        <ele>212.11</ele>
        <time>2019-05-15T14:08:20Z</time>
      </trkpt>
      <trkpt lat="39.51278" lon="-8.68541">
        <ele>211.63</ele>
        <time>2019-05-15T14:08:29Z</time>
      </trkpt>
      <trkpt lat="39.51278" lon="-8.6854">
        <ele>211.15</ele>
        <time>2019-05-15T14:08:31Z</time>
      </trkpt>
      <trkpt lat="39.51295" lon="-8.68542">
        <ele>213.07</ele>
        <time>2019-05-15T14:08:36Z</time>
      </trkpt>
      <trkpt lat="39.51346" lon="-8.6859">
        <ele>216.43</ele>
        <time>2019-05-15T14:08:43Z</time>
      </trkpt>
      <trkpt lat="39.51382" lon="-8.68627">
        <ele>215.95</ele>
        <time>2019-05-15T14:08:47Z</time>
      </trkpt>
      <trkpt lat="39.515" lon="-8.68751">
        <ele>216.43</ele>
        <time>2019-05-15T14:09:01Z</time>
      </trkpt>
      <trkpt lat="39.5151" lon="-8.68762">
        <ele>216.91</ele>
        <time>2019-05-15T14:09:02Z</time>
      </trkpt>
      <trkpt lat="39.51658" lon="-8.68917">
        <ele>217.88</ele>
        <time>2019-05-15T14:09:16Z</time>
      </trkpt>
      <trkpt lat="39.51708" lon="-8.68968">
        <ele>215.95</ele>
        <time>2019-05-15T14:09:22Z</time>
      </trkpt>
      <trkpt lat="39.51719" lon="-8.68976">
        <ele>215.47</ele>
        <time>2019-05-15T14:09:24Z</time>
      </trkpt>
      <trkpt lat="39.51739" lon="-8.68973">
        <ele>214.03</ele>
        <time>2019-05-15T14:09:27Z</time>
      </trkpt>
      <trkpt lat="39.51754" lon="-8.68961">
        <ele>214.03</ele>
        <time>2019-05-15T14:09:29Z</time>
      </trkpt>
      <trkpt lat="39.51806" lon="-8.68901">
        <ele>218.36</ele>
        <time>2019-05-15T14:09:35Z</time>
      </trkpt>
      <trkpt lat="39.51858" lon="-8.68841">
        <ele>215.95</ele>
        <time>2019-05-15T14:09:41Z</time>
      </trkpt>
      <trkpt lat="39.5187" lon="-8.68828">
        <ele>214.99</ele>
        <time>2019-05-15T14:09:43Z</time>
      </trkpt>
      <trkpt lat="39.51888" lon="-8.6881">
        <ele>216.43</ele>
        <time>2019-05-15T14:09:46Z</time>
      </trkpt>
      <trkpt lat="39.519" lon="-8.68799">
        <ele>214.51</ele>
        <time>2019-05-15T14:09:48Z</time>
      </trkpt>
      <trkpt lat="39.51964" lon="-8.6874">
        <ele>214.51</ele>
        <time>2019-05-15T14:09:54Z</time>
      </trkpt>
      <trkpt lat="39.51999" lon="-8.68707">
        <ele>215.47</ele>
        <time>2019-05-15T14:09:58Z</time>
      </trkpt>
      <trkpt lat="39.52022" lon="-8.68654">
        <ele>214.51</ele>
        <time>2019-05-15T14:10:03Z</time>
      </trkpt>
      <trkpt lat="39.52036" lon="-8.68588">
        <ele>218.84</ele>
        <time>2019-05-15T14:10:09Z</time>
      </trkpt>
      <trkpt lat="39.52052" lon="-8.68562">
        <ele>221.72</ele>
        <time>2019-05-15T14:10:13Z</time>
      </trkpt>
      <trkpt lat="39.52063" lon="-8.68555">
        <ele>223.16</ele>
        <time>2019-05-15T14:10:15Z</time>
      </trkpt>
      <trkpt lat="39.52079" lon="-8.68547">
        <ele>225.09</ele>
        <time>2019-05-15T14:10:18Z</time>
      </trkpt>
      <trkpt lat="39.52099" lon="-8.68517">
        <ele>226.05</ele>
        <time>2019-05-15T14:10:23Z</time>
      </trkpt>
      <trkpt lat="39.52106" lon="-8.68498">
        <ele>227.01</ele>
        <time>2019-05-15T14:10:25Z</time>
      </trkpt>
      <trkpt lat="39.52113" lon="-8.68454">
        <ele>229.41</ele>
        <time>2019-05-15T14:10:29Z</time>
      </trkpt>
      <trkpt lat="39.52127" lon="-8.68414">
        <ele>231.81</ele>
        <time>2019-05-15T14:10:33Z</time>
      </trkpt>
      <trkpt lat="39.52144" lon="-8.68385">
        <ele>234.7</ele>
        <time>2019-05-15T14:10:36Z</time>
      </trkpt>
      <trkpt lat="39.52161" lon="-8.68355">
        <ele>238.06</ele>
        <time>2019-05-15T14:10:39Z</time>
      </trkpt>
      <trkpt lat="39.5217" lon="-8.68304">
        <ele>240.47</ele>
        <time>2019-05-15T14:10:44Z</time>
      </trkpt>
      <trkpt lat="39.52168" lon="-8.68296">
        <ele>240.47</ele>
        <time>2019-05-15T14:10:45Z</time>
      </trkpt>
      <trkpt lat="39.52158" lon="-8.68284">
        <ele>241.43</ele>
        <time>2019-05-15T14:10:47Z</time>
      </trkpt>
      <trkpt lat="39.52136" lon="-8.68266">
        <ele>241.91</ele>
        <time>2019-05-15T14:10:56Z</time>
      </trkpt>
      <trkpt lat="39.52136" lon="-8.68264">
        <ele>242.39</ele>
        <time>2019-05-15T14:11:22Z</time>
      </trkpt>
      <trkpt lat="39.52139" lon="-8.68264">
        <ele>242.39</ele>
        <time>2019-05-15T14:11:40Z</time>
      </trkpt>
      <trkpt lat="39.52137" lon="-8.68268">
        <ele>241.91</ele>
        <time>2019-05-15T14:11:54Z</time>
      </trkpt>
      <trkpt lat="39.52136" lon="-8.68269">
        <ele>242.87</ele>
        <time>2019-05-15T14:12:24Z</time>
      </trkpt>
      <trkpt lat="39.52138" lon="-8.68268">
        <ele>241.91</ele>
        <time>2019-05-15T14:12:50Z</time>
      </trkpt>
      <trkpt lat="39.52137" lon="-8.6827">
        <ele>242.39</ele>
        <time>2019-05-15T14:13:19Z</time>
      </trkpt>
      <trkpt lat="39.52132" lon="-8.6828">
        <ele>242.87</ele>
        <time>2019-05-15T14:13:33Z</time>
      </trkpt>
      <trkpt lat="39.52129" lon="-8.68277">
        <ele>242.87</ele>
        <time>2019-05-15T14:13:57Z</time>
      </trkpt>
      <trkpt lat="39.52131" lon="-8.68275">
        <ele>243.35</ele>
        <time>2019-05-15T14:14:01Z</time>
      </trkpt>
      <trkpt lat="39.52131" lon="-8.68271">
        <ele>242.87</ele>
        <time>2019-05-15T14:14:05Z</time>
      </trkpt>
      <trkpt lat="39.52121" lon="-8.68276">
        <ele>241.43</ele>
        <time>2019-05-15T14:14:19Z</time>
      </trkpt>
      <trkpt lat="39.52114" lon="-8.68294">
        <ele>239.99</ele>
        <time>2019-05-15T14:14:36Z</time>
      </trkpt>
      <trkpt lat="39.52111" lon="-8.683">
        <ele>236.62</ele>
        <time>2019-05-15T14:14:44Z</time>
      </trkpt>
      <trkpt lat="39.5211" lon="-8.683">
        <ele>241.43</ele>
        <time>2019-05-15T14:14:45Z</time>
      </trkpt>
      <trkpt lat="39.52109" lon="-8.683">
        <ele>242.39</ele>
        <time>2019-05-15T14:15:01Z</time>
      </trkpt>
      <trkpt lat="39.52109" lon="-8.68295">
        <ele>241.43</ele>
        <time>2019-05-15T14:15:14Z</time>
      </trkpt>
      <trkpt lat="39.52118" lon="-8.68288">
        <ele>242.87</ele>
        <time>2019-05-15T14:15:36Z</time>
      </trkpt>
      <trkpt lat="39.52122" lon="-8.68286">
        <ele>243.35</ele>
        <time>2019-05-15T14:16:06Z</time>
      </trkpt>
      <trkpt lat="39.5212" lon="-8.68284">
        <ele>244.31</ele>
        <time>2019-05-15T14:16:30Z</time>
      </trkpt>
      <trkpt lat="39.52127" lon="-8.68287">
        <ele>242.87</ele>
        <time>2019-05-15T14:16:53Z</time>
      </trkpt>
      <trkpt lat="39.5213" lon="-8.6829">
        <ele>242.39</ele>
        <time>2019-05-15T14:17:17Z</time>
      </trkpt>
      <trkpt lat="39.5213" lon="-8.6829">
        <ele>242.39</ele>
        <time>2019-05-15T14:17:57Z</time>
      </trkpt>
      <trkpt lat="39.5213" lon="-8.68288">
        <ele>241.91</ele>
        <time>2019-05-15T14:18:35Z</time>
      </trkpt>
      <trkpt lat="39.52127" lon="-8.68287">
        <ele>242.39</ele>
        <time>2019-05-15T14:19:04Z</time>
      </trkpt>
      <trkpt lat="39.52128" lon="-8.6829">
        <ele>241.91</ele>
        <time>2019-05-15T14:19:35Z</time>
      </trkpt>
      <trkpt lat="39.52124" lon="-8.68291">
        <ele>240.95</ele>
        <time>2019-05-15T14:20:10Z</time>
      </trkpt>
      <trkpt lat="39.52126" lon="-8.68287">
        <ele>241.43</ele>
        <time>2019-05-15T14:20:46Z</time>
      </trkpt>
      <trkpt lat="39.52133" lon="-8.68287">
        <ele>241.43</ele>
        <time>2019-05-15T14:21:16Z</time>
      </trkpt>
      <trkpt lat="39.52132" lon="-8.68286">
        <ele>239.51</ele>
        <time>2019-05-15T14:21:19Z</time>
      </trkpt>
      <trkpt lat="39.52132" lon="-8.68287">
        <ele>241.43</ele>
        <time>2019-05-15T14:21:21Z</time>
      </trkpt>
      <trkpt lat="39.52134" lon="-8.68287">
        <ele>240.95</ele>
        <time>2019-05-15T14:21:55Z</time>
      </trkpt>
      <trkpt lat="39.5213" lon="-8.68288">
        <ele>239.99</ele>
        <time>2019-05-15T14:22:37Z</time>
      </trkpt>
      <trkpt lat="39.52129" lon="-8.68288">
        <ele>240.47</ele>
        <time>2019-05-15T14:23:15Z</time>
      </trkpt>
      <trkpt lat="39.52129" lon="-8.68291">
        <ele>240.95</ele>
        <time>2019-05-15T14:23:57Z</time>
      </trkpt>
      <trkpt lat="39.52137" lon="-8.68288">
        <ele>240.47</ele>
        <time>2019-05-15T14:24:39Z</time>
      </trkpt>
      <trkpt lat="39.5214" lon="-8.6829">
        <ele>239.99</ele>
        <time>2019-05-15T14:25:13Z</time>
      </trkpt>
      <trkpt lat="39.52139" lon="-8.68286">
        <ele>240.47</ele>
        <time>2019-05-15T14:25:33Z</time>
      </trkpt>
      <trkpt lat="39.52164" lon="-8.683">
        <ele>240.47</ele>
        <time>2019-05-15T14:25:56Z</time>
      </trkpt>
      <trkpt lat="39.52175" lon="-8.68308">
        <ele>240.47</ele>
        <time>2019-05-15T14:26:21Z</time>
      </trkpt>
      <trkpt lat="39.52144" lon="-8.68283">
        <ele>240.47</ele>
        <time>2019-05-15T14:26:57Z</time>
      </trkpt>
      <trkpt lat="39.52134" lon="-8.68285">
        <ele>240.47</ele>
        <time>2019-05-15T14:27:27Z</time>
      </trkpt>
      <trkpt lat="39.52127" lon="-8.68286">
        <ele>240.47</ele>
        <time>2019-05-15T14:28:02Z</time>
      </trkpt>
      <trkpt lat="39.52117" lon="-8.68287">
        <ele>240.47</ele>
        <time>2019-05-15T14:28:36Z</time>
      </trkpt>
      <trkpt lat="39.5212" lon="-8.68286">
        <ele>240.95</ele>
        <time>2019-05-15T14:29:11Z</time>
      </trkpt>
      <trkpt lat="39.52124" lon="-8.68286">
        <ele>240.47</ele>
        <time>2019-05-15T14:29:53Z</time>
      </trkpt>
      <trkpt lat="39.52128" lon="-8.68288">
        <ele>239.99</ele>
        <time>2019-05-15T14:30:32Z</time>
      </trkpt>
      <trkpt lat="39.52131" lon="-8.6829">
        <ele>239.51</ele>
        <time>2019-05-15T14:30:51Z</time>
      </trkpt>
      <trkpt lat="39.52125" lon="-8.68289">
        <ele>239.99</ele>
        <time>2019-05-15T14:31:18Z</time>
      </trkpt>
      <trkpt lat="39.52128" lon="-8.68287">
        <ele>239.99</ele>
        <time>2019-05-15T14:31:49Z</time>
      </trkpt>
      <trkpt lat="39.52131" lon="-8.68288">
        <ele>240.47</ele>
        <time>2019-05-15T14:32:27Z</time>
      </trkpt>
      <trkpt lat="39.52127" lon="-8.68283">
        <ele>239.99</ele>
        <time>2019-05-15T14:33:13Z</time>
      </trkpt>
      <trkpt lat="39.52126" lon="-8.68284">
        <ele>239.99</ele>
        <time>2019-05-15T14:33:52Z</time>
      </trkpt>
      <trkpt lat="39.52125" lon="-8.68286">
        <ele>240.47</ele>
        <time>2019-05-15T14:34:34Z</time>
      </trkpt>
      <trkpt lat="39.52127" lon="-8.68285">
        <ele>239.99</ele>
        <time>2019-05-15T14:35:09Z</time>
      </trkpt>
      <trkpt lat="39.52122" lon="-8.68285">
        <ele>239.99</ele>
        <time>2019-05-15T14:35:51Z</time>
      </trkpt>
      <trkpt lat="39.52116" lon="-8.68282">
        <ele>240.47</ele>
        <time>2019-05-15T14:36:27Z</time>
      </trkpt>
      <trkpt lat="39.52118" lon="-8.68285">
        <ele>240.95</ele>
        <time>2019-05-15T14:37:00Z</time>
      </trkpt>
      <trkpt lat="39.52122" lon="-8.68285">
        <ele>240.47</ele>
        <time>2019-05-15T14:37:28Z</time>
      </trkpt>
      <trkpt lat="39.52125" lon="-8.68283">
        <ele>241.43</ele>
        <time>2019-05-15T14:37:56Z</time>
      </trkpt>
      <trkpt lat="39.52128" lon="-8.68281">
        <ele>240.95</ele>
        <time>2019-05-15T14:38:24Z</time>
      </trkpt>
      <trkpt lat="39.52126" lon="-8.68286">
        <ele>240.95</ele>
        <time>2019-05-15T14:38:54Z</time>
      </trkpt>
      <trkpt lat="39.52117" lon="-8.68283">
        <ele>240.95</ele>
        <time>2019-05-15T14:39:26Z</time>
      </trkpt>
      <trkpt lat="39.52118" lon="-8.68286">
        <ele>241.43</ele>
        <time>2019-05-15T14:39:58Z</time>
      </trkpt>
      <trkpt lat="39.52126" lon="-8.68289">
        <ele>240.95</ele>
        <time>2019-05-15T14:40:30Z</time>
      </trkpt>
      <trkpt lat="39.52121" lon="-8.68285">
        <ele>240.95</ele>
        <time>2019-05-15T14:41:03Z</time>
      </trkpt>
      <trkpt lat="39.52123" lon="-8.68286">
        <ele>240.47</ele>
        <time>2019-05-15T14:41:40Z</time>
      </trkpt>
      <trkpt lat="39.52128" lon="-8.68288">
        <ele>240.95</ele>
        <time>2019-05-15T14:42:26Z</time>
      </trkpt>
      <trkpt lat="39.52129" lon="-8.68286">
        <ele>240.47</ele>
        <time>2019-05-15T14:42:59Z</time>
      </trkpt>
      <trkpt lat="39.52124" lon="-8.68289">
        <ele>240.47</ele>
        <time>2019-05-15T14:43:34Z</time>
      </trkpt>
      <trkpt lat="39.52126" lon="-8.68289">
        <ele>240.95</ele>
        <time>2019-05-15T14:44:00Z</time>
      </trkpt>
      <trkpt lat="39.52128" lon="-8.68288">
        <ele>240.47</ele>
        <time>2019-05-15T14:44:26Z</time>
      </trkpt>
      <trkpt lat="39.52134" lon="-8.68285">
        <ele>240.47</ele>
        <time>2019-05-15T14:45:09Z</time>
      </trkpt>
      <trkpt lat="39.52131" lon="-8.68287">
        <ele>239.99</ele>
        <time>2019-05-15T14:45:40Z</time>
      </trkpt>
      <trkpt lat="39.52135" lon="-8.68287">
        <ele>239.99</ele>
        <time>2019-05-15T14:46:20Z</time>
      </trkpt>
      <trkpt lat="39.52137" lon="-8.68289">
        <ele>240.47</ele>
        <time>2019-05-15T14:47:05Z</time>
      </trkpt>
      <trkpt lat="39.52136" lon="-8.68289">
        <ele>239.99</ele>
        <time>2019-05-15T14:47:56Z</time>
      </trkpt>
      <trkpt lat="39.52139" lon="-8.68289">
        <ele>240.47</ele>
        <time>2019-05-15T14:48:44Z</time>
      </trkpt>
      <trkpt lat="39.52134" lon="-8.68287">
        <ele>239.99</ele>
        <time>2019-05-15T14:49:32Z</time>
      </trkpt>
      <trkpt lat="39.5213" lon="-8.68287">
        <ele>240.95</ele>
        <time>2019-05-15T14:50:02Z</time>
      </trkpt>
      <trkpt lat="39.52119" lon="-8.68285">
        <ele>240.47</ele>
        <time>2019-05-15T14:50:26Z</time>
      </trkpt>
      <trkpt lat="39.52112" lon="-8.68282">
        <ele>240.95</ele>
        <time>2019-05-15T14:50:57Z</time>
      </trkpt>
      <trkpt lat="39.5213" lon="-8.68288">
        <ele>240.47</ele>
        <time>2019-05-15T14:51:33Z</time>
      </trkpt>
      <trkpt lat="39.5213" lon="-8.68286">
        <ele>240.47</ele>
        <time>2019-05-15T14:52:10Z</time>
      </trkpt>
      <trkpt lat="39.52134" lon="-8.68287">
        <ele>240.47</ele>
        <time>2019-05-15T14:52:44Z</time>
      </trkpt>
      <trkpt lat="39.52133" lon="-8.68284">
        <ele>240.95</ele>
        <time>2019-05-15T14:53:18Z</time>
      </trkpt>
      <trkpt lat="39.5213" lon="-8.68283">
        <ele>240.47</ele>
        <time>2019-05-15T14:53:49Z</time>
      </trkpt>
      <trkpt lat="39.52132" lon="-8.68282">
        <ele>240.47</ele>
        <time>2019-05-15T14:54:16Z</time>
      </trkpt>
      <trkpt lat="39.52128" lon="-8.68282">
        <ele>241.43</ele>
        <time>2019-05-15T14:55:25Z</time>
      </trkpt>
      <trkpt lat="39.5212" lon="-8.6828">
        <ele>240.95</ele>
        <time>2019-05-15T14:55:47Z</time>
      </trkpt>
      <trkpt lat="39.52122" lon="-8.68283">
        <ele>241.43</ele>
        <time>2019-05-15T14:56:11Z</time>
      </trkpt>
      <trkpt lat="39.52129" lon="-8.6829">
        <ele>240.95</ele>
        <time>2019-05-15T14:56:38Z</time>
      </trkpt>
      <trkpt lat="39.5213" lon="-8.68287">
        <ele>241.43</ele>
        <time>2019-05-15T14:57:10Z</time>
      </trkpt>
      <trkpt lat="39.52133" lon="-8.68281">
        <ele>241.91</ele>
        <time>2019-05-15T14:57:41Z</time>
      </trkpt>
      <trkpt lat="39.52133" lon="-8.68281">
        <ele>241.91</ele>
        <time>2019-05-15T14:57:42Z</time>
      </trkpt>
      <trkpt lat="39.52135" lon="-8.68282">
        <ele>241.43</ele>
        <time>2019-05-15T14:58:15Z</time>
      </trkpt>
      <trkpt lat="39.52139" lon="-8.68284">
        <ele>240.95</ele>
        <time>2019-05-15T14:58:45Z</time>
      </trkpt>
      <trkpt lat="39.5214" lon="-8.68284">
        <ele>241.91</ele>
        <time>2019-05-15T14:59:27Z</time>
      </trkpt>
      <trkpt lat="39.52137" lon="-8.68286">
        <ele>241.91</ele>
        <time>2019-05-15T15:00:05Z</time>
      </trkpt>
      <trkpt lat="39.52134" lon="-8.68285">
        <ele>242.39</ele>
        <time>2019-05-15T15:00:45Z</time>
      </trkpt>
      <trkpt lat="39.52134" lon="-8.68287">
        <ele>242.87</ele>
        <time>2019-05-15T15:01:23Z</time>
      </trkpt>
      <trkpt lat="39.52132" lon="-8.68288">
        <ele>242.39</ele>
        <time>2019-05-15T15:02:02Z</time>
      </trkpt>
      <trkpt lat="39.5213" lon="-8.68288">
        <ele>243.35</ele>
        <time>2019-05-15T15:02:38Z</time>
      </trkpt>
      <trkpt lat="39.52133" lon="-8.68288">
        <ele>243.83</ele>
        <time>2019-05-15T15:03:10Z</time>
      </trkpt>
      <trkpt lat="39.52131" lon="-8.68288">
        <ele>243.35</ele>
        <time>2019-05-15T15:03:43Z</time>
      </trkpt>
      <trkpt lat="39.52133" lon="-8.6829">
        <ele>243.35</ele>
        <time>2019-05-15T15:04:13Z</time>
      </trkpt>
      <trkpt lat="39.52144" lon="-8.68291">
        <ele>243.83</ele>
        <time>2019-05-15T15:04:46Z</time>
      </trkpt>
      <trkpt lat="39.5214" lon="-8.68291">
        <ele>244.31</ele>
        <time>2019-05-15T15:05:20Z</time>
      </trkpt>
      <trkpt lat="39.52134" lon="-8.68289">
        <ele>244.31</ele>
        <time>2019-05-15T15:06:02Z</time>
      </trkpt>
      <trkpt lat="39.5213" lon="-8.68288">
        <ele>244.79</ele>
        <time>2019-05-15T15:06:50Z</time>
      </trkpt>
      <trkpt lat="39.52129" lon="-8.68287">
        <ele>243.83</ele>
        <time>2019-05-15T15:07:35Z</time>
      </trkpt>
      <trkpt lat="39.52126" lon="-8.68287">
        <ele>244.31</ele>
        <time>2019-05-15T15:08:15Z</time>
      </trkpt>
      <trkpt lat="39.52125" lon="-8.68288">
        <ele>243.83</ele>
        <time>2019-05-15T15:08:54Z</time>
      </trkpt>
      <trkpt lat="39.52126" lon="-8.68284">
        <ele>243.83</ele>
        <time>2019-05-15T15:09:33Z</time>
      </trkpt>
      <trkpt lat="39.52126" lon="-8.68282">
        <ele>244.79</ele>
        <time>2019-05-15T15:10:12Z</time>
      </trkpt>
      <trkpt lat="39.52127" lon="-8.68286">
        <ele>245.75</ele>
        <time>2019-05-15T15:10:56Z</time>
      </trkpt>
      <trkpt lat="39.52128" lon="-8.68295">
        <ele>245.75</ele>
        <time>2019-05-15T15:11:38Z</time>
      </trkpt>
      <trkpt lat="39.52132" lon="-8.68291">
        <ele>245.75</ele>
        <time>2019-05-15T15:12:16Z</time>
      </trkpt>
      <trkpt lat="39.52128" lon="-8.68293">
        <ele>245.75</ele>
        <time>2019-05-15T15:12:47Z</time>
      </trkpt>
      <trkpt lat="39.52135" lon="-8.68288">
        <ele>245.27</ele>
        <time>2019-05-15T15:13:22Z</time>
      </trkpt>
      <trkpt lat="39.52135" lon="-8.68285">
        <ele>245.75</ele>
        <time>2019-05-15T15:14:04Z</time>
      </trkpt>
      <trkpt lat="39.52132" lon="-8.68286">
        <ele>245.27</ele>
        <time>2019-05-15T15:14:49Z</time>
      </trkpt>
      <trkpt lat="39.52129" lon="-8.68291">
        <ele>244.31</ele>
        <time>2019-05-15T15:15:32Z</time>
      </trkpt>
      <trkpt lat="39.52124" lon="-8.68292">
        <ele>244.79</ele>
        <time>2019-05-15T15:16:12Z</time>
      </trkpt>
      <trkpt lat="39.52125" lon="-8.68292">
        <ele>244.79</ele>
        <time>2019-05-15T15:16:59Z</time>
      </trkpt>
      <trkpt lat="39.52125" lon="-8.6829">
        <ele>244.79</ele>
        <time>2019-05-15T15:17:47Z</time>
      </trkpt>
      <trkpt lat="39.52125" lon="-8.68289">
        <ele>244.79</ele>
        <time>2019-05-15T15:18:25Z</time>
      </trkpt>
      <trkpt lat="39.52128" lon="-8.68289">
        <ele>245.27</ele>
        <time>2019-05-15T15:18:59Z</time>
      </trkpt>
      <trkpt lat="39.52128" lon="-8.68289">
        <ele>244.79</ele>
        <time>2019-05-15T15:19:30Z</time>
      </trkpt>
      <trkpt lat="39.52131" lon="-8.68291">
        <ele>245.27</ele>
        <time>2019-05-15T15:20:08Z</time>
      </trkpt>
      <trkpt lat="39.52122" lon="-8.68292">
        <ele>245.27</ele>
        <time>2019-05-15T15:20:47Z</time>
      </trkpt>
      <trkpt lat="39.52128" lon="-8.68294">
        <ele>245.27</ele>
        <time>2019-05-15T15:21:24Z</time>
      </trkpt>
      <trkpt lat="39.52122" lon="-8.68287">
        <ele>245.27</ele>
        <time>2019-05-15T15:22:08Z</time>
      </trkpt>
      <trkpt lat="39.52122" lon="-8.68288">
        <ele>245.27</ele>
        <time>2019-05-15T15:22:50Z</time>
      </trkpt>
      <trkpt lat="39.52127" lon="-8.68289">
        <ele>245.27</ele>
        <time>2019-05-15T15:23:34Z</time>
      </trkpt>
      <trkpt lat="39.52129" lon="-8.68288">
        <ele>244.79</ele>
        <time>2019-05-15T15:24:13Z</time>
      </trkpt>
      <trkpt lat="39.5213" lon="-8.6829">
        <ele>245.27</ele>
        <time>2019-05-15T15:24:56Z</time>
      </trkpt>
      <trkpt lat="39.52126" lon="-8.68286">
        <ele>245.27</ele>
        <time>2019-05-15T15:25:39Z</time>
      </trkpt>
      <trkpt lat="39.52124" lon="-8.68285">
        <ele>244.79</ele>
        <time>2019-05-15T15:26:26Z</time>
      </trkpt>
      <trkpt lat="39.52133" lon="-8.68289">
        <ele>244.79</ele>
        <time>2019-05-15T15:27:20Z</time>
      </trkpt>
      <trkpt lat="39.52131" lon="-8.68287">
        <ele>245.27</ele>
        <time>2019-05-15T15:28:07Z</time>
      </trkpt>
      <trkpt lat="39.52129" lon="-8.6829">
        <ele>244.79</ele>
        <time>2019-05-15T15:28:44Z</time>
      </trkpt>
      <trkpt lat="39.52128" lon="-8.68288">
        <ele>245.75</ele>
        <time>2019-05-15T15:29:27Z</time>
      </trkpt>
      <trkpt lat="39.52132" lon="-8.68284">
        <ele>245.27</ele>
        <time>2019-05-15T15:30:11Z</time>
      </trkpt>
      <trkpt lat="39.52125" lon="-8.68284">
        <ele>244.31</ele>
        <time>2019-05-15T15:30:53Z</time>
      </trkpt>
      <trkpt lat="39.52121" lon="-8.68287">
        <ele>243.83</ele>
        <time>2019-05-15T15:31:44Z</time>
      </trkpt>
      <trkpt lat="39.5212" lon="-8.68285">
        <ele>243.83</ele>
        <time>2019-05-15T15:32:29Z</time>
      </trkpt>
      <trkpt lat="39.52123" lon="-8.68288">
        <ele>242.87</ele>
        <time>2019-05-15T15:33:12Z</time>
      </trkpt>
      <trkpt lat="39.52128" lon="-8.68291">
        <ele>243.83</ele>
        <time>2019-05-15T15:33:56Z</time>
      </trkpt>
      <trkpt lat="39.52127" lon="-8.68289">
        <ele>243.35</ele>
        <time>2019-05-15T15:34:39Z</time>
      </trkpt>
      <trkpt lat="39.52129" lon="-8.68288">
        <ele>242.87</ele>
        <time>2019-05-15T15:35:22Z</time>
      </trkpt>
      <trkpt lat="39.5213" lon="-8.68287">
        <ele>243.35</ele>
        <time>2019-05-15T15:36:07Z</time>
      </trkpt>
      <trkpt lat="39.52128" lon="-8.68289">
        <ele>242.87</ele>
        <time>2019-05-15T15:36:49Z</time>
      </trkpt>
      <trkpt lat="39.52127" lon="-8.68289">
        <ele>243.35</ele>
        <time>2019-05-15T15:37:31Z</time>
      </trkpt>
      <trkpt lat="39.52127" lon="-8.68289">
        <ele>242.87</ele>
        <time>2019-05-15T15:38:12Z</time>
      </trkpt>
      <trkpt lat="39.52128" lon="-8.68292">
        <ele>242.87</ele>
        <time>2019-05-15T15:38:51Z</time>
      </trkpt>
      <trkpt lat="39.52126" lon="-8.68286">
        <ele>242.39</ele>
        <time>2019-05-15T15:39:26Z</time>
      </trkpt>
      <trkpt lat="39.52123" lon="-8.68291">
        <ele>242.39</ele>
        <time>2019-05-15T15:39:57Z</time>
      </trkpt>
      <trkpt lat="39.52126" lon="-8.68289">
        <ele>242.39</ele>
        <time>2019-05-15T15:40:23Z</time>
      </trkpt>
      <trkpt lat="39.52124" lon="-8.68293">
        <ele>242.39</ele>
        <time>2019-05-15T15:40:55Z</time>
      </trkpt>
      <trkpt lat="39.52122" lon="-8.68295">
        <ele>241.91</ele>
        <time>2019-05-15T15:41:25Z</time>
      </trkpt>
      <trkpt lat="39.52124" lon="-8.6829">
        <ele>241.91</ele>
        <time>2019-05-15T15:41:59Z</time>
      </trkpt>
      <trkpt lat="39.52129" lon="-8.68291">
        <ele>241.43</ele>
        <time>2019-05-15T15:42:32Z</time>
      </trkpt>
      <trkpt lat="39.52133" lon="-8.68292">
        <ele>241.43</ele>
        <time>2019-05-15T15:43:01Z</time>
      </trkpt>
      <trkpt lat="39.5213" lon="-8.68291">
        <ele>241.43</ele>
        <time>2019-05-15T15:43:30Z</time>
      </trkpt>
      <trkpt lat="39.52131" lon="-8.68292">
        <ele>241.43</ele>
        <time>2019-05-15T15:43:58Z</time>
      </trkpt>
      <trkpt lat="39.52133" lon="-8.68292">
        <ele>241.43</ele>
        <time>2019-05-15T15:44:26Z</time>
      </trkpt>
      <trkpt lat="39.52144" lon="-8.68275">
        <ele>241.43</ele>
        <time>2019-05-15T15:44:50Z</time>
      </trkpt>
      <trkpt lat="39.52138" lon="-8.6828">
        <ele>241.43</ele>
        <time>2019-05-15T15:45:23Z</time>
      </trkpt>
      <trkpt lat="39.52129" lon="-8.68289">
        <ele>241.43</ele>
        <time>2019-05-15T15:45:57Z</time>
      </trkpt>
      <trkpt lat="39.52126" lon="-8.68289">
        <ele>241.43</ele>
        <time>2019-05-15T15:46:23Z</time>
      </trkpt>
      <trkpt lat="39.52131" lon="-8.68292">
        <ele>241.43</ele>
        <time>2019-05-15T15:47:02Z</time>
      </trkpt>
      <trkpt lat="39.5213" lon="-8.68292">
        <ele>241.43</ele>
        <time>2019-05-15T15:47:37Z</time>
      </trkpt>
      <trkpt lat="39.52138" lon="-8.68295">
        <ele>241.91</ele>
        <time>2019-05-15T15:48:07Z</time>
      </trkpt>
      <trkpt lat="39.52139" lon="-8.68288">
        <ele>241.91</ele>
        <time>2019-05-15T15:48:42Z</time>
      </trkpt>
      <trkpt lat="39.52137" lon="-8.68289">
        <ele>241.91</ele>
        <time>2019-05-15T15:49:17Z</time>
      </trkpt>
      <trkpt lat="39.52135" lon="-8.68288">
        <ele>242.87</ele>
        <time>2019-05-15T15:49:45Z</time>
      </trkpt>
      <trkpt lat="39.52129" lon="-8.68289">
        <ele>241.91</ele>
        <time>2019-05-15T15:50:15Z</time>
      </trkpt>
      <trkpt lat="39.52128" lon="-8.68287">
        <ele>242.39</ele>
        <time>2019-05-15T15:50:46Z</time>
      </trkpt>
      <trkpt lat="39.52127" lon="-8.68291">
        <ele>242.39</ele>
        <time>2019-05-15T15:51:20Z</time>
      </trkpt>
      <trkpt lat="39.52128" lon="-8.68288">
        <ele>242.39</ele>
        <time>2019-05-15T15:51:53Z</time>
      </trkpt>
      <trkpt lat="39.52134" lon="-8.6829">
        <ele>242.39</ele>
        <time>2019-05-15T15:52:24Z</time>
      </trkpt>
      <trkpt lat="39.52131" lon="-8.68289">
        <ele>241.91</ele>
        <time>2019-05-15T15:53:00Z</time>
      </trkpt>
      <trkpt lat="39.52129" lon="-8.6829">
        <ele>242.39</ele>
        <time>2019-05-15T15:53:29Z</time>
      </trkpt>
      <trkpt lat="39.52125" lon="-8.68288">
        <ele>241.91</ele>
        <time>2019-05-15T15:53:58Z</time>
      </trkpt>
      <trkpt lat="39.52126" lon="-8.68286">
        <ele>241.91</ele>
        <time>2019-05-15T15:54:29Z</time>
      </trkpt>
      <trkpt lat="39.52124" lon="-8.68288">
        <ele>242.39</ele>
        <time>2019-05-15T15:54:59Z</time>
      </trkpt>
      <trkpt lat="39.52128" lon="-8.68288">
        <ele>241.91</ele>
        <time>2019-05-15T15:55:25Z</time>
      </trkpt>
      <trkpt lat="39.52122" lon="-8.68287">
        <ele>241.91</ele>
        <time>2019-05-15T15:55:50Z</time>
      </trkpt>
      <trkpt lat="39.52124" lon="-8.68285">
        <ele>242.39</ele>
        <time>2019-05-15T15:56:20Z</time>
      </trkpt>
      <trkpt lat="39.52124" lon="-8.68289">
        <ele>241.43</ele>
        <time>2019-05-15T15:56:57Z</time>
      </trkpt>
      <trkpt lat="39.52128" lon="-8.68285">
        <ele>241.43</ele>
        <time>2019-05-15T15:57:37Z</time>
      </trkpt>
      <trkpt lat="39.52129" lon="-8.68286">
        <ele>240.95</ele>
        <time>2019-05-15T15:58:09Z</time>
      </trkpt>
      <trkpt lat="39.5213" lon="-8.68289">
        <ele>241.43</ele>
        <time>2019-05-15T15:58:37Z</time>
      </trkpt>
      <trkpt lat="39.5213" lon="-8.68292">
        <ele>241.91</ele>
        <time>2019-05-15T15:59:00Z</time>
      </trkpt>
      <trkpt lat="39.52127" lon="-8.68296">
        <ele>241.43</ele>
        <time>2019-05-15T15:59:26Z</time>
      </trkpt>
      <trkpt lat="39.5213" lon="-8.6829">
        <ele>241.43</ele>
        <time>2019-05-15T15:59:56Z</time>
      </trkpt>
      <trkpt lat="39.52131" lon="-8.68291">
        <ele>241.91</ele>
        <time>2019-05-15T16:00:28Z</time>
      </trkpt>
      <trkpt lat="39.52132" lon="-8.6829">
        <ele>241.91</ele>
        <time>2019-05-15T16:01:06Z</time>
      </trkpt>
      <trkpt lat="39.5213" lon="-8.68288">
        <ele>242.39</ele>
        <time>2019-05-15T16:01:51Z</time>
      </trkpt>
      <trkpt lat="39.52134" lon="-8.68289">
        <ele>242.39</ele>
        <time>2019-05-15T16:02:31Z</time>
      </trkpt>
      <trkpt lat="39.52134" lon="-8.68288">
        <ele>241.91</ele>
        <time>2019-05-15T16:02:59Z</time>
      </trkpt>
      <trkpt lat="39.52133" lon="-8.68283">
        <ele>242.39</ele>
        <time>2019-05-15T16:03:25Z</time>
      </trkpt>
      <trkpt lat="39.52128" lon="-8.6829">
        <ele>242.39</ele>
        <time>2019-05-15T16:03:57Z</time>
      </trkpt>
      <trkpt lat="39.52122" lon="-8.6829">
        <ele>242.39</ele>
        <time>2019-05-15T16:04:21Z</time>
      </trkpt>
      <trkpt lat="39.52125" lon="-8.68294">
        <ele>242.39</ele>
        <time>2019-05-15T16:04:52Z</time>
      </trkpt>
      <trkpt lat="39.52123" lon="-8.68292">
        <ele>242.87</ele>
        <time>2019-05-15T16:05:26Z</time>
      </trkpt>
      <trkpt lat="39.5212" lon="-8.68296">
        <ele>242.87</ele>
        <time>2019-05-15T16:06:00Z</time>
      </trkpt>
      <trkpt lat="39.52117" lon="-8.68299">
        <ele>242.39</ele>
        <time>2019-05-15T16:06:28Z</time>
      </trkpt>
      <trkpt lat="39.5212" lon="-8.68298">
        <ele>243.35</ele>
        <time>2019-05-15T16:06:53Z</time>
      </trkpt>
      <trkpt lat="39.52124" lon="-8.68295">
        <ele>243.35</ele>
        <time>2019-05-15T16:07:17Z</time>
      </trkpt>
      <trkpt lat="39.52134" lon="-8.68289">
        <ele>242.39</ele>
        <time>2019-05-15T16:07:43Z</time>
      </trkpt>
      <trkpt lat="39.52117" lon="-8.68298">
        <ele>242.39</ele>
        <time>2019-05-15T16:08:12Z</time>
      </trkpt>
      <trkpt lat="39.52104" lon="-8.68311">
        <ele>241.91</ele>
        <time>2019-05-15T16:08:40Z</time>
      </trkpt>
      <trkpt lat="39.5213" lon="-8.68294">
        <ele>241.91</ele>
        <time>2019-05-15T16:09:02Z</time>
      </trkpt>
      <trkpt lat="39.52133" lon="-8.68291">
        <ele>242.87</ele>
        <time>2019-05-15T16:09:29Z</time>
      </trkpt>
      <trkpt lat="39.52126" lon="-8.68294">
        <ele>242.39</ele>
        <time>2019-05-15T16:10:00Z</time>
      </trkpt>
      <trkpt lat="39.52124" lon="-8.68292">
        <ele>242.87</ele>
        <time>2019-05-15T16:10:33Z</time>
      </trkpt>
      <trkpt lat="39.52126" lon="-8.68292">
        <ele>242.39</ele>
        <time>2019-05-15T16:11:12Z</time>
      </trkpt>
      <trkpt lat="39.52127" lon="-8.68295">
        <ele>242.39</ele>
        <time>2019-05-15T16:11:49Z</time>
      </trkpt>
      <trkpt lat="39.52126" lon="-8.68291">
        <ele>241.91</ele>
        <time>2019-05-15T16:12:27Z</time>
      </trkpt>
      <trkpt lat="39.52126" lon="-8.68292">
        <ele>241.91</ele>
        <time>2019-05-15T16:12:58Z</time>
      </trkpt>
      <trkpt lat="39.52127" lon="-8.68293">
        <ele>241.43</ele>
        <time>2019-05-15T16:13:32Z</time>
      </trkpt>
      <trkpt lat="39.52126" lon="-8.68296">
        <ele>241.91</ele>
        <time>2019-05-15T16:14:01Z</time>
      </trkpt>
      <trkpt lat="39.52123" lon="-8.68294">
        <ele>240.95</ele>
        <time>2019-05-15T16:14:34Z</time>
      </trkpt>
      <trkpt lat="39.52124" lon="-8.68291">
        <ele>241.43</ele>
        <time>2019-05-15T16:15:06Z</time>
      </trkpt>
      <trkpt lat="39.52134" lon="-8.68284">
        <ele>241.43</ele>
        <time>2019-05-15T16:15:32Z</time>
      </trkpt>
      <trkpt lat="39.52131" lon="-8.68283">
        <ele>240.95</ele>
        <time>2019-05-15T16:16:04Z</time>
      </trkpt>
      <trkpt lat="39.52122" lon="-8.68282">
        <ele>240.95</ele>
        <time>2019-05-15T16:16:29Z</time>
      </trkpt>
      <trkpt lat="39.52103" lon="-8.6828">
        <ele>240.95</ele>
        <time>2019-05-15T16:16:57Z</time>
      </trkpt>
      <trkpt lat="39.52129" lon="-8.68283">
        <ele>240.47</ele>
        <time>2019-05-15T16:17:26Z</time>
      </trkpt>
      <trkpt lat="39.52122" lon="-8.68296">
        <ele>239.99</ele>
        <time>2019-05-15T16:17:48Z</time>
      </trkpt>
      <trkpt lat="39.52123" lon="-8.68292">
        <ele>240.47</ele>
        <time>2019-05-15T16:18:24Z</time>
      </trkpt>
      <trkpt lat="39.52124" lon="-8.6829">
        <ele>239.99</ele>
        <time>2019-05-15T16:18:52Z</time>
      </trkpt>
      <trkpt lat="39.52121" lon="-8.6829">
        <ele>239.51</ele>
        <time>2019-05-15T16:19:17Z</time>
      </trkpt>
      <trkpt lat="39.52124" lon="-8.68291">
        <ele>239.99</ele>
        <time>2019-05-15T16:19:49Z</time>
      </trkpt>
      <trkpt lat="39.52124" lon="-8.68289">
        <ele>239.51</ele>
        <time>2019-05-15T16:20:25Z</time>
      </trkpt>
      <trkpt lat="39.52131" lon="-8.68287">
        <ele>239.51</ele>
        <time>2019-05-15T16:20:59Z</time>
      </trkpt>
      <trkpt lat="39.52134" lon="-8.68291">
        <ele>239.99</ele>
        <time>2019-05-15T16:21:34Z</time>
      </trkpt>
      <trkpt lat="39.52125" lon="-8.68289">
        <ele>239.02</ele>
        <time>2019-05-15T16:22:04Z</time>
      </trkpt>
      <trkpt lat="39.52126" lon="-8.68289">
        <ele>239.51</ele>
        <time>2019-05-15T16:22:40Z</time>
      </trkpt>
      <trkpt lat="39.52133" lon="-8.68287">
        <ele>239.02</ele>
        <time>2019-05-15T16:23:28Z</time>
      </trkpt>
      <trkpt lat="39.5213" lon="-8.68288">
        <ele>239.02</ele>
        <time>2019-05-15T16:24:04Z</time>
      </trkpt>
      <trkpt lat="39.52129" lon="-8.68289">
        <ele>238.54</ele>
        <time>2019-05-15T16:24:41Z</time>
      </trkpt>
      <trkpt lat="39.52127" lon="-8.68288">
        <ele>238.54</ele>
        <time>2019-05-15T16:25:18Z</time>
      </trkpt>
      <trkpt lat="39.52127" lon="-8.68289">
        <ele>238.06</ele>
        <time>2019-05-15T16:25:49Z</time>
      </trkpt>
      <trkpt lat="39.5213" lon="-8.68289">
        <ele>239.02</ele>
        <time>2019-05-15T16:26:22Z</time>
      </trkpt>
      <trkpt lat="39.52126" lon="-8.6829">
        <ele>238.54</ele>
        <time>2019-05-15T16:26:54Z</time>
      </trkpt>
      <trkpt lat="39.52119" lon="-8.68291">
        <ele>238.06</ele>
        <time>2019-05-15T16:27:24Z</time>
      </trkpt>
      <trkpt lat="39.52123" lon="-8.68287">
        <ele>238.06</ele>
        <time>2019-05-15T16:27:54Z</time>
      </trkpt>
      <trkpt lat="39.52118" lon="-8.68288">
        <ele>238.54</ele>
        <time>2019-05-15T16:28:27Z</time>
      </trkpt>
      <trkpt lat="39.5213" lon="-8.68291">
        <ele>238.06</ele>
        <time>2019-05-15T16:28:48Z</time>
      </trkpt>
      <trkpt lat="39.52129" lon="-8.68289">
        <ele>238.54</ele>
        <time>2019-05-15T16:29:10Z</time>
      </trkpt>
      <trkpt lat="39.52124" lon="-8.68293">
        <ele>238.54</ele>
        <time>2019-05-15T16:29:42Z</time>
      </trkpt>
      <trkpt lat="39.52113" lon="-8.68291">
        <ele>238.54</ele>
        <time>2019-05-15T16:30:12Z</time>
      </trkpt>
      <trkpt lat="39.52124" lon="-8.6829">
        <ele>237.58</ele>
        <time>2019-05-15T16:30:42Z</time>
      </trkpt>
      <trkpt lat="39.52125" lon="-8.68287">
        <ele>237.58</ele>
        <time>2019-05-15T16:31:11Z</time>
      </trkpt>
      <trkpt lat="39.52117" lon="-8.68288">
        <ele>238.06</ele>
        <time>2019-05-15T16:31:40Z</time>
      </trkpt>
      <trkpt lat="39.52125" lon="-8.68289">
        <ele>237.58</ele>
        <time>2019-05-15T16:32:08Z</time>
      </trkpt>
      <trkpt lat="39.52124" lon="-8.6829">
        <ele>238.06</ele>
        <time>2019-05-15T16:32:42Z</time>
      </trkpt>
      <trkpt lat="39.52125" lon="-8.68293">
        <ele>238.06</ele>
        <time>2019-05-15T16:33:26Z</time>
      </trkpt>
      <trkpt lat="39.52127" lon="-8.68289">
        <ele>237.58</ele>
        <time>2019-05-15T16:34:00Z</time>
      </trkpt>
      <trkpt lat="39.52132" lon="-8.68278">
        <ele>237.58</ele>
        <time>2019-05-15T16:34:26Z</time>
      </trkpt>
      <trkpt lat="39.52137" lon="-8.68275">
        <ele>238.06</ele>
        <time>2019-05-15T16:34:53Z</time>
      </trkpt>
      <trkpt lat="39.5213" lon="-8.6828">
        <ele>238.54</ele>
        <time>2019-05-15T16:35:24Z</time>
      </trkpt>
      <trkpt lat="39.52126" lon="-8.68288">
        <ele>238.06</ele>
        <time>2019-05-15T16:35:50Z</time>
      </trkpt>
      <trkpt lat="39.52125" lon="-8.68293">
        <ele>237.1</ele>
        <time>2019-05-15T16:36:17Z</time>
      </trkpt>
      <trkpt lat="39.52115" lon="-8.68294">
        <ele>236.62</ele>
        <time>2019-05-15T16:36:42Z</time>
      </trkpt>
      <trkpt lat="39.52127" lon="-8.6829">
        <ele>237.1</ele>
        <time>2019-05-15T16:37:07Z</time>
      </trkpt>
      <trkpt lat="39.52126" lon="-8.6829">
        <ele>237.58</ele>
        <time>2019-05-15T16:37:35Z</time>
      </trkpt>
      <trkpt lat="39.52127" lon="-8.68287">
        <ele>236.62</ele>
        <time>2019-05-15T16:38:01Z</time>
      </trkpt>
      <trkpt lat="39.52127" lon="-8.68285">
        <ele>236.62</ele>
        <time>2019-05-15T16:38:27Z</time>
      </trkpt>
      <trkpt lat="39.52122" lon="-8.6829">
        <ele>236.62</ele>
        <time>2019-05-15T16:38:57Z</time>
      </trkpt>
      <trkpt lat="39.52124" lon="-8.6829">
        <ele>236.62</ele>
        <time>2019-05-15T16:39:35Z</time>
      </trkpt>
      <trkpt lat="39.52124" lon="-8.68294">
        <ele>237.1</ele>
        <time>2019-05-15T16:40:07Z</time>
      </trkpt>
      <trkpt lat="39.52121" lon="-8.68296">
        <ele>236.62</ele>
        <time>2019-05-15T16:40:43Z</time>
      </trkpt>
      <trkpt lat="39.52119" lon="-8.68293">
        <ele>236.14</ele>
        <time>2019-05-15T16:41:14Z</time>
      </trkpt>
      <trkpt lat="39.52124" lon="-8.68293">
        <ele>236.14</ele>
        <time>2019-05-15T16:41:40Z</time>
      </trkpt>
      <trkpt lat="39.52127" lon="-8.68291">
        <ele>235.66</ele>
        <time>2019-05-15T16:42:07Z</time>
      </trkpt>
      <trkpt lat="39.52127" lon="-8.68291">
        <ele>236.14</ele>
        <time>2019-05-15T16:42:36Z</time>
      </trkpt>
      <trkpt lat="39.52134" lon="-8.68286">
        <ele>236.14</ele>
        <time>2019-05-15T16:43:10Z</time>
      </trkpt>
      <trkpt lat="39.5214" lon="-8.68282">
        <ele>236.62</ele>
        <time>2019-05-15T16:43:27Z</time>
      </trkpt>
      <trkpt lat="39.52147" lon="-8.68277">
        <ele>236.14</ele>
        <time>2019-05-15T16:44:01Z</time>
      </trkpt>
      <trkpt lat="39.52159" lon="-8.68272">
        <ele>236.14</ele>
        <time>2019-05-15T16:44:29Z</time>
      </trkpt>
      <trkpt lat="39.52144" lon="-8.6828">
        <ele>236.14</ele>
        <time>2019-05-15T16:44:56Z</time>
      </trkpt>
      <trkpt lat="39.52135" lon="-8.68287">
        <ele>236.14</ele>
        <time>2019-05-15T16:45:28Z</time>
      </trkpt>
      <trkpt lat="39.52125" lon="-8.6829">
        <ele>236.62</ele>
        <time>2019-05-15T16:45:55Z</time>
      </trkpt>
      <trkpt lat="39.52122" lon="-8.6829">
        <ele>236.14</ele>
        <time>2019-05-15T16:46:24Z</time>
      </trkpt>
      <trkpt lat="39.52123" lon="-8.68289">
        <ele>235.66</ele>
        <time>2019-05-15T16:46:51Z</time>
      </trkpt>
      <trkpt lat="39.52122" lon="-8.68289">
        <ele>235.66</ele>
        <time>2019-05-15T16:47:25Z</time>
      </trkpt>
      <trkpt lat="39.52119" lon="-8.68289">
        <ele>235.66</ele>
        <time>2019-05-15T16:47:56Z</time>
      </trkpt>
      <trkpt lat="39.52126" lon="-8.6829">
        <ele>235.66</ele>
        <time>2019-05-15T16:48:22Z</time>
      </trkpt>
      <trkpt lat="39.52125" lon="-8.68291">
        <ele>235.18</ele>
        <time>2019-05-15T16:48:49Z</time>
      </trkpt>
      <trkpt lat="39.52126" lon="-8.68287">
        <ele>235.66</ele>
        <time>2019-05-15T16:49:18Z</time>
      </trkpt>
      <trkpt lat="39.52124" lon="-8.68287">
        <ele>236.14</ele>
        <time>2019-05-15T16:49:49Z</time>
      </trkpt>
      <trkpt lat="39.52122" lon="-8.68289">
        <ele>235.18</ele>
        <time>2019-05-15T16:50:20Z</time>
      </trkpt>
      <trkpt lat="39.52124" lon="-8.68287">
        <ele>236.14</ele>
        <time>2019-05-15T16:50:46Z</time>
      </trkpt>
      <trkpt lat="39.52128" lon="-8.68284">
        <ele>235.66</ele>
        <time>2019-05-15T16:51:18Z</time>
      </trkpt>
      <trkpt lat="39.52128" lon="-8.68289">
        <ele>235.18</ele>
        <time>2019-05-15T16:51:49Z</time>
      </trkpt>
      <trkpt lat="39.5213" lon="-8.68287">
        <ele>235.18</ele>
        <time>2019-05-15T16:52:21Z</time>
      </trkpt>
      <trkpt lat="39.52129" lon="-8.68285">
        <ele>235.66</ele>
        <time>2019-05-15T16:52:51Z</time>
      </trkpt>
      <trkpt lat="39.52126" lon="-8.68287">
        <ele>235.66</ele>
        <time>2019-05-15T16:53:22Z</time>
      </trkpt>
      <trkpt lat="39.52123" lon="-8.68288">
        <ele>235.66</ele>
        <time>2019-05-15T16:53:55Z</time>
      </trkpt>
      <trkpt lat="39.52127" lon="-8.68287">
        <ele>235.18</ele>
        <time>2019-05-15T16:54:34Z</time>
      </trkpt>
      <trkpt lat="39.5213" lon="-8.68285">
        <ele>236.14</ele>
        <time>2019-05-15T16:55:14Z</time>
      </trkpt>
      <trkpt lat="39.52129" lon="-8.68289">
        <ele>236.14</ele>
        <time>2019-05-15T16:55:43Z</time>
      </trkpt>
      <trkpt lat="39.52129" lon="-8.68289">
        <ele>235.66</ele>
        <time>2019-05-15T16:56:09Z</time>
      </trkpt>
      <trkpt lat="39.52128" lon="-8.68289">
        <ele>236.14</ele>
        <time>2019-05-15T16:56:41Z</time>
      </trkpt>
      <trkpt lat="39.52132" lon="-8.68292">
        <ele>236.14</ele>
        <time>2019-05-15T16:57:09Z</time>
      </trkpt>
      <trkpt lat="39.52135" lon="-8.68292">
        <ele>235.66</ele>
        <time>2019-05-15T16:57:34Z</time>
      </trkpt>
      <trkpt lat="39.52127" lon="-8.68293">
        <ele>236.62</ele>
        <time>2019-05-15T16:58:01Z</time>
      </trkpt>
      <trkpt lat="39.52125" lon="-8.68292">
        <ele>236.14</ele>
        <time>2019-05-15T16:58:27Z</time>
      </trkpt>
      <trkpt lat="39.52125" lon="-8.68285">
        <ele>236.62</ele>
        <time>2019-05-15T16:58:49Z</time>
      </trkpt>
      <trkpt lat="39.52125" lon="-8.68289">
        <ele>236.62</ele>
        <time>2019-05-15T16:59:15Z</time>
      </trkpt>
      <trkpt lat="39.52125" lon="-8.68292">
        <ele>236.14</ele>
        <time>2019-05-15T16:59:38Z</time>
      </trkpt>
      <trkpt lat="39.52143" lon="-8.68292">
        <ele>236.14</ele>
        <time>2019-05-15T17:00:06Z</time>
      </trkpt>
      <trkpt lat="39.52128" lon="-8.68291">
        <ele>236.62</ele>
        <time>2019-05-15T17:00:38Z</time>
      </trkpt>
      <trkpt lat="39.52132" lon="-8.68286">
        <ele>237.1</ele>
        <time>2019-05-15T17:01:15Z</time>
      </trkpt>
      <trkpt lat="39.52126" lon="-8.68288">
        <ele>236.62</ele>
        <time>2019-05-15T17:01:46Z</time>
      </trkpt>
      <trkpt lat="39.5213" lon="-8.6829">
        <ele>236.62</ele>
        <time>2019-05-15T17:02:20Z</time>
      </trkpt>
      <trkpt lat="39.52129" lon="-8.68291">
        <ele>236.62</ele>
        <time>2019-05-15T17:02:53Z</time>
      </trkpt>
      <trkpt lat="39.52127" lon="-8.6829">
        <ele>236.62</ele>
        <time>2019-05-15T17:03:28Z</time>
      </trkpt>
      <trkpt lat="39.52132" lon="-8.6829">
        <ele>237.1</ele>
        <time>2019-05-15T17:04:05Z</time>
      </trkpt>
      <trkpt lat="39.52129" lon="-8.68285">
        <ele>237.58</ele>
        <time>2019-05-15T17:04:38Z</time>
      </trkpt>
      <trkpt lat="39.52123" lon="-8.68289">
        <ele>237.1</ele>
        <time>2019-05-15T17:05:05Z</time>
      </trkpt>
      <trkpt lat="39.52127" lon="-8.6829">
        <ele>236.62</ele>
        <time>2019-05-15T17:05:43Z</time>
      </trkpt>
      <trkpt lat="39.52128" lon="-8.68291">
        <ele>237.58</ele>
        <time>2019-05-15T17:06:20Z</time>
      </trkpt>
      <trkpt lat="39.52131" lon="-8.6829">
        <ele>236.62</ele>
        <time>2019-05-15T17:06:57Z</time>
      </trkpt>
      <trkpt lat="39.52134" lon="-8.6829">
        <ele>237.1</ele>
        <time>2019-05-15T17:07:29Z</time>
      </trkpt>
      <trkpt lat="39.5213" lon="-8.68289">
        <ele>237.58</ele>
        <time>2019-05-15T17:08:01Z</time>
      </trkpt>
      <trkpt lat="39.5213" lon="-8.68291">
        <ele>236.62</ele>
        <time>2019-05-15T17:08:36Z</time>
      </trkpt>
      <trkpt lat="39.52133" lon="-8.68291">
        <ele>235.66</ele>
        <time>2019-05-15T17:09:10Z</time>
      </trkpt>
      <trkpt lat="39.52132" lon="-8.68289">
        <ele>236.62</ele>
        <time>2019-05-15T17:09:43Z</time>
      </trkpt>
      <trkpt lat="39.52129" lon="-8.68288">
        <ele>236.62</ele>
        <time>2019-05-15T17:10:19Z</time>
      </trkpt>
      <trkpt lat="39.5213" lon="-8.68287">
        <ele>236.62</ele>
        <time>2019-05-15T17:10:48Z</time>
      </trkpt>
      <trkpt lat="39.52135" lon="-8.68289">
        <ele>236.62</ele>
        <time>2019-05-15T17:11:20Z</time>
      </trkpt>
      <trkpt lat="39.52132" lon="-8.68292">
        <ele>236.14</ele>
        <time>2019-05-15T17:11:48Z</time>
      </trkpt>
      <trkpt lat="39.52133" lon="-8.68292">
        <ele>236.62</ele>
        <time>2019-05-15T17:12:19Z</time>
      </trkpt>
      <trkpt lat="39.52131" lon="-8.6829">
        <ele>236.62</ele>
        <time>2019-05-15T17:12:47Z</time>
      </trkpt>
      <trkpt lat="39.52129" lon="-8.68289">
        <ele>236.62</ele>
        <time>2019-05-15T17:13:11Z</time>
      </trkpt>
      <trkpt lat="39.52132" lon="-8.68287">
        <ele>236.62</ele>
        <time>2019-05-15T17:13:45Z</time>
      </trkpt>
      <trkpt lat="39.52134" lon="-8.68286">
        <ele>237.1</ele>
        <time>2019-05-15T17:14:22Z</time>
      </trkpt>
      <trkpt lat="39.52137" lon="-8.68284">
        <ele>235.66</ele>
        <time>2019-05-15T17:15:02Z</time>
      </trkpt>
      <trkpt lat="39.52135" lon="-8.68285">
        <ele>236.62</ele>
        <time>2019-05-15T17:15:39Z</time>
      </trkpt>
      <trkpt lat="39.52134" lon="-8.6829">
        <ele>236.14</ele>
        <time>2019-05-15T17:16:15Z</time>
      </trkpt>
      <trkpt lat="39.52126" lon="-8.68292">
        <ele>236.62</ele>
        <time>2019-05-15T17:16:39Z</time>
      </trkpt>
      <trkpt lat="39.52133" lon="-8.68292">
        <ele>236.62</ele>
        <time>2019-05-15T17:17:06Z</time>
      </trkpt>
      <trkpt lat="39.52139" lon="-8.68295">
        <ele>237.1</ele>
        <time>2019-05-15T17:17:36Z</time>
      </trkpt>
      <trkpt lat="39.52136" lon="-8.68291">
        <ele>237.1</ele>
        <time>2019-05-15T17:18:01Z</time>
      </trkpt>
      <trkpt lat="39.52138" lon="-8.68295">
        <ele>237.1</ele>
        <time>2019-05-15T17:18:31Z</time>
      </trkpt>
      <trkpt lat="39.52135" lon="-8.68291">
        <ele>238.06</ele>
        <time>2019-05-15T17:19:04Z</time>
      </trkpt>
      <trkpt lat="39.52134" lon="-8.68287">
        <ele>238.06</ele>
        <time>2019-05-15T17:19:38Z</time>
      </trkpt>
      <trkpt lat="39.52129" lon="-8.68288">
        <ele>237.58</ele>
        <time>2019-05-15T17:20:12Z</time>
      </trkpt>
      <trkpt lat="39.52121" lon="-8.68289">
        <ele>237.58</ele>
        <time>2019-05-15T17:20:40Z</time>
      </trkpt>
      <trkpt lat="39.52123" lon="-8.68287">
        <ele>238.06</ele>
        <time>2019-05-15T17:21:11Z</time>
      </trkpt>
      <trkpt lat="39.52126" lon="-8.68285">
        <ele>237.58</ele>
        <time>2019-05-15T17:21:38Z</time>
      </trkpt>
      <trkpt lat="39.52122" lon="-8.68286">
        <ele>237.58</ele>
        <time>2019-05-15T17:22:09Z</time>
      </trkpt>
      <trkpt lat="39.5213" lon="-8.68285">
        <ele>237.58</ele>
        <time>2019-05-15T17:22:48Z</time>
      </trkpt>
      <trkpt lat="39.52126" lon="-8.68288">
        <ele>237.1</ele>
        <time>2019-05-15T17:23:29Z</time>
      </trkpt>
      <trkpt lat="39.52129" lon="-8.68288">
        <ele>237.58</ele>
        <time>2019-05-15T17:24:03Z</time>
      </trkpt>
      <trkpt lat="39.52126" lon="-8.68289">
        <ele>237.58</ele>
        <time>2019-05-15T17:24:36Z</time>
      </trkpt>
      <trkpt lat="39.5213" lon="-8.6829">
        <ele>237.1</ele>
        <time>2019-05-15T17:25:25Z</time>
      </trkpt>
      <trkpt lat="39.52129" lon="-8.68292">
        <ele>238.06</ele>
        <time>2019-05-15T17:26:15Z</time>
      </trkpt>
      <trkpt lat="39.52127" lon="-8.68292">
        <ele>237.58</ele>
        <time>2019-05-15T17:26:59Z</time>
      </trkpt>
      <trkpt lat="39.5213" lon="-8.68288">
        <ele>238.06</ele>
        <time>2019-05-15T17:27:43Z</time>
      </trkpt>
      <trkpt lat="39.5213" lon="-8.68288">
        <ele>238.54</ele>
        <time>2019-05-15T17:28:19Z</time>
      </trkpt>
      <trkpt lat="39.5213" lon="-8.68289">
        <ele>238.06</ele>
        <time>2019-05-15T17:28:58Z</time>
      </trkpt>
      <trkpt lat="39.52126" lon="-8.68288">
        <ele>237.58</ele>
        <time>2019-05-15T17:29:34Z</time>
      </trkpt>
      <trkpt lat="39.52127" lon="-8.68287">
        <ele>238.54</ele>
        <time>2019-05-15T17:30:21Z</time>
      </trkpt>
      <trkpt lat="39.52129" lon="-8.68286">
        <ele>238.06</ele>
        <time>2019-05-15T17:31:07Z</time>
      </trkpt>
      <trkpt lat="39.52126" lon="-8.68284">
        <ele>237.58</ele>
        <time>2019-05-15T17:31:50Z</time>
      </trkpt>
      <trkpt lat="39.52126" lon="-8.68285">
        <ele>238.06</ele>
        <time>2019-05-15T17:32:32Z</time>
      </trkpt>
      <trkpt lat="39.52128" lon="-8.68287">
        <ele>238.06</ele>
        <time>2019-05-15T17:33:10Z</time>
      </trkpt>
      <trkpt lat="39.52127" lon="-8.68289">
        <ele>237.1</ele>
        <time>2019-05-15T17:33:59Z</time>
      </trkpt>
      <trkpt lat="39.52124" lon="-8.68287">
        <ele>237.58</ele>
        <time>2019-05-15T17:34:28Z</time>
      </trkpt>
      <trkpt lat="39.52129" lon="-8.68289">
        <ele>236.62</ele>
        <time>2019-05-15T17:34:58Z</time>
      </trkpt>
      <trkpt lat="39.52125" lon="-8.68286">
        <ele>236.62</ele>
        <time>2019-05-15T17:35:30Z</time>
      </trkpt>
      <trkpt lat="39.52127" lon="-8.68289">
        <ele>237.1</ele>
        <time>2019-05-15T17:36:11Z</time>
      </trkpt>
      <trkpt lat="39.52126" lon="-8.68288">
        <ele>237.58</ele>
        <time>2019-05-15T17:36:46Z</time>
      </trkpt>
      <trkpt lat="39.52124" lon="-8.68287">
        <ele>237.1</ele>
        <time>2019-05-15T17:37:26Z</time>
      </trkpt>
      <trkpt lat="39.52126" lon="-8.68286">
        <ele>236.62</ele>
        <time>2019-05-15T17:38:09Z</time>
      </trkpt>
      <trkpt lat="39.52126" lon="-8.68287">
        <ele>237.1</ele>
        <time>2019-05-15T17:38:47Z</time>
      </trkpt>
      <trkpt lat="39.52126" lon="-8.68285">
        <ele>236.62</ele>
        <time>2019-05-15T17:39:32Z</time>
      </trkpt>
      <trkpt lat="39.52128" lon="-8.68285">
        <ele>237.1</ele>
        <time>2019-05-15T17:40:08Z</time>
      </trkpt>
      <trkpt lat="39.52125" lon="-8.68286">
        <ele>237.1</ele>
        <time>2019-05-15T17:40:51Z</time>
      </trkpt>
      <trkpt lat="39.52125" lon="-8.68283">
        <ele>236.62</ele>
        <time>2019-05-15T17:41:33Z</time>
      </trkpt>
      <trkpt lat="39.52128" lon="-8.68287">
        <ele>236.62</ele>
        <time>2019-05-15T17:42:16Z</time>
      </trkpt>
      <trkpt lat="39.52131" lon="-8.68288">
        <ele>236.62</ele>
        <time>2019-05-15T17:42:54Z</time>
      </trkpt>
      <trkpt lat="39.52134" lon="-8.68288">
        <ele>236.62</ele>
        <time>2019-05-15T17:43:29Z</time>
      </trkpt>
      <trkpt lat="39.52135" lon="-8.68291">
        <ele>236.62</ele>
        <time>2019-05-15T17:44:08Z</time>
      </trkpt>
      <trkpt lat="39.52127" lon="-8.68287">
        <ele>237.1</ele>
        <time>2019-05-15T17:44:48Z</time>
      </trkpt>
      <trkpt lat="39.52124" lon="-8.68286">
        <ele>236.62</ele>
        <time>2019-05-15T17:45:29Z</time>
      </trkpt>
      <trkpt lat="39.52121" lon="-8.68287">
        <ele>237.1</ele>
        <time>2019-05-15T17:46:10Z</time>
      </trkpt>
      <trkpt lat="39.52122" lon="-8.68287">
        <ele>237.1</ele>
        <time>2019-05-15T17:46:54Z</time>
      </trkpt>
      <trkpt lat="39.52128" lon="-8.6829">
        <ele>237.1</ele>
        <time>2019-05-15T17:47:40Z</time>
      </trkpt>
      <trkpt lat="39.52128" lon="-8.68289">
        <ele>237.1</ele>
        <time>2019-05-15T17:48:24Z</time>
      </trkpt>
      <trkpt lat="39.52124" lon="-8.68288">
        <ele>237.1</ele>
        <time>2019-05-15T17:49:11Z</time>
      </trkpt>
      <trkpt lat="39.52125" lon="-8.68291">
        <ele>236.62</ele>
        <time>2019-05-15T17:49:52Z</time>
      </trkpt>
      <trkpt lat="39.52119" lon="-8.68287">
        <ele>236.62</ele>
        <time>2019-05-15T17:50:30Z</time>
      </trkpt>
      <trkpt lat="39.52123" lon="-8.68289">
        <ele>236.14</ele>
        <time>2019-05-15T17:51:10Z</time>
      </trkpt>
      <trkpt lat="39.52129" lon="-8.68291">
        <ele>236.62</ele>
        <time>2019-05-15T17:51:51Z</time>
      </trkpt>
      <trkpt lat="39.52131" lon="-8.68289">
        <ele>236.62</ele>
        <time>2019-05-15T17:52:30Z</time>
      </trkpt>
      <trkpt lat="39.52134" lon="-8.68291">
        <ele>236.62</ele>
        <time>2019-05-15T17:53:07Z</time>
      </trkpt>
      <trkpt lat="39.52128" lon="-8.6829">
        <ele>237.1</ele>
        <time>2019-05-15T17:53:45Z</time>
      </trkpt>
      <trkpt lat="39.52123" lon="-8.68289">
        <ele>237.1</ele>
        <time>2019-05-15T17:54:25Z</time>
      </trkpt>
      <trkpt lat="39.52118" lon="-8.68287">
        <ele>237.1</ele>
        <time>2019-05-15T17:55:07Z</time>
      </trkpt>
      <trkpt lat="39.52124" lon="-8.68289">
        <ele>236.62</ele>
        <time>2019-05-15T17:55:50Z</time>
      </trkpt>
      <trkpt lat="39.52126" lon="-8.68289">
        <ele>236.62</ele>
        <time>2019-05-15T17:56:32Z</time>
      </trkpt>
      <trkpt lat="39.52117" lon="-8.68287">
        <ele>236.62</ele>
        <time>2019-05-15T17:57:19Z</time>
      </trkpt>
      <trkpt lat="39.52125" lon="-8.68288">
        <ele>236.14</ele>
        <time>2019-05-15T17:58:08Z</time>
      </trkpt>
      <trkpt lat="39.52128" lon="-8.68287">
        <ele>236.62</ele>
        <time>2019-05-15T17:58:45Z</time>
      </trkpt>
      <trkpt lat="39.52131" lon="-8.68289">
        <ele>236.62</ele>
        <time>2019-05-15T17:59:21Z</time>
      </trkpt>
      <trkpt lat="39.52138" lon="-8.6829">
        <ele>236.62</ele>
        <time>2019-05-15T17:59:52Z</time>
      </trkpt>
      <trkpt lat="39.52142" lon="-8.68293">
        <ele>236.62</ele>
        <time>2019-05-15T18:00:21Z</time>
      </trkpt>
      <trkpt lat="39.52142" lon="-8.68291">
        <ele>237.1</ele>
        <time>2019-05-15T18:00:51Z</time>
      </trkpt>
      <trkpt lat="39.52141" lon="-8.68291">
        <ele>237.1</ele>
        <time>2019-05-15T18:01:27Z</time>
      </trkpt>
      <trkpt lat="39.52137" lon="-8.68293">
        <ele>237.58</ele>
        <time>2019-05-15T18:01:57Z</time>
      </trkpt>
      <trkpt lat="39.52134" lon="-8.68294">
        <ele>238.06</ele>
        <time>2019-05-15T18:02:33Z</time>
      </trkpt>
      <trkpt lat="39.52131" lon="-8.68289">
        <ele>237.58</ele>
        <time>2019-05-15T18:03:11Z</time>
      </trkpt>
      <trkpt lat="39.52129" lon="-8.6829">
        <ele>237.58</ele>
        <time>2019-05-15T18:03:55Z</time>
      </trkpt>
      <trkpt lat="39.52128" lon="-8.6829">
        <ele>237.58</ele>
        <time>2019-05-15T18:04:32Z</time>
      </trkpt>
      <trkpt lat="39.52132" lon="-8.68288">
        <ele>237.58</ele>
        <time>2019-05-15T18:05:09Z</time>
      </trkpt>
      <trkpt lat="39.52125" lon="-8.68288">
        <ele>237.1</ele>
        <time>2019-05-15T18:05:45Z</time>
      </trkpt>
      <trkpt lat="39.52127" lon="-8.6829">
        <ele>237.1</ele>
        <time>2019-05-15T18:06:25Z</time>
      </trkpt>
      <trkpt lat="39.52127" lon="-8.68289">
        <ele>237.1</ele>
        <time>2019-05-15T18:07:16Z</time>
      </trkpt>
      <trkpt lat="39.52117" lon="-8.68287">
        <ele>237.1</ele>
        <time>2019-05-15T18:07:49Z</time>
      </trkpt>
      <trkpt lat="39.52125" lon="-8.6829">
        <ele>237.1</ele>
        <time>2019-05-15T18:08:34Z</time>
      </trkpt>
      <trkpt lat="39.5213" lon="-8.68289">
        <ele>237.1</ele>
        <time>2019-05-15T18:09:21Z</time>
      </trkpt>
      <trkpt lat="39.52127" lon="-8.68287">
        <ele>237.1</ele>
        <time>2019-05-15T18:10:07Z</time>
      </trkpt>
      <trkpt lat="39.5213" lon="-8.68287">
        <ele>237.1</ele>
        <time>2019-05-15T18:10:54Z</time>
      </trkpt>
      <trkpt lat="39.52132" lon="-8.68286">
        <ele>237.1</ele>
        <time>2019-05-15T18:11:25Z</time>
      </trkpt>
      <trkpt lat="39.52132" lon="-8.68284">
        <ele>237.1</ele>
        <time>2019-05-15T18:11:54Z</time>
      </trkpt>
      <trkpt lat="39.52132" lon="-8.68285">
        <ele>236.62</ele>
        <time>2019-05-15T18:12:19Z</time>
      </trkpt>
      <trkpt lat="39.52144" lon="-8.68281">
        <ele>237.58</ele>
        <time>2019-05-15T18:12:51Z</time>
      </trkpt>
      <trkpt lat="39.52139" lon="-8.68284">
        <ele>237.58</ele>
        <time>2019-05-15T18:13:31Z</time>
      </trkpt>
      <trkpt lat="39.52138" lon="-8.68285">
        <ele>237.58</ele>
        <time>2019-05-15T18:14:11Z</time>
      </trkpt>
      <trkpt lat="39.52134" lon="-8.68285">
        <ele>238.54</ele>
        <time>2019-05-15T18:14:58Z</time>
      </trkpt>
      <trkpt lat="39.52142" lon="-8.68288">
        <ele>239.02</ele>
        <time>2019-05-15T18:15:35Z</time>
      </trkpt>
      <trkpt lat="39.52151" lon="-8.68291">
        <ele>238.54</ele>
        <time>2019-05-15T18:16:08Z</time>
      </trkpt>
      <trkpt lat="39.52147" lon="-8.68287">
        <ele>239.51</ele>
        <time>2019-05-15T18:16:38Z</time>
      </trkpt>
      <trkpt lat="39.52141" lon="-8.68291">
        <ele>239.99</ele>
        <time>2019-05-15T18:17:08Z</time>
      </trkpt>
      <trkpt lat="39.52121" lon="-8.68274">
        <ele>240.47</ele>
        <time>2019-05-15T18:17:35Z</time>
      </trkpt>
      <trkpt lat="39.5212" lon="-8.68288">
        <ele>240.47</ele>
        <time>2019-05-15T18:18:04Z</time>
      </trkpt>
      <trkpt lat="39.52137" lon="-8.6829">
        <ele>240.47</ele>
        <time>2019-05-15T18:18:43Z</time>
      </trkpt>
      <trkpt lat="39.52135" lon="-8.68289">
        <ele>240.95</ele>
        <time>2019-05-15T18:19:25Z</time>
      </trkpt>
      <trkpt lat="39.52133" lon="-8.68288">
        <ele>240.47</ele>
        <time>2019-05-15T18:20:04Z</time>
      </trkpt>
      <trkpt lat="39.52133" lon="-8.68288">
        <ele>240.47</ele>
        <time>2019-05-15T18:20:43Z</time>
      </trkpt>
      <trkpt lat="39.52133" lon="-8.68288">
        <ele>240.47</ele>
        <time>2019-05-15T18:21:25Z</time>
      </trkpt>
      <trkpt lat="39.52134" lon="-8.68286">
        <ele>240.95</ele>
        <time>2019-05-15T18:22:07Z</time>
      </trkpt>
      <trkpt lat="39.52129" lon="-8.68291">
        <ele>240.95</ele>
        <time>2019-05-15T18:22:54Z</time>
      </trkpt>
      <trkpt lat="39.52131" lon="-8.68292">
        <ele>240.47</ele>
        <time>2019-05-15T18:23:38Z</time>
      </trkpt>
      <trkpt lat="39.52129" lon="-8.6829">
        <ele>240.47</ele>
        <time>2019-05-15T18:24:13Z</time>
      </trkpt>
      <trkpt lat="39.52131" lon="-8.68292">
        <ele>240.47</ele>
        <time>2019-05-15T18:24:45Z</time>
      </trkpt>
      <trkpt lat="39.52129" lon="-8.68293">
        <ele>239.99</ele>
        <time>2019-05-15T18:25:26Z</time>
      </trkpt>
      <trkpt lat="39.52129" lon="-8.68294">
        <ele>240.95</ele>
        <time>2019-05-15T18:26:03Z</time>
      </trkpt>
      <trkpt lat="39.52128" lon="-8.68293">
        <ele>239.99</ele>
        <time>2019-05-15T18:26:35Z</time>
      </trkpt>
      <trkpt lat="39.52123" lon="-8.68289">
        <ele>239.99</ele>
        <time>2019-05-15T18:27:08Z</time>
      </trkpt>
      <trkpt lat="39.52124" lon="-8.68289">
        <ele>240.47</ele>
        <time>2019-05-15T18:27:39Z</time>
      </trkpt>
      <trkpt lat="39.52118" lon="-8.68286">
        <ele>240.47</ele>
        <time>2019-05-15T18:28:13Z</time>
      </trkpt>
      <trkpt lat="39.52115" lon="-8.68286">
        <ele>240.95</ele>
        <time>2019-05-15T18:28:58Z</time>
      </trkpt>
      <trkpt lat="39.52109" lon="-8.6829">
        <ele>240.47</ele>
        <time>2019-05-15T18:29:18Z</time>
      </trkpt>
      <trkpt lat="39.52104" lon="-8.68288">
        <ele>239.99</ele>
        <time>2019-05-15T18:29:53Z</time>
      </trkpt>
      <trkpt lat="39.52113" lon="-8.68294">
        <ele>239.51</ele>
        <time>2019-05-15T18:30:28Z</time>
      </trkpt>
      <trkpt lat="39.52116" lon="-8.68295">
        <ele>239.02</ele>
        <time>2019-05-15T18:31:02Z</time>
      </trkpt>
      <trkpt lat="39.52126" lon="-8.68288">
        <ele>239.02</ele>
        <time>2019-05-15T18:31:39Z</time>
      </trkpt>
      <trkpt lat="39.52123" lon="-8.68288">
        <ele>238.06</ele>
        <time>2019-05-15T18:32:15Z</time>
      </trkpt>
      <trkpt lat="39.52133" lon="-8.68288">
        <ele>238.54</ele>
        <time>2019-05-15T18:32:51Z</time>
      </trkpt>
      <trkpt lat="39.52131" lon="-8.68286">
        <ele>238.06</ele>
        <time>2019-05-15T18:33:34Z</time>
      </trkpt>
      <trkpt lat="39.52132" lon="-8.68289">
        <ele>238.54</ele>
        <time>2019-05-15T18:34:20Z</time>
      </trkpt>
      <trkpt lat="39.52131" lon="-8.68289">
        <ele>238.54</ele>
        <time>2019-05-15T18:35:05Z</time>
      </trkpt>
      <trkpt lat="39.52134" lon="-8.68288">
        <ele>238.06</ele>
        <time>2019-05-15T18:35:41Z</time>
      </trkpt>
      <trkpt lat="39.5213" lon="-8.68288">
        <ele>238.54</ele>
        <time>2019-05-15T18:36:19Z</time>
      </trkpt>
      <trkpt lat="39.52129" lon="-8.68288">
        <ele>238.06</ele>
        <time>2019-05-15T18:36:58Z</time>
      </trkpt>
      <trkpt lat="39.52127" lon="-8.68288">
        <ele>238.06</ele>
        <time>2019-05-15T18:37:35Z</time>
      </trkpt>
      <trkpt lat="39.52127" lon="-8.68289">
        <ele>238.06</ele>
        <time>2019-05-15T18:38:18Z</time>
      </trkpt>
      <trkpt lat="39.52129" lon="-8.68286">
        <ele>238.06</ele>
        <time>2019-05-15T18:39:07Z</time>
      </trkpt>
      <trkpt lat="39.52128" lon="-8.68288">
        <ele>237.58</ele>
        <time>2019-05-15T18:39:57Z</time>
      </trkpt>
      <trkpt lat="39.52128" lon="-8.68287">
        <ele>237.1</ele>
        <time>2019-05-15T18:40:35Z</time>
      </trkpt>
      <trkpt lat="39.52128" lon="-8.68287">
        <ele>238.06</ele>
        <time>2019-05-15T18:40:53Z</time>
      </trkpt>
      <trkpt lat="39.52129" lon="-8.68286">
        <ele>237.58</ele>
        <time>2019-05-15T18:41:34Z</time>
      </trkpt>
      <trkpt lat="39.5213" lon="-8.68286">
        <ele>237.58</ele>
        <time>2019-05-15T18:42:10Z</time>
      </trkpt>
      <trkpt lat="39.5213" lon="-8.68283">
        <ele>237.58</ele>
        <time>2019-05-15T18:42:48Z</time>
      </trkpt>
      <trkpt lat="39.52131" lon="-8.68288">
        <ele>237.58</ele>
        <time>2019-05-15T18:43:26Z</time>
      </trkpt>
      <trkpt lat="39.52128" lon="-8.68283">
        <ele>237.58</ele>
        <time>2019-05-15T18:44:02Z</time>
      </trkpt>
      <trkpt lat="39.52128" lon="-8.68285">
        <ele>237.58</ele>
        <time>2019-05-15T18:44:40Z</time>
      </trkpt>
      <trkpt lat="39.52129" lon="-8.68285">
        <ele>238.06</ele>
        <time>2019-05-15T18:45:29Z</time>
      </trkpt>
      <trkpt lat="39.52128" lon="-8.68287">
        <ele>237.58</ele>
        <time>2019-05-15T18:46:09Z</time>
      </trkpt>
      <trkpt lat="39.52127" lon="-8.68287">
        <ele>237.1</ele>
        <time>2019-05-15T18:46:50Z</time>
      </trkpt>
      <trkpt lat="39.52128" lon="-8.68289">
        <ele>237.58</ele>
        <time>2019-05-15T18:47:27Z</time>
      </trkpt>
      <trkpt lat="39.52128" lon="-8.68287">
        <ele>237.1</ele>
        <time>2019-05-15T18:48:11Z</time>
      </trkpt>
      <trkpt lat="39.52128" lon="-8.68288">
        <ele>237.1</ele>
        <time>2019-05-15T18:48:49Z</time>
      </trkpt>
      <trkpt lat="39.52126" lon="-8.68286">
        <ele>237.1</ele>
        <time>2019-05-15T18:49:33Z</time>
      </trkpt>
      <trkpt lat="39.5213" lon="-8.68286">
        <ele>237.1</ele>
        <time>2019-05-15T18:50:16Z</time>
      </trkpt>
      <trkpt lat="39.52131" lon="-8.68285">
        <ele>237.1</ele>
        <time>2019-05-15T18:50:57Z</time>
      </trkpt>
      <trkpt lat="39.52136" lon="-8.68282">
        <ele>237.58</ele>
        <time>2019-05-15T18:51:39Z</time>
      </trkpt>
      <trkpt lat="39.52134" lon="-8.68284">
        <ele>236.62</ele>
        <time>2019-05-15T18:52:13Z</time>
      </trkpt>
      <trkpt lat="39.52137" lon="-8.68284">
        <ele>237.58</ele>
        <time>2019-05-15T18:53:00Z</time>
      </trkpt>
      <trkpt lat="39.52138" lon="-8.68284">
        <ele>237.58</ele>
        <time>2019-05-15T18:53:31Z</time>
      </trkpt>
      <trkpt lat="39.52141" lon="-8.68285">
        <ele>238.06</ele>
        <time>2019-05-15T18:54:08Z</time>
      </trkpt>
      <trkpt lat="39.52148" lon="-8.68283">
        <ele>238.54</ele>
        <time>2019-05-15T18:54:40Z</time>
      </trkpt>
      <trkpt lat="39.5214" lon="-8.68286">
        <ele>238.54</ele>
        <time>2019-05-15T18:55:20Z</time>
      </trkpt>
      <trkpt lat="39.52135" lon="-8.68284">
        <ele>238.54</ele>
        <time>2019-05-15T18:56:05Z</time>
      </trkpt>
      <trkpt lat="39.52133" lon="-8.68287">
        <ele>239.51</ele>
        <time>2019-05-15T18:56:55Z</time>
      </trkpt>
      <trkpt lat="39.52133" lon="-8.68287">
        <ele>239.51</ele>
        <time>2019-05-15T18:57:46Z</time>
      </trkpt>
      <trkpt lat="39.52129" lon="-8.68289">
        <ele>239.51</ele>
        <time>2019-05-15T18:58:32Z</time>
      </trkpt>
      <trkpt lat="39.52128" lon="-8.6829">
        <ele>239.02</ele>
        <time>2019-05-15T18:59:14Z</time>
      </trkpt>
      <trkpt lat="39.52128" lon="-8.68286">
        <ele>238.54</ele>
        <time>2019-05-15T19:00:03Z</time>
      </trkpt>
      <trkpt lat="39.52127" lon="-8.68284">
        <ele>239.51</ele>
        <time>2019-05-15T19:00:51Z</time>
      </trkpt>
      <trkpt lat="39.52128" lon="-8.68286">
        <ele>238.54</ele>
        <time>2019-05-15T19:01:31Z</time>
      </trkpt>
      <trkpt lat="39.52127" lon="-8.68289">
        <ele>239.02</ele>
        <time>2019-05-15T19:02:18Z</time>
      </trkpt>
      <trkpt lat="39.52128" lon="-8.68289">
        <ele>239.02</ele>
        <time>2019-05-15T19:03:04Z</time>
      </trkpt>
      <trkpt lat="39.52128" lon="-8.68288">
        <ele>238.54</ele>
        <time>2019-05-15T19:03:50Z</time>
      </trkpt>
      <trkpt lat="39.52127" lon="-8.68287">
        <ele>238.54</ele>
        <time>2019-05-15T19:04:37Z</time>
      </trkpt>
      <trkpt lat="39.52126" lon="-8.68287">
        <ele>238.54</ele>
        <time>2019-05-15T19:05:20Z</time>
      </trkpt>
      <trkpt lat="39.52128" lon="-8.68286">
        <ele>238.06</ele>
        <time>2019-05-15T19:05:59Z</time>
      </trkpt>
      <trkpt lat="39.52131" lon="-8.68291">
        <ele>238.06</ele>
        <time>2019-05-15T19:06:43Z</time>
      </trkpt>
      <trkpt lat="39.5213" lon="-8.6829">
        <ele>238.06</ele>
        <time>2019-05-15T19:07:33Z</time>
      </trkpt>
      <trkpt lat="39.52131" lon="-8.6829">
        <ele>238.06</ele>
        <time>2019-05-15T19:08:23Z</time>
      </trkpt>
      <trkpt lat="39.52127" lon="-8.68288">
        <ele>238.54</ele>
        <time>2019-05-15T19:09:10Z</time>
      </trkpt>
      <trkpt lat="39.52127" lon="-8.68287">
        <ele>238.54</ele>
        <time>2019-05-15T19:09:56Z</time>
      </trkpt>
      <trkpt lat="39.52127" lon="-8.68288">
        <ele>238.06</ele>
        <time>2019-05-15T19:10:39Z</time>
      </trkpt>
      <trkpt lat="39.52127" lon="-8.68286">
        <ele>238.06</ele>
        <time>2019-05-15T19:11:20Z</time>
      </trkpt>
      <trkpt lat="39.52129" lon="-8.68285">
        <ele>238.54</ele>
        <time>2019-05-15T19:12:03Z</time>
      </trkpt>
      <trkpt lat="39.52127" lon="-8.68288">
        <ele>238.54</ele>
        <time>2019-05-15T19:12:46Z</time>
      </trkpt>
      <trkpt lat="39.52126" lon="-8.68286">
        <ele>238.06</ele>
        <time>2019-05-15T19:13:27Z</time>
      </trkpt>
      <trkpt lat="39.52126" lon="-8.68289">
        <ele>238.06</ele>
        <time>2019-05-15T19:14:14Z</time>
      </trkpt>
      <trkpt lat="39.52122" lon="-8.68288">
        <ele>237.58</ele>
        <time>2019-05-15T19:14:54Z</time>
      </trkpt>
      <trkpt lat="39.52127" lon="-8.68291">
        <ele>238.06</ele>
        <time>2019-05-15T19:15:36Z</time>
      </trkpt>
      <trkpt lat="39.52131" lon="-8.68288">
        <ele>237.1</ele>
        <time>2019-05-15T19:16:11Z</time>
      </trkpt>
      <trkpt lat="39.52128" lon="-8.68288">
        <ele>237.58</ele>
        <time>2019-05-15T19:16:42Z</time>
      </trkpt>
      <trkpt lat="39.52126" lon="-8.68284">
        <ele>237.58</ele>
        <time>2019-05-15T19:17:11Z</time>
      </trkpt>
      <trkpt lat="39.52127" lon="-8.68285">
        <ele>237.1</ele>
        <time>2019-05-15T19:17:49Z</time>
      </trkpt>
      <trkpt lat="39.52127" lon="-8.6829">
        <ele>238.06</ele>
        <time>2019-05-15T19:18:29Z</time>
      </trkpt>
      <trkpt lat="39.52125" lon="-8.68293">
        <ele>237.58</ele>
        <time>2019-05-15T19:19:08Z</time>
      </trkpt>
      <trkpt lat="39.52126" lon="-8.68287">
        <ele>238.06</ele>
        <time>2019-05-15T19:19:45Z</time>
      </trkpt>
      <trkpt lat="39.52126" lon="-8.6829">
        <ele>237.58</ele>
        <time>2019-05-15T19:20:18Z</time>
      </trkpt>
      <trkpt lat="39.52126" lon="-8.68293">
        <ele>238.06</ele>
        <time>2019-05-15T19:20:51Z</time>
      </trkpt>
      <trkpt lat="39.52127" lon="-8.68294">
        <ele>237.58</ele>
        <time>2019-05-15T19:21:25Z</time>
      </trkpt>
      <trkpt lat="39.52132" lon="-8.68289">
        <ele>237.1</ele>
        <time>2019-05-15T19:21:58Z</time>
      </trkpt>
      <trkpt lat="39.52126" lon="-8.68286">
        <ele>237.1</ele>
        <time>2019-05-15T19:22:30Z</time>
      </trkpt>
      <trkpt lat="39.52108" lon="-8.68297">
        <ele>237.1</ele>
        <time>2019-05-15T19:22:57Z</time>
      </trkpt>
      <trkpt lat="39.52123" lon="-8.68292">
        <ele>237.1</ele>
        <time>2019-05-15T19:23:26Z</time>
      </trkpt>
      <trkpt lat="39.52132" lon="-8.68276">
        <ele>236.62</ele>
        <time>2019-05-15T19:23:50Z</time>
      </trkpt>
      <trkpt lat="39.52131" lon="-8.68279">
        <ele>236.14</ele>
        <time>2019-05-15T19:24:33Z</time>
      </trkpt>
      <trkpt lat="39.52133" lon="-8.68272">
        <ele>236.14</ele>
        <time>2019-05-15T19:25:10Z</time>
      </trkpt>
      <trkpt lat="39.5213" lon="-8.6828">
        <ele>235.66</ele>
        <time>2019-05-15T19:25:41Z</time>
      </trkpt>
      <trkpt lat="39.52126" lon="-8.68285">
        <ele>235.66</ele>
        <time>2019-05-15T19:26:15Z</time>
      </trkpt>
      <trkpt lat="39.52127" lon="-8.68285">
        <ele>235.66</ele>
        <time>2019-05-15T19:27:04Z</time>
      </trkpt>
      <trkpt lat="39.52127" lon="-8.68289">
        <ele>235.18</ele>
        <time>2019-05-15T19:27:54Z</time>
      </trkpt>
      <trkpt lat="39.52134" lon="-8.68284">
        <ele>234.7</ele>
        <time>2019-05-15T19:28:37Z</time>
      </trkpt>
      <trkpt lat="39.52132" lon="-8.68292">
        <ele>235.18</ele>
        <time>2019-05-15T19:29:20Z</time>
      </trkpt>
      <trkpt lat="39.52128" lon="-8.68294">
        <ele>235.66</ele>
        <time>2019-05-15T19:30:00Z</time>
      </trkpt>
      <trkpt lat="39.5213" lon="-8.68288">
        <ele>235.66</ele>
        <time>2019-05-15T19:30:42Z</time>
      </trkpt>
      <trkpt lat="39.52129" lon="-8.68285">
        <ele>236.14</ele>
        <time>2019-05-15T19:31:16Z</time>
      </trkpt>
      <trkpt lat="39.5213" lon="-8.68286">
        <ele>236.14</ele>
        <time>2019-05-15T19:31:49Z</time>
      </trkpt>
      <trkpt lat="39.52129" lon="-8.68286">
        <ele>236.14</ele>
        <time>2019-05-15T19:32:19Z</time>
      </trkpt>
      <trkpt lat="39.52128" lon="-8.68285">
        <ele>235.66</ele>
        <time>2019-05-15T19:32:56Z</time>
      </trkpt>
      <trkpt lat="39.52128" lon="-8.68284">
        <ele>236.14</ele>
        <time>2019-05-15T19:33:35Z</time>
      </trkpt>
      <trkpt lat="39.52127" lon="-8.68288">
        <ele>235.18</ele>
        <time>2019-05-15T19:34:15Z</time>
      </trkpt>
      <trkpt lat="39.52128" lon="-8.68287">
        <ele>235.66</ele>
        <time>2019-05-15T19:34:48Z</time>
      </trkpt>
      <trkpt lat="39.52126" lon="-8.68291">
        <ele>235.66</ele>
        <time>2019-05-15T19:35:24Z</time>
      </trkpt>
      <trkpt lat="39.52129" lon="-8.68291">
        <ele>236.14</ele>
        <time>2019-05-15T19:36:04Z</time>
      </trkpt>
      <trkpt lat="39.52129" lon="-8.6829">
        <ele>236.62</ele>
        <time>2019-05-15T19:36:37Z</time>
      </trkpt>
      <trkpt lat="39.52127" lon="-8.68295">
        <ele>237.1</ele>
        <time>2019-05-15T19:37:07Z</time>
      </trkpt>
      <trkpt lat="39.52125" lon="-8.68299">
        <ele>236.62</ele>
        <time>2019-05-15T19:37:14Z</time>
      </trkpt>
      <trkpt lat="39.52122" lon="-8.68302">
        <ele>236.62</ele>
        <time>2019-05-15T19:37:36Z</time>
      </trkpt>
      <trkpt lat="39.52125" lon="-8.68299">
        <ele>237.58</ele>
        <time>2019-05-15T19:38:09Z</time>
      </trkpt>
      <trkpt lat="39.52128" lon="-8.68291">
        <ele>238.06</ele>
        <time>2019-05-15T19:38:47Z</time>
      </trkpt>
      <trkpt lat="39.52129" lon="-8.68288">
        <ele>238.54</ele>
        <time>2019-05-15T19:39:21Z</time>
      </trkpt>
      <trkpt lat="39.52132" lon="-8.68286">
        <ele>238.54</ele>
        <time>2019-05-15T19:39:57Z</time>
      </trkpt>
      <trkpt lat="39.5213" lon="-8.68288">
        <ele>239.02</ele>
        <time>2019-05-15T19:40:43Z</time>
      </trkpt>
      <trkpt lat="39.52127" lon="-8.68289">
        <ele>238.54</ele>
        <time>2019-05-15T19:41:22Z</time>
      </trkpt>
      <trkpt lat="39.52129" lon="-8.68291">
        <ele>239.51</ele>
        <time>2019-05-15T19:41:59Z</time>
      </trkpt>
      <trkpt lat="39.52134" lon="-8.68292">
        <ele>239.99</ele>
        <time>2019-05-15T19:42:25Z</time>
      </trkpt>
      <trkpt lat="39.52131" lon="-8.68289">
        <ele>239.51</ele>
        <time>2019-05-15T19:43:05Z</time>
      </trkpt>
      <trkpt lat="39.52128" lon="-8.68289">
        <ele>239.99</ele>
        <time>2019-05-15T19:43:31Z</time>
      </trkpt>
      <trkpt lat="39.52127" lon="-8.68298">
        <ele>239.51</ele>
        <time>2019-05-15T19:43:58Z</time>
      </trkpt>
      <trkpt lat="39.5213" lon="-8.68298">
        <ele>239.99</ele>
        <time>2019-05-15T19:44:15Z</time>
      </trkpt>
    </trkseg>
  </trk>
</gpx>